<?xml version="1.0" encoding="UTF-8" standalone="no" ?>
<gpx xmlns="http://www.topografix.com/GPX/1/1" xmlns:xsi="http://www.w3.org/2001/XMLSchema-instance" xsi:schemaLocation="http://www.topografix.com/GPX/1/1 http://www.topografix.com/GPX/1/1/gpx.xsd" version="1.1" creator="VisuGPX - https://www.visugpx.com">
  <metadata>
    <name>Course à pied le midi</name>
  </metadata>
  <trk>
    <name><![CDATA[Course à pied le midi_1]]></name>
    <trkseg>
      <trkpt lat="43.6452" lon="1.37977">
        <ele>146</ele>
        <time>2025-04-23T09:38:40Z</time>
      </trkpt>
      <trkpt lat="43.64522" lon="1.37978">
        <ele>146</ele>
        <time>2025-04-23T09:38:41Z</time>
      </trkpt>
      <trkpt lat="43.64523" lon="1.3798">
        <ele>146</ele>
        <time>2025-04-23T09:38:42Z</time>
      </trkpt>
      <trkpt lat="43.64525" lon="1.37981">
        <ele>146</ele>
        <time>2025-04-23T09:38:43Z</time>
      </trkpt>
      <trkpt lat="43.64529" lon="1.37982">
        <ele>144</ele>
        <time>2025-04-23T09:38:44Z</time>
      </trkpt>
      <trkpt lat="43.64533" lon="1.37983">
        <ele>144</ele>
        <time>2025-04-23T09:38:45Z</time>
      </trkpt>
      <trkpt lat="43.64537" lon="1.37983">
        <ele>144</ele>
        <time>2025-04-23T09:38:46Z</time>
      </trkpt>
      <trkpt lat="43.6454" lon="1.37982">
        <ele>144</ele>
        <time>2025-04-23T09:38:47Z</time>
      </trkpt>
      <trkpt lat="43.64544" lon="1.37981">
        <ele>144</ele>
        <time>2025-04-23T09:38:48Z</time>
      </trkpt>
      <trkpt lat="43.64547" lon="1.37979">
        <ele>145</ele>
        <time>2025-04-23T09:38:49Z</time>
      </trkpt>
      <trkpt lat="43.64551" lon="1.37977">
        <ele>146</ele>
        <time>2025-04-23T09:38:50Z</time>
      </trkpt>
      <trkpt lat="43.64554" lon="1.37975">
        <ele>146</ele>
        <time>2025-04-23T09:38:51Z</time>
      </trkpt>
      <trkpt lat="43.64556" lon="1.37971">
        <ele>146</ele>
        <time>2025-04-23T09:38:52Z</time>
      </trkpt>
      <trkpt lat="43.64559" lon="1.37968">
        <ele>146</ele>
        <time>2025-04-23T09:38:53Z</time>
      </trkpt>
      <trkpt lat="43.64561" lon="1.37964">
        <ele>146</ele>
        <time>2025-04-23T09:38:54Z</time>
      </trkpt>
      <trkpt lat="43.64563" lon="1.37959">
        <ele>146</ele>
        <time>2025-04-23T09:38:55Z</time>
      </trkpt>
      <trkpt lat="43.64565" lon="1.37954">
        <ele>146</ele>
        <time>2025-04-23T09:38:56Z</time>
      </trkpt>
      <trkpt lat="43.64565" lon="1.37949">
        <ele>146</ele>
        <time>2025-04-23T09:38:57Z</time>
      </trkpt>
      <trkpt lat="43.64566" lon="1.37944">
        <ele>146</ele>
        <time>2025-04-23T09:38:58Z</time>
      </trkpt>
      <trkpt lat="43.64565" lon="1.37934">
        <ele>145</ele>
        <time>2025-04-23T09:38:59Z</time>
      </trkpt>
      <trkpt lat="43.64565" lon="1.37934">
        <ele>145</ele>
        <time>2025-04-23T09:39:00Z</time>
      </trkpt>
      <trkpt lat="43.64564" lon="1.3793">
        <ele>145</ele>
        <time>2025-04-23T09:39:01Z</time>
      </trkpt>
      <trkpt lat="43.64563" lon="1.37926">
        <ele>145</ele>
        <time>2025-04-23T09:39:02Z</time>
      </trkpt>
      <trkpt lat="43.64561" lon="1.37922">
        <ele>145</ele>
        <time>2025-04-23T09:39:03Z</time>
      </trkpt>
      <trkpt lat="43.64559" lon="1.37918">
        <ele>145</ele>
        <time>2025-04-23T09:39:04Z</time>
      </trkpt>
      <trkpt lat="43.64556" lon="1.37915">
        <ele>145</ele>
        <time>2025-04-23T09:39:05Z</time>
      </trkpt>
      <trkpt lat="43.64553" lon="1.37912">
        <ele>145</ele>
        <time>2025-04-23T09:39:06Z</time>
      </trkpt>
      <trkpt lat="43.6455" lon="1.3791">
        <ele>145</ele>
        <time>2025-04-23T09:39:07Z</time>
      </trkpt>
      <trkpt lat="43.64547" lon="1.37909">
        <ele>145</ele>
        <time>2025-04-23T09:39:08Z</time>
      </trkpt>
      <trkpt lat="43.64543" lon="1.37907">
        <ele>145</ele>
        <time>2025-04-23T09:39:09Z</time>
      </trkpt>
      <trkpt lat="43.6454" lon="1.37905">
        <ele>145</ele>
        <time>2025-04-23T09:39:10Z</time>
      </trkpt>
      <trkpt lat="43.64537" lon="1.37903">
        <ele>144</ele>
        <time>2025-04-23T09:39:11Z</time>
      </trkpt>
      <trkpt lat="43.64534" lon="1.37901">
        <ele>144</ele>
        <time>2025-04-23T09:39:12Z</time>
      </trkpt>
      <trkpt lat="43.6453" lon="1.37899">
        <ele>145</ele>
        <time>2025-04-23T09:39:13Z</time>
      </trkpt>
      <trkpt lat="43.64527" lon="1.37897">
        <ele>145</ele>
        <time>2025-04-23T09:39:14Z</time>
      </trkpt>
      <trkpt lat="43.64524" lon="1.37896">
        <ele>145</ele>
        <time>2025-04-23T09:39:15Z</time>
      </trkpt>
      <trkpt lat="43.6452" lon="1.37894">
        <ele>145</ele>
        <time>2025-04-23T09:39:16Z</time>
      </trkpt>
      <trkpt lat="43.64517" lon="1.37892">
        <ele>145</ele>
        <time>2025-04-23T09:39:17Z</time>
      </trkpt>
      <trkpt lat="43.64511" lon="1.37888">
        <ele>145</ele>
        <time>2025-04-23T09:39:18Z</time>
      </trkpt>
      <trkpt lat="43.64511" lon="1.37888">
        <ele>145</ele>
        <time>2025-04-23T09:39:19Z</time>
      </trkpt>
      <trkpt lat="43.64508" lon="1.37886">
        <ele>145</ele>
        <time>2025-04-23T09:39:20Z</time>
      </trkpt>
      <trkpt lat="43.64505" lon="1.37884">
        <ele>145</ele>
        <time>2025-04-23T09:39:21Z</time>
      </trkpt>
      <trkpt lat="43.64502" lon="1.37882">
        <ele>145</ele>
        <time>2025-04-23T09:39:22Z</time>
      </trkpt>
      <trkpt lat="43.64498" lon="1.3788">
        <ele>145</ele>
        <time>2025-04-23T09:39:23Z</time>
      </trkpt>
      <trkpt lat="43.64494" lon="1.37878">
        <ele>145</ele>
        <time>2025-04-23T09:39:24Z</time>
      </trkpt>
      <trkpt lat="43.64491" lon="1.37877">
        <ele>145</ele>
        <time>2025-04-23T09:39:25Z</time>
      </trkpt>
      <trkpt lat="43.64488" lon="1.37876">
        <ele>145</ele>
        <time>2025-04-23T09:39:26Z</time>
      </trkpt>
      <trkpt lat="43.64485" lon="1.37876">
        <ele>145</ele>
        <time>2025-04-23T09:39:27Z</time>
      </trkpt>
      <trkpt lat="43.64482" lon="1.37876">
        <ele>145</ele>
        <time>2025-04-23T09:39:28Z</time>
      </trkpt>
      <trkpt lat="43.64479" lon="1.37877">
        <ele>145</ele>
        <time>2025-04-23T09:39:29Z</time>
      </trkpt>
      <trkpt lat="43.64476" lon="1.37878">
        <ele>145</ele>
        <time>2025-04-23T09:39:30Z</time>
      </trkpt>
      <trkpt lat="43.64473" lon="1.3788">
        <ele>145</ele>
        <time>2025-04-23T09:39:31Z</time>
      </trkpt>
      <trkpt lat="43.64471" lon="1.37882">
        <ele>145</ele>
        <time>2025-04-23T09:39:32Z</time>
      </trkpt>
      <trkpt lat="43.64468" lon="1.37885">
        <ele>145</ele>
        <time>2025-04-23T09:39:33Z</time>
      </trkpt>
      <trkpt lat="43.64466" lon="1.37889">
        <ele>145</ele>
        <time>2025-04-23T09:39:34Z</time>
      </trkpt>
      <trkpt lat="43.64464" lon="1.37893">
        <ele>145</ele>
        <time>2025-04-23T09:39:35Z</time>
      </trkpt>
      <trkpt lat="43.64462" lon="1.37897">
        <ele>145</ele>
        <time>2025-04-23T09:39:36Z</time>
      </trkpt>
      <trkpt lat="43.6446" lon="1.37906">
        <ele>145</ele>
        <time>2025-04-23T09:39:37Z</time>
      </trkpt>
      <trkpt lat="43.6446" lon="1.37906">
        <ele>145</ele>
        <time>2025-04-23T09:39:38Z</time>
      </trkpt>
      <trkpt lat="43.6446" lon="1.37911">
        <ele>145</ele>
        <time>2025-04-23T09:39:39Z</time>
      </trkpt>
      <trkpt lat="43.64461" lon="1.37916">
        <ele>145</ele>
        <time>2025-04-23T09:39:40Z</time>
      </trkpt>
      <trkpt lat="43.64461" lon="1.3792">
        <ele>145</ele>
        <time>2025-04-23T09:39:41Z</time>
      </trkpt>
      <trkpt lat="43.64462" lon="1.37925">
        <ele>145</ele>
        <time>2025-04-23T09:39:42Z</time>
      </trkpt>
      <trkpt lat="43.64463" lon="1.3793">
        <ele>145</ele>
        <time>2025-04-23T09:39:43Z</time>
      </trkpt>
      <trkpt lat="43.64465" lon="1.37934">
        <ele>145</ele>
        <time>2025-04-23T09:39:44Z</time>
      </trkpt>
      <trkpt lat="43.64466" lon="1.37938">
        <ele>145</ele>
        <time>2025-04-23T09:39:45Z</time>
      </trkpt>
      <trkpt lat="43.64468" lon="1.37941">
        <ele>145</ele>
        <time>2025-04-23T09:39:46Z</time>
      </trkpt>
      <trkpt lat="43.64471" lon="1.37943">
        <ele>145</ele>
        <time>2025-04-23T09:39:47Z</time>
      </trkpt>
      <trkpt lat="43.64473" lon="1.37946">
        <ele>144</ele>
        <time>2025-04-23T09:39:48Z</time>
      </trkpt>
      <trkpt lat="43.64476" lon="1.37947">
        <ele>144</ele>
        <time>2025-04-23T09:39:49Z</time>
      </trkpt>
      <trkpt lat="43.64479" lon="1.3795">
        <ele>145</ele>
        <time>2025-04-23T09:39:50Z</time>
      </trkpt>
      <trkpt lat="43.64482" lon="1.37951">
        <ele>145</ele>
        <time>2025-04-23T09:39:51Z</time>
      </trkpt>
      <trkpt lat="43.64485" lon="1.37953">
        <ele>145</ele>
        <time>2025-04-23T09:39:52Z</time>
      </trkpt>
      <trkpt lat="43.64488" lon="1.37955">
        <ele>145</ele>
        <time>2025-04-23T09:39:53Z</time>
      </trkpt>
      <trkpt lat="43.64491" lon="1.37956">
        <ele>145</ele>
        <time>2025-04-23T09:39:54Z</time>
      </trkpt>
      <trkpt lat="43.64494" lon="1.37958">
        <ele>145</ele>
        <time>2025-04-23T09:39:55Z</time>
      </trkpt>
      <trkpt lat="43.64501" lon="1.37962">
        <ele>145</ele>
        <time>2025-04-23T09:39:56Z</time>
      </trkpt>
      <trkpt lat="43.64501" lon="1.37962">
        <ele>145</ele>
        <time>2025-04-23T09:39:57Z</time>
      </trkpt>
      <trkpt lat="43.64504" lon="1.37964">
        <ele>145</ele>
        <time>2025-04-23T09:39:58Z</time>
      </trkpt>
      <trkpt lat="43.64506" lon="1.37966">
        <ele>144</ele>
        <time>2025-04-23T09:39:59Z</time>
      </trkpt>
      <trkpt lat="43.64512" lon="1.3797">
        <ele>144</ele>
        <time>2025-04-23T09:40:00Z</time>
      </trkpt>
      <trkpt lat="43.64512" lon="1.3797">
        <ele>145</ele>
        <time>2025-04-23T09:40:01Z</time>
      </trkpt>
      <trkpt lat="43.64515" lon="1.37972">
        <ele>145</ele>
        <time>2025-04-23T09:40:02Z</time>
      </trkpt>
      <trkpt lat="43.64518" lon="1.37973">
        <ele>145</ele>
        <time>2025-04-23T09:40:03Z</time>
      </trkpt>
      <trkpt lat="43.64521" lon="1.37975">
        <ele>146</ele>
        <time>2025-04-23T09:40:04Z</time>
      </trkpt>
      <trkpt lat="43.64525" lon="1.37978">
        <ele>146</ele>
        <time>2025-04-23T09:40:05Z</time>
      </trkpt>
      <trkpt lat="43.64528" lon="1.3798">
        <ele>145</ele>
        <time>2025-04-23T09:40:06Z</time>
      </trkpt>
      <trkpt lat="43.64531" lon="1.37981">
        <ele>145</ele>
        <time>2025-04-23T09:40:07Z</time>
      </trkpt>
      <trkpt lat="43.64535" lon="1.37981">
        <ele>145</ele>
        <time>2025-04-23T09:40:08Z</time>
      </trkpt>
      <trkpt lat="43.64537" lon="1.37982">
        <ele>145</ele>
        <time>2025-04-23T09:40:09Z</time>
      </trkpt>
      <trkpt lat="43.6454" lon="1.37982">
        <ele>145</ele>
        <time>2025-04-23T09:40:10Z</time>
      </trkpt>
      <trkpt lat="43.64543" lon="1.37981">
        <ele>145</ele>
        <time>2025-04-23T09:40:11Z</time>
      </trkpt>
      <trkpt lat="43.64547" lon="1.37979">
        <ele>145</ele>
        <time>2025-04-23T09:40:12Z</time>
      </trkpt>
      <trkpt lat="43.6455" lon="1.37978">
        <ele>145</ele>
        <time>2025-04-23T09:40:13Z</time>
      </trkpt>
      <trkpt lat="43.64554" lon="1.37975">
        <ele>145</ele>
        <time>2025-04-23T09:40:14Z</time>
      </trkpt>
      <trkpt lat="43.64559" lon="1.3797">
        <ele>145</ele>
        <time>2025-04-23T09:40:15Z</time>
      </trkpt>
      <trkpt lat="43.64559" lon="1.3797">
        <ele>145</ele>
        <time>2025-04-23T09:40:16Z</time>
      </trkpt>
      <trkpt lat="43.64561" lon="1.37967">
        <ele>145</ele>
        <time>2025-04-23T09:40:17Z</time>
      </trkpt>
      <trkpt lat="43.64563" lon="1.37962">
        <ele>145</ele>
        <time>2025-04-23T09:40:18Z</time>
      </trkpt>
      <trkpt lat="43.64564" lon="1.37957">
        <ele>145</ele>
        <time>2025-04-23T09:40:19Z</time>
      </trkpt>
      <trkpt lat="43.64565" lon="1.37952">
        <ele>145</ele>
        <time>2025-04-23T09:40:20Z</time>
      </trkpt>
      <trkpt lat="43.64566" lon="1.37947">
        <ele>145</ele>
        <time>2025-04-23T09:40:21Z</time>
      </trkpt>
      <trkpt lat="43.64567" lon="1.37942">
        <ele>145</ele>
        <time>2025-04-23T09:40:22Z</time>
      </trkpt>
      <trkpt lat="43.64566" lon="1.37938">
        <ele>145</ele>
        <time>2025-04-23T09:40:23Z</time>
      </trkpt>
      <trkpt lat="43.64566" lon="1.37933">
        <ele>145</ele>
        <time>2025-04-23T09:40:24Z</time>
      </trkpt>
      <trkpt lat="43.64564" lon="1.37929">
        <ele>145</ele>
        <time>2025-04-23T09:40:25Z</time>
      </trkpt>
      <trkpt lat="43.64563" lon="1.37925">
        <ele>145</ele>
        <time>2025-04-23T09:40:26Z</time>
      </trkpt>
      <trkpt lat="43.64561" lon="1.37921">
        <ele>145</ele>
        <time>2025-04-23T09:40:27Z</time>
      </trkpt>
      <trkpt lat="43.64557" lon="1.37916">
        <ele>145</ele>
        <time>2025-04-23T09:40:28Z</time>
      </trkpt>
      <trkpt lat="43.64556" lon="1.37915">
        <ele>145</ele>
        <time>2025-04-23T09:40:29Z</time>
      </trkpt>
      <trkpt lat="43.64553" lon="1.37913">
        <ele>145</ele>
        <time>2025-04-23T09:40:30Z</time>
      </trkpt>
      <trkpt lat="43.6455" lon="1.37911">
        <ele>145</ele>
        <time>2025-04-23T09:40:31Z</time>
      </trkpt>
      <trkpt lat="43.64547" lon="1.37909">
        <ele>145</ele>
        <time>2025-04-23T09:40:32Z</time>
      </trkpt>
      <trkpt lat="43.64544" lon="1.37907">
        <ele>145</ele>
        <time>2025-04-23T09:40:33Z</time>
      </trkpt>
      <trkpt lat="43.64538" lon="1.37903">
        <ele>145</ele>
        <time>2025-04-23T09:40:34Z</time>
      </trkpt>
      <trkpt lat="43.64538" lon="1.37903">
        <ele>145</ele>
        <time>2025-04-23T09:40:35Z</time>
      </trkpt>
      <trkpt lat="43.64535" lon="1.37901">
        <ele>146</ele>
        <time>2025-04-23T09:40:36Z</time>
      </trkpt>
      <trkpt lat="43.64532" lon="1.37899">
        <ele>146</ele>
        <time>2025-04-23T09:40:37Z</time>
      </trkpt>
      <trkpt lat="43.64529" lon="1.37898">
        <ele>146</ele>
        <time>2025-04-23T09:40:38Z</time>
      </trkpt>
      <trkpt lat="43.64525" lon="1.37896">
        <ele>146</ele>
        <time>2025-04-23T09:40:39Z</time>
      </trkpt>
      <trkpt lat="43.64522" lon="1.37895">
        <ele>145</ele>
        <time>2025-04-23T09:40:40Z</time>
      </trkpt>
      <trkpt lat="43.64519" lon="1.37893">
        <ele>145</ele>
        <time>2025-04-23T09:40:41Z</time>
      </trkpt>
      <trkpt lat="43.64516" lon="1.37891">
        <ele>145</ele>
        <time>2025-04-23T09:40:42Z</time>
      </trkpt>
      <trkpt lat="43.64512" lon="1.37889">
        <ele>145</ele>
        <time>2025-04-23T09:40:43Z</time>
      </trkpt>
      <trkpt lat="43.64509" lon="1.37887">
        <ele>145</ele>
        <time>2025-04-23T09:40:44Z</time>
      </trkpt>
      <trkpt lat="43.64505" lon="1.37884">
        <ele>145</ele>
        <time>2025-04-23T09:40:45Z</time>
      </trkpt>
      <trkpt lat="43.64502" lon="1.37883">
        <ele>145</ele>
        <time>2025-04-23T09:40:46Z</time>
      </trkpt>
      <trkpt lat="43.64499" lon="1.37881">
        <ele>146</ele>
        <time>2025-04-23T09:40:47Z</time>
      </trkpt>
      <trkpt lat="43.64496" lon="1.37879">
        <ele>146</ele>
        <time>2025-04-23T09:40:48Z</time>
      </trkpt>
      <trkpt lat="43.64493" lon="1.37878">
        <ele>146</ele>
        <time>2025-04-23T09:40:49Z</time>
      </trkpt>
      <trkpt lat="43.64489" lon="1.37877">
        <ele>146</ele>
        <time>2025-04-23T09:40:50Z</time>
      </trkpt>
      <trkpt lat="43.64486" lon="1.37876">
        <ele>146</ele>
        <time>2025-04-23T09:40:51Z</time>
      </trkpt>
      <trkpt lat="43.64483" lon="1.37876">
        <ele>146</ele>
        <time>2025-04-23T09:40:52Z</time>
      </trkpt>
      <trkpt lat="43.64481" lon="1.37876">
        <ele>146</ele>
        <time>2025-04-23T09:40:53Z</time>
      </trkpt>
      <trkpt lat="43.64477" lon="1.37877">
        <ele>146</ele>
        <time>2025-04-23T09:40:54Z</time>
      </trkpt>
      <trkpt lat="43.64475" lon="1.37878">
        <ele>146</ele>
        <time>2025-04-23T09:40:55Z</time>
      </trkpt>
      <trkpt lat="43.64472" lon="1.3788">
        <ele>146</ele>
        <time>2025-04-23T09:40:56Z</time>
      </trkpt>
      <trkpt lat="43.6447" lon="1.37883">
        <ele>146</ele>
        <time>2025-04-23T09:40:57Z</time>
      </trkpt>
      <trkpt lat="43.64467" lon="1.37886">
        <ele>146</ele>
        <time>2025-04-23T09:40:58Z</time>
      </trkpt>
      <trkpt lat="43.64465" lon="1.3789">
        <ele>146</ele>
        <time>2025-04-23T09:40:59Z</time>
      </trkpt>
      <trkpt lat="43.64463" lon="1.37894">
        <ele>145</ele>
        <time>2025-04-23T09:41:00Z</time>
      </trkpt>
      <trkpt lat="43.64462" lon="1.37899">
        <ele>145</ele>
        <time>2025-04-23T09:41:01Z</time>
      </trkpt>
      <trkpt lat="43.64461" lon="1.37904">
        <ele>145</ele>
        <time>2025-04-23T09:41:02Z</time>
      </trkpt>
      <trkpt lat="43.6446" lon="1.37909">
        <ele>145</ele>
        <time>2025-04-23T09:41:03Z</time>
      </trkpt>
      <trkpt lat="43.6446" lon="1.37914">
        <ele>145</ele>
        <time>2025-04-23T09:41:04Z</time>
      </trkpt>
      <trkpt lat="43.6446" lon="1.37919">
        <ele>145</ele>
        <time>2025-04-23T09:41:05Z</time>
      </trkpt>
      <trkpt lat="43.64461" lon="1.37924">
        <ele>145</ele>
        <time>2025-04-23T09:41:06Z</time>
      </trkpt>
      <trkpt lat="43.64462" lon="1.37929">
        <ele>145</ele>
        <time>2025-04-23T09:41:07Z</time>
      </trkpt>
      <trkpt lat="43.64464" lon="1.37933">
        <ele>145</ele>
        <time>2025-04-23T09:41:08Z</time>
      </trkpt>
      <trkpt lat="43.64466" lon="1.37937">
        <ele>145</ele>
        <time>2025-04-23T09:41:09Z</time>
      </trkpt>
      <trkpt lat="43.64468" lon="1.37941">
        <ele>145</ele>
        <time>2025-04-23T09:41:10Z</time>
      </trkpt>
      <trkpt lat="43.6447" lon="1.37944">
        <ele>145</ele>
        <time>2025-04-23T09:41:11Z</time>
      </trkpt>
      <trkpt lat="43.64476" lon="1.37949">
        <ele>145</ele>
        <time>2025-04-23T09:41:12Z</time>
      </trkpt>
      <trkpt lat="43.64476" lon="1.37949">
        <ele>145</ele>
        <time>2025-04-23T09:41:13Z</time>
      </trkpt>
      <trkpt lat="43.64479" lon="1.37951">
        <ele>145</ele>
        <time>2025-04-23T09:41:14Z</time>
      </trkpt>
      <trkpt lat="43.64482" lon="1.37952">
        <ele>145</ele>
        <time>2025-04-23T09:41:15Z</time>
      </trkpt>
      <trkpt lat="43.64485" lon="1.37955">
        <ele>145</ele>
        <time>2025-04-23T09:41:16Z</time>
      </trkpt>
      <trkpt lat="43.64488" lon="1.37957">
        <ele>145</ele>
        <time>2025-04-23T09:41:17Z</time>
      </trkpt>
      <trkpt lat="43.64491" lon="1.37959">
        <ele>145</ele>
        <time>2025-04-23T09:41:18Z</time>
      </trkpt>
      <trkpt lat="43.64494" lon="1.37961">
        <ele>145</ele>
        <time>2025-04-23T09:41:19Z</time>
      </trkpt>
      <trkpt lat="43.64498" lon="1.37964">
        <ele>145</ele>
        <time>2025-04-23T09:41:20Z</time>
      </trkpt>
      <trkpt lat="43.64501" lon="1.37966">
        <ele>145</ele>
        <time>2025-04-23T09:41:21Z</time>
      </trkpt>
      <trkpt lat="43.64505" lon="1.37968">
        <ele>145</ele>
        <time>2025-04-23T09:41:22Z</time>
      </trkpt>
      <trkpt lat="43.64508" lon="1.3797">
        <ele>145</ele>
        <time>2025-04-23T09:41:23Z</time>
      </trkpt>
      <trkpt lat="43.64512" lon="1.37971">
        <ele>145</ele>
        <time>2025-04-23T09:41:24Z</time>
      </trkpt>
      <trkpt lat="43.64515" lon="1.37973">
        <ele>145</ele>
        <time>2025-04-23T09:41:25Z</time>
      </trkpt>
      <trkpt lat="43.64519" lon="1.37975">
        <ele>145</ele>
        <time>2025-04-23T09:41:26Z</time>
      </trkpt>
      <trkpt lat="43.64522" lon="1.37978">
        <ele>146</ele>
        <time>2025-04-23T09:41:27Z</time>
      </trkpt>
      <trkpt lat="43.64525" lon="1.3798">
        <ele>146</ele>
        <time>2025-04-23T09:41:28Z</time>
      </trkpt>
      <trkpt lat="43.64528" lon="1.37982">
        <ele>146</ele>
        <time>2025-04-23T09:41:29Z</time>
      </trkpt>
      <trkpt lat="43.64532" lon="1.37982">
        <ele>145</ele>
        <time>2025-04-23T09:41:30Z</time>
      </trkpt>
      <trkpt lat="43.64539" lon="1.37982">
        <ele>145</ele>
        <time>2025-04-23T09:41:31Z</time>
      </trkpt>
      <trkpt lat="43.64539" lon="1.37982">
        <ele>145</ele>
        <time>2025-04-23T09:41:32Z</time>
      </trkpt>
      <trkpt lat="43.64542" lon="1.37982">
        <ele>145</ele>
        <time>2025-04-23T09:41:33Z</time>
      </trkpt>
      <trkpt lat="43.64546" lon="1.37981">
        <ele>145</ele>
        <time>2025-04-23T09:41:34Z</time>
      </trkpt>
      <trkpt lat="43.6455" lon="1.37979">
        <ele>145</ele>
        <time>2025-04-23T09:41:35Z</time>
      </trkpt>
      <trkpt lat="43.64553" lon="1.37977">
        <ele>145</ele>
        <time>2025-04-23T09:41:36Z</time>
      </trkpt>
      <trkpt lat="43.64556" lon="1.37975">
        <ele>145</ele>
        <time>2025-04-23T09:41:37Z</time>
      </trkpt>
      <trkpt lat="43.6456" lon="1.37969">
        <ele>145</ele>
        <time>2025-04-23T09:41:38Z</time>
      </trkpt>
      <trkpt lat="43.6456" lon="1.37969">
        <ele>145</ele>
        <time>2025-04-23T09:41:39Z</time>
      </trkpt>
      <trkpt lat="43.64562" lon="1.37965">
        <ele>146</ele>
        <time>2025-04-23T09:41:40Z</time>
      </trkpt>
      <trkpt lat="43.64564" lon="1.3796">
        <ele>146</ele>
        <time>2025-04-23T09:41:41Z</time>
      </trkpt>
      <trkpt lat="43.64566" lon="1.37955">
        <ele>146</ele>
        <time>2025-04-23T09:41:42Z</time>
      </trkpt>
      <trkpt lat="43.64566" lon="1.3795">
        <ele>146</ele>
        <time>2025-04-23T09:41:43Z</time>
      </trkpt>
      <trkpt lat="43.64566" lon="1.37944">
        <ele>146</ele>
        <time>2025-04-23T09:41:44Z</time>
      </trkpt>
      <trkpt lat="43.64566" lon="1.37939">
        <ele>146</ele>
        <time>2025-04-23T09:41:45Z</time>
      </trkpt>
      <trkpt lat="43.64566" lon="1.37935">
        <ele>146</ele>
        <time>2025-04-23T09:41:46Z</time>
      </trkpt>
      <trkpt lat="43.64565" lon="1.3793">
        <ele>146</ele>
        <time>2025-04-23T09:41:47Z</time>
      </trkpt>
      <trkpt lat="43.64563" lon="1.37925">
        <ele>146</ele>
        <time>2025-04-23T09:41:48Z</time>
      </trkpt>
      <trkpt lat="43.64562" lon="1.37921">
        <ele>146</ele>
        <time>2025-04-23T09:41:49Z</time>
      </trkpt>
      <trkpt lat="43.64557" lon="1.37915">
        <ele>146</ele>
        <time>2025-04-23T09:41:50Z</time>
      </trkpt>
      <trkpt lat="43.64557" lon="1.37915">
        <ele>146</ele>
        <time>2025-04-23T09:41:51Z</time>
      </trkpt>
      <trkpt lat="43.64554" lon="1.37912">
        <ele>145</ele>
        <time>2025-04-23T09:41:52Z</time>
      </trkpt>
      <trkpt lat="43.64551" lon="1.37909">
        <ele>145</ele>
        <time>2025-04-23T09:41:53Z</time>
      </trkpt>
      <trkpt lat="43.64548" lon="1.37907">
        <ele>145</ele>
        <time>2025-04-23T09:41:54Z</time>
      </trkpt>
      <trkpt lat="43.64545" lon="1.37905">
        <ele>145</ele>
        <time>2025-04-23T09:41:55Z</time>
      </trkpt>
      <trkpt lat="43.64542" lon="1.37903">
        <ele>145</ele>
        <time>2025-04-23T09:41:56Z</time>
      </trkpt>
      <trkpt lat="43.64539" lon="1.37901">
        <ele>145</ele>
        <time>2025-04-23T09:41:57Z</time>
      </trkpt>
      <trkpt lat="43.64537" lon="1.379">
        <ele>145</ele>
        <time>2025-04-23T09:41:58Z</time>
      </trkpt>
      <trkpt lat="43.64535" lon="1.37899">
        <ele>146</ele>
        <time>2025-04-23T09:41:59Z</time>
      </trkpt>
      <trkpt lat="43.64535" lon="1.37899">
        <ele>146</ele>
        <time>2025-04-23T09:42:00Z</time>
      </trkpt>
      <trkpt lat="43.64533" lon="1.37897">
        <ele>146</ele>
        <time>2025-04-23T09:42:01Z</time>
      </trkpt>
      <trkpt lat="43.64533" lon="1.37897">
        <ele>146</ele>
        <time>2025-04-23T09:42:02Z</time>
      </trkpt>
      <trkpt lat="43.64531" lon="1.37895">
        <ele>146</ele>
        <time>2025-04-23T09:42:03Z</time>
      </trkpt>
      <trkpt lat="43.64531" lon="1.37895">
        <ele>146</ele>
        <time>2025-04-23T09:42:04Z</time>
      </trkpt>
      <trkpt lat="43.64529" lon="1.37894">
        <ele>146</ele>
        <time>2025-04-23T09:42:05Z</time>
      </trkpt>
      <trkpt lat="43.64526" lon="1.37893">
        <ele>146</ele>
        <time>2025-04-23T09:42:06Z</time>
      </trkpt>
      <trkpt lat="43.64526" lon="1.37893">
        <ele>146</ele>
        <time>2025-04-23T09:42:07Z</time>
      </trkpt>
      <trkpt lat="43.64526" lon="1.37893">
        <ele>146</ele>
        <time>2025-04-23T09:42:08Z</time>
      </trkpt>
      <trkpt lat="43.64526" lon="1.37893">
        <ele>146</ele>
        <time>2025-04-23T09:42:09Z</time>
      </trkpt>
      <trkpt lat="43.64526" lon="1.37893">
        <ele>146</ele>
        <time>2025-04-23T09:42:10Z</time>
      </trkpt>
      <trkpt lat="43.64524" lon="1.37892">
        <ele>146</ele>
        <time>2025-04-23T09:42:11Z</time>
      </trkpt>
      <trkpt lat="43.64524" lon="1.37892">
        <ele>146</ele>
        <time>2025-04-23T09:42:12Z</time>
      </trkpt>
      <trkpt lat="43.64521" lon="1.3789">
        <ele>146</ele>
        <time>2025-04-23T09:42:13Z</time>
      </trkpt>
      <trkpt lat="43.64521" lon="1.3789">
        <ele>146</ele>
        <time>2025-04-23T09:42:14Z</time>
      </trkpt>
      <trkpt lat="43.64519" lon="1.37889">
        <ele>146</ele>
        <time>2025-04-23T09:42:15Z</time>
      </trkpt>
      <trkpt lat="43.64519" lon="1.37889">
        <ele>146</ele>
        <time>2025-04-23T09:42:16Z</time>
      </trkpt>
      <trkpt lat="43.64516" lon="1.37887">
        <ele>146</ele>
        <time>2025-04-23T09:42:17Z</time>
      </trkpt>
      <trkpt lat="43.64516" lon="1.37887">
        <ele>146</ele>
        <time>2025-04-23T09:42:18Z</time>
      </trkpt>
      <trkpt lat="43.64514" lon="1.37885">
        <ele>146</ele>
        <time>2025-04-23T09:42:19Z</time>
      </trkpt>
      <trkpt lat="43.64514" lon="1.37885">
        <ele>145</ele>
        <time>2025-04-23T09:42:20Z</time>
      </trkpt>
      <trkpt lat="43.64512" lon="1.37883">
        <ele>145</ele>
        <time>2025-04-23T09:42:21Z</time>
      </trkpt>
      <trkpt lat="43.64512" lon="1.37883">
        <ele>145</ele>
        <time>2025-04-23T09:42:22Z</time>
      </trkpt>
      <trkpt lat="43.64509" lon="1.37882">
        <ele>145</ele>
        <time>2025-04-23T09:42:23Z</time>
      </trkpt>
      <trkpt lat="43.64509" lon="1.37882">
        <ele>145</ele>
        <time>2025-04-23T09:42:24Z</time>
      </trkpt>
      <trkpt lat="43.64507" lon="1.3788">
        <ele>145</ele>
        <time>2025-04-23T09:42:25Z</time>
      </trkpt>
      <trkpt lat="43.64507" lon="1.3788">
        <ele>146</ele>
        <time>2025-04-23T09:42:26Z</time>
      </trkpt>
      <trkpt lat="43.64505" lon="1.3788">
        <ele>146</ele>
        <time>2025-04-23T09:42:27Z</time>
      </trkpt>
      <trkpt lat="43.64503" lon="1.3788">
        <ele>146</ele>
        <time>2025-04-23T09:42:28Z</time>
      </trkpt>
      <trkpt lat="43.64503" lon="1.3788">
        <ele>146</ele>
        <time>2025-04-23T09:42:29Z</time>
      </trkpt>
      <trkpt lat="43.64503" lon="1.3788">
        <ele>146</ele>
        <time>2025-04-23T09:42:30Z</time>
      </trkpt>
      <trkpt lat="43.64501" lon="1.37877">
        <ele>146</ele>
        <time>2025-04-23T09:42:31Z</time>
      </trkpt>
      <trkpt lat="43.64501" lon="1.37877">
        <ele>146</ele>
        <time>2025-04-23T09:42:32Z</time>
      </trkpt>
      <trkpt lat="43.64499" lon="1.37875">
        <ele>146</ele>
        <time>2025-04-23T09:42:33Z</time>
      </trkpt>
      <trkpt lat="43.64499" lon="1.37875">
        <ele>146</ele>
        <time>2025-04-23T09:42:34Z</time>
      </trkpt>
      <trkpt lat="43.64496" lon="1.37874">
        <ele>145</ele>
        <time>2025-04-23T09:42:35Z</time>
      </trkpt>
      <trkpt lat="43.64496" lon="1.37874">
        <ele>145</ele>
        <time>2025-04-23T09:42:36Z</time>
      </trkpt>
      <trkpt lat="43.64494" lon="1.37873">
        <ele>145</ele>
        <time>2025-04-23T09:42:37Z</time>
      </trkpt>
      <trkpt lat="43.64494" lon="1.37873">
        <ele>145</ele>
        <time>2025-04-23T09:42:38Z</time>
      </trkpt>
      <trkpt lat="43.64491" lon="1.37873">
        <ele>145</ele>
        <time>2025-04-23T09:42:39Z</time>
      </trkpt>
      <trkpt lat="43.64491" lon="1.37873">
        <ele>145</ele>
        <time>2025-04-23T09:42:40Z</time>
      </trkpt>
      <trkpt lat="43.64489" lon="1.37873">
        <ele>145</ele>
        <time>2025-04-23T09:42:41Z</time>
      </trkpt>
      <trkpt lat="43.64489" lon="1.37873">
        <ele>145</ele>
        <time>2025-04-23T09:42:42Z</time>
      </trkpt>
      <trkpt lat="43.64486" lon="1.37873">
        <ele>145</ele>
        <time>2025-04-23T09:42:43Z</time>
      </trkpt>
      <trkpt lat="43.64486" lon="1.37873">
        <ele>145</ele>
        <time>2025-04-23T09:42:44Z</time>
      </trkpt>
      <trkpt lat="43.64484" lon="1.37873">
        <ele>145</ele>
        <time>2025-04-23T09:42:45Z</time>
      </trkpt>
      <trkpt lat="43.64484" lon="1.37873">
        <ele>145</ele>
        <time>2025-04-23T09:42:46Z</time>
      </trkpt>
      <trkpt lat="43.64482" lon="1.37874">
        <ele>145</ele>
        <time>2025-04-23T09:42:47Z</time>
      </trkpt>
      <trkpt lat="43.64482" lon="1.37874">
        <ele>145</ele>
        <time>2025-04-23T09:42:48Z</time>
      </trkpt>
      <trkpt lat="43.6448" lon="1.37875">
        <ele>145</ele>
        <time>2025-04-23T09:42:49Z</time>
      </trkpt>
      <trkpt lat="43.6448" lon="1.37875">
        <ele>145</ele>
        <time>2025-04-23T09:42:50Z</time>
      </trkpt>
      <trkpt lat="43.64477" lon="1.37876">
        <ele>145</ele>
        <time>2025-04-23T09:42:51Z</time>
      </trkpt>
      <trkpt lat="43.64477" lon="1.37876">
        <ele>145</ele>
        <time>2025-04-23T09:42:52Z</time>
      </trkpt>
      <trkpt lat="43.64475" lon="1.37879">
        <ele>145</ele>
        <time>2025-04-23T09:42:53Z</time>
      </trkpt>
      <trkpt lat="43.64475" lon="1.37879">
        <ele>145</ele>
        <time>2025-04-23T09:42:54Z</time>
      </trkpt>
      <trkpt lat="43.64473" lon="1.3788">
        <ele>145</ele>
        <time>2025-04-23T09:42:55Z</time>
      </trkpt>
      <trkpt lat="43.64473" lon="1.3788">
        <ele>145</ele>
        <time>2025-04-23T09:42:56Z</time>
      </trkpt>
      <trkpt lat="43.6447" lon="1.37883">
        <ele>145</ele>
        <time>2025-04-23T09:42:57Z</time>
      </trkpt>
      <trkpt lat="43.6447" lon="1.37883">
        <ele>145</ele>
        <time>2025-04-23T09:42:58Z</time>
      </trkpt>
      <trkpt lat="43.64469" lon="1.37885">
        <ele>145</ele>
        <time>2025-04-23T09:42:59Z</time>
      </trkpt>
      <trkpt lat="43.64469" lon="1.37885">
        <ele>145</ele>
        <time>2025-04-23T09:43:00Z</time>
      </trkpt>
      <trkpt lat="43.64467" lon="1.37888">
        <ele>145</ele>
        <time>2025-04-23T09:43:01Z</time>
      </trkpt>
      <trkpt lat="43.64467" lon="1.37888">
        <ele>145</ele>
        <time>2025-04-23T09:43:02Z</time>
      </trkpt>
      <trkpt lat="43.64467" lon="1.37888">
        <ele>145</ele>
        <time>2025-04-23T09:43:03Z</time>
      </trkpt>
      <trkpt lat="43.64467" lon="1.37888">
        <ele>145</ele>
        <time>2025-04-23T09:43:04Z</time>
      </trkpt>
      <trkpt lat="43.64466" lon="1.37891">
        <ele>145</ele>
        <time>2025-04-23T09:43:05Z</time>
      </trkpt>
      <trkpt lat="43.64464" lon="1.37895">
        <ele>145</ele>
        <time>2025-04-23T09:43:06Z</time>
      </trkpt>
      <trkpt lat="43.64464" lon="1.37895">
        <ele>145</ele>
        <time>2025-04-23T09:43:07Z</time>
      </trkpt>
      <trkpt lat="43.64464" lon="1.37895">
        <ele>145</ele>
        <time>2025-04-23T09:43:08Z</time>
      </trkpt>
      <trkpt lat="43.64463" lon="1.37898">
        <ele>145</ele>
        <time>2025-04-23T09:43:09Z</time>
      </trkpt>
      <trkpt lat="43.64463" lon="1.37898">
        <ele>145</ele>
        <time>2025-04-23T09:43:10Z</time>
      </trkpt>
      <trkpt lat="43.64462" lon="1.37901">
        <ele>145</ele>
        <time>2025-04-23T09:43:11Z</time>
      </trkpt>
      <trkpt lat="43.64462" lon="1.37901">
        <ele>146</ele>
        <time>2025-04-23T09:43:12Z</time>
      </trkpt>
      <trkpt lat="43.64461" lon="1.37905">
        <ele>146</ele>
        <time>2025-04-23T09:43:13Z</time>
      </trkpt>
      <trkpt lat="43.64461" lon="1.37905">
        <ele>146</ele>
        <time>2025-04-23T09:43:14Z</time>
      </trkpt>
      <trkpt lat="43.64461" lon="1.37909">
        <ele>146</ele>
        <time>2025-04-23T09:43:15Z</time>
      </trkpt>
      <trkpt lat="43.64461" lon="1.37909">
        <ele>146</ele>
        <time>2025-04-23T09:43:16Z</time>
      </trkpt>
      <trkpt lat="43.64461" lon="1.37913">
        <ele>146</ele>
        <time>2025-04-23T09:43:17Z</time>
      </trkpt>
      <trkpt lat="43.64461" lon="1.37913">
        <ele>146</ele>
        <time>2025-04-23T09:43:18Z</time>
      </trkpt>
      <trkpt lat="43.64461" lon="1.37917">
        <ele>146</ele>
        <time>2025-04-23T09:43:19Z</time>
      </trkpt>
      <trkpt lat="43.64461" lon="1.37917">
        <ele>146</ele>
        <time>2025-04-23T09:43:20Z</time>
      </trkpt>
      <trkpt lat="43.64461" lon="1.37921">
        <ele>146</ele>
        <time>2025-04-23T09:43:21Z</time>
      </trkpt>
      <trkpt lat="43.64461" lon="1.37921">
        <ele>146</ele>
        <time>2025-04-23T09:43:22Z</time>
      </trkpt>
      <trkpt lat="43.64462" lon="1.37925">
        <ele>146</ele>
        <time>2025-04-23T09:43:23Z</time>
      </trkpt>
      <trkpt lat="43.64462" lon="1.37925">
        <ele>146</ele>
        <time>2025-04-23T09:43:24Z</time>
      </trkpt>
      <trkpt lat="43.64463" lon="1.37928">
        <ele>146</ele>
        <time>2025-04-23T09:43:25Z</time>
      </trkpt>
      <trkpt lat="43.64463" lon="1.37928">
        <ele>146</ele>
        <time>2025-04-23T09:43:26Z</time>
      </trkpt>
      <trkpt lat="43.64463" lon="1.37931">
        <ele>146</ele>
        <time>2025-04-23T09:43:27Z</time>
      </trkpt>
      <trkpt lat="43.64463" lon="1.37931">
        <ele>145</ele>
        <time>2025-04-23T09:43:28Z</time>
      </trkpt>
      <trkpt lat="43.64464" lon="1.37934">
        <ele>145</ele>
        <time>2025-04-23T09:43:29Z</time>
      </trkpt>
      <trkpt lat="43.64465" lon="1.37937">
        <ele>145</ele>
        <time>2025-04-23T09:43:30Z</time>
      </trkpt>
      <trkpt lat="43.64465" lon="1.37937">
        <ele>145</ele>
        <time>2025-04-23T09:43:31Z</time>
      </trkpt>
      <trkpt lat="43.64465" lon="1.37937">
        <ele>145</ele>
        <time>2025-04-23T09:43:32Z</time>
      </trkpt>
      <trkpt lat="43.64467" lon="1.37939">
        <ele>146</ele>
        <time>2025-04-23T09:43:33Z</time>
      </trkpt>
      <trkpt lat="43.64467" lon="1.37939">
        <ele>146</ele>
        <time>2025-04-23T09:43:34Z</time>
      </trkpt>
      <trkpt lat="43.64469" lon="1.37942">
        <ele>146</ele>
        <time>2025-04-23T09:43:35Z</time>
      </trkpt>
      <trkpt lat="43.64469" lon="1.37942">
        <ele>146</ele>
        <time>2025-04-23T09:43:36Z</time>
      </trkpt>
      <trkpt lat="43.6447" lon="1.37944">
        <ele>146</ele>
        <time>2025-04-23T09:43:37Z</time>
      </trkpt>
      <trkpt lat="43.6447" lon="1.37944">
        <ele>146</ele>
        <time>2025-04-23T09:43:38Z</time>
      </trkpt>
      <trkpt lat="43.64472" lon="1.37946">
        <ele>145</ele>
        <time>2025-04-23T09:43:39Z</time>
      </trkpt>
      <trkpt lat="43.64472" lon="1.37946">
        <ele>145</ele>
        <time>2025-04-23T09:43:40Z</time>
      </trkpt>
      <trkpt lat="43.64474" lon="1.37948">
        <ele>145</ele>
        <time>2025-04-23T09:43:41Z</time>
      </trkpt>
      <trkpt lat="43.64474" lon="1.37948">
        <ele>145</ele>
        <time>2025-04-23T09:43:42Z</time>
      </trkpt>
      <trkpt lat="43.64476" lon="1.37949">
        <ele>145</ele>
        <time>2025-04-23T09:43:43Z</time>
      </trkpt>
      <trkpt lat="43.64478" lon="1.37951">
        <ele>146</ele>
        <time>2025-04-23T09:43:44Z</time>
      </trkpt>
      <trkpt lat="43.64478" lon="1.37951">
        <ele>146</ele>
        <time>2025-04-23T09:43:45Z</time>
      </trkpt>
      <trkpt lat="43.64478" lon="1.37951">
        <ele>146</ele>
        <time>2025-04-23T09:43:46Z</time>
      </trkpt>
      <trkpt lat="43.6448" lon="1.37951">
        <ele>146</ele>
        <time>2025-04-23T09:43:47Z</time>
      </trkpt>
      <trkpt lat="43.6448" lon="1.37951">
        <ele>146</ele>
        <time>2025-04-23T09:43:48Z</time>
      </trkpt>
      <trkpt lat="43.64482" lon="1.37953">
        <ele>146</ele>
        <time>2025-04-23T09:43:49Z</time>
      </trkpt>
      <trkpt lat="43.64482" lon="1.37953">
        <ele>146</ele>
        <time>2025-04-23T09:43:50Z</time>
      </trkpt>
      <trkpt lat="43.64484" lon="1.37954">
        <ele>146</ele>
        <time>2025-04-23T09:43:51Z</time>
      </trkpt>
      <trkpt lat="43.64484" lon="1.37954">
        <ele>145</ele>
        <time>2025-04-23T09:43:52Z</time>
      </trkpt>
      <trkpt lat="43.64486" lon="1.37956">
        <ele>145</ele>
        <time>2025-04-23T09:43:53Z</time>
      </trkpt>
      <trkpt lat="43.64486" lon="1.37956">
        <ele>145</ele>
        <time>2025-04-23T09:43:54Z</time>
      </trkpt>
      <trkpt lat="43.64488" lon="1.37957">
        <ele>145</ele>
        <time>2025-04-23T09:43:55Z</time>
      </trkpt>
      <trkpt lat="43.64488" lon="1.37957">
        <ele>145</ele>
        <time>2025-04-23T09:43:56Z</time>
      </trkpt>
      <trkpt lat="43.64491" lon="1.37958">
        <ele>145</ele>
        <time>2025-04-23T09:43:57Z</time>
      </trkpt>
      <trkpt lat="43.64491" lon="1.37958">
        <ele>145</ele>
        <time>2025-04-23T09:43:58Z</time>
      </trkpt>
      <trkpt lat="43.64493" lon="1.3796">
        <ele>145</ele>
        <time>2025-04-23T09:43:59Z</time>
      </trkpt>
      <trkpt lat="43.64493" lon="1.3796">
        <ele>145</ele>
        <time>2025-04-23T09:44:00Z</time>
      </trkpt>
      <trkpt lat="43.64495" lon="1.37962">
        <ele>145</ele>
        <time>2025-04-23T09:44:01Z</time>
      </trkpt>
      <trkpt lat="43.64495" lon="1.37962">
        <ele>145</ele>
        <time>2025-04-23T09:44:02Z</time>
      </trkpt>
      <trkpt lat="43.64496" lon="1.37963">
        <ele>145</ele>
        <time>2025-04-23T09:44:03Z</time>
      </trkpt>
      <trkpt lat="43.64496" lon="1.37963">
        <ele>145</ele>
        <time>2025-04-23T09:44:04Z</time>
      </trkpt>
      <trkpt lat="43.64499" lon="1.37964">
        <ele>145</ele>
        <time>2025-04-23T09:44:05Z</time>
      </trkpt>
      <trkpt lat="43.64499" lon="1.37964">
        <ele>145</ele>
        <time>2025-04-23T09:44:06Z</time>
      </trkpt>
      <trkpt lat="43.64501" lon="1.37966">
        <ele>145</ele>
        <time>2025-04-23T09:44:07Z</time>
      </trkpt>
      <trkpt lat="43.64501" lon="1.37966">
        <ele>145</ele>
        <time>2025-04-23T09:44:08Z</time>
      </trkpt>
      <trkpt lat="43.64503" lon="1.37966">
        <ele>145</ele>
        <time>2025-04-23T09:44:09Z</time>
      </trkpt>
      <trkpt lat="43.64503" lon="1.37966">
        <ele>145</ele>
        <time>2025-04-23T09:44:10Z</time>
      </trkpt>
      <trkpt lat="43.64505" lon="1.37968">
        <ele>145</ele>
        <time>2025-04-23T09:44:11Z</time>
      </trkpt>
      <trkpt lat="43.64505" lon="1.37968">
        <ele>145</ele>
        <time>2025-04-23T09:44:12Z</time>
      </trkpt>
      <trkpt lat="43.64507" lon="1.37969">
        <ele>145</ele>
        <time>2025-04-23T09:44:13Z</time>
      </trkpt>
      <trkpt lat="43.64507" lon="1.37969">
        <ele>145</ele>
        <time>2025-04-23T09:44:14Z</time>
      </trkpt>
      <trkpt lat="43.6451" lon="1.3797">
        <ele>145</ele>
        <time>2025-04-23T09:44:15Z</time>
      </trkpt>
      <trkpt lat="43.6451" lon="1.3797">
        <ele>145</ele>
        <time>2025-04-23T09:44:16Z</time>
      </trkpt>
      <trkpt lat="43.64512" lon="1.37972">
        <ele>145</ele>
        <time>2025-04-23T09:44:17Z</time>
      </trkpt>
      <trkpt lat="43.64512" lon="1.37972">
        <ele>145</ele>
        <time>2025-04-23T09:44:18Z</time>
      </trkpt>
      <trkpt lat="43.64514" lon="1.37974">
        <ele>145</ele>
        <time>2025-04-23T09:44:19Z</time>
      </trkpt>
      <trkpt lat="43.64514" lon="1.37974">
        <ele>145</ele>
        <time>2025-04-23T09:44:20Z</time>
      </trkpt>
      <trkpt lat="43.64516" lon="1.37975">
        <ele>145</ele>
        <time>2025-04-23T09:44:21Z</time>
      </trkpt>
      <trkpt lat="43.64516" lon="1.37975">
        <ele>145</ele>
        <time>2025-04-23T09:44:22Z</time>
      </trkpt>
      <trkpt lat="43.64518" lon="1.37976">
        <ele>145</ele>
        <time>2025-04-23T09:44:23Z</time>
      </trkpt>
      <trkpt lat="43.64518" lon="1.37976">
        <ele>145</ele>
        <time>2025-04-23T09:44:24Z</time>
      </trkpt>
      <trkpt lat="43.64521" lon="1.37979">
        <ele>146</ele>
        <time>2025-04-23T09:44:25Z</time>
      </trkpt>
      <trkpt lat="43.64523" lon="1.3798">
        <ele>146</ele>
        <time>2025-04-23T09:44:26Z</time>
      </trkpt>
      <trkpt lat="43.64527" lon="1.37983">
        <ele>145</ele>
        <time>2025-04-23T09:44:27Z</time>
      </trkpt>
      <trkpt lat="43.64528" lon="1.37985">
        <ele>144</ele>
        <time>2025-04-23T09:44:28Z</time>
      </trkpt>
      <trkpt lat="43.64531" lon="1.37987">
        <ele>145</ele>
        <time>2025-04-23T09:44:29Z</time>
      </trkpt>
      <trkpt lat="43.64534" lon="1.37988">
        <ele>145</ele>
        <time>2025-04-23T09:44:30Z</time>
      </trkpt>
      <trkpt lat="43.64537" lon="1.37987">
        <ele>146</ele>
        <time>2025-04-23T09:44:31Z</time>
      </trkpt>
      <trkpt lat="43.64541" lon="1.37986">
        <ele>146</ele>
        <time>2025-04-23T09:44:32Z</time>
      </trkpt>
      <trkpt lat="43.64545" lon="1.37985">
        <ele>146</ele>
        <time>2025-04-23T09:44:33Z</time>
      </trkpt>
      <trkpt lat="43.64549" lon="1.37982">
        <ele>146</ele>
        <time>2025-04-23T09:44:34Z</time>
      </trkpt>
      <trkpt lat="43.64553" lon="1.37979">
        <ele>146</ele>
        <time>2025-04-23T09:44:35Z</time>
      </trkpt>
      <trkpt lat="43.64556" lon="1.37976">
        <ele>146</ele>
        <time>2025-04-23T09:44:36Z</time>
      </trkpt>
      <trkpt lat="43.64559" lon="1.37971">
        <ele>146</ele>
        <time>2025-04-23T09:44:37Z</time>
      </trkpt>
      <trkpt lat="43.64562" lon="1.37965">
        <ele>146</ele>
        <time>2025-04-23T09:44:38Z</time>
      </trkpt>
      <trkpt lat="43.64563" lon="1.3796">
        <ele>146</ele>
        <time>2025-04-23T09:44:39Z</time>
      </trkpt>
      <trkpt lat="43.64565" lon="1.37953">
        <ele>146</ele>
        <time>2025-04-23T09:44:40Z</time>
      </trkpt>
      <trkpt lat="43.64565" lon="1.37946">
        <ele>146</ele>
        <time>2025-04-23T09:44:41Z</time>
      </trkpt>
      <trkpt lat="43.64564" lon="1.37941">
        <ele>146</ele>
        <time>2025-04-23T09:44:42Z</time>
      </trkpt>
      <trkpt lat="43.64564" lon="1.37935">
        <ele>146</ele>
        <time>2025-04-23T09:44:43Z</time>
      </trkpt>
      <trkpt lat="43.64563" lon="1.37929">
        <ele>146</ele>
        <time>2025-04-23T09:44:44Z</time>
      </trkpt>
      <trkpt lat="43.64561" lon="1.37925">
        <ele>147</ele>
        <time>2025-04-23T09:44:45Z</time>
      </trkpt>
      <trkpt lat="43.64559" lon="1.3792">
        <ele>147</ele>
        <time>2025-04-23T09:44:46Z</time>
      </trkpt>
      <trkpt lat="43.64557" lon="1.37916">
        <ele>147</ele>
        <time>2025-04-23T09:44:47Z</time>
      </trkpt>
      <trkpt lat="43.64554" lon="1.37913">
        <ele>147</ele>
        <time>2025-04-23T09:44:48Z</time>
      </trkpt>
      <trkpt lat="43.64551" lon="1.37911">
        <ele>146</ele>
        <time>2025-04-23T09:44:49Z</time>
      </trkpt>
      <trkpt lat="43.64548" lon="1.37909">
        <ele>146</ele>
        <time>2025-04-23T09:44:50Z</time>
      </trkpt>
      <trkpt lat="43.64543" lon="1.37906">
        <ele>146</ele>
        <time>2025-04-23T09:44:51Z</time>
      </trkpt>
      <trkpt lat="43.64542" lon="1.37905">
        <ele>146</ele>
        <time>2025-04-23T09:44:52Z</time>
      </trkpt>
      <trkpt lat="43.64538" lon="1.37904">
        <ele>146</ele>
        <time>2025-04-23T09:44:53Z</time>
      </trkpt>
      <trkpt lat="43.64535" lon="1.37902">
        <ele>146</ele>
        <time>2025-04-23T09:44:54Z</time>
      </trkpt>
      <trkpt lat="43.64531" lon="1.379">
        <ele>146</ele>
        <time>2025-04-23T09:44:55Z</time>
      </trkpt>
      <trkpt lat="43.64528" lon="1.37898">
        <ele>146</ele>
        <time>2025-04-23T09:44:56Z</time>
      </trkpt>
      <trkpt lat="43.64525" lon="1.37896">
        <ele>146</ele>
        <time>2025-04-23T09:44:57Z</time>
      </trkpt>
      <trkpt lat="43.64521" lon="1.37894">
        <ele>146</ele>
        <time>2025-04-23T09:44:58Z</time>
      </trkpt>
      <trkpt lat="43.64518" lon="1.37892">
        <ele>146</ele>
        <time>2025-04-23T09:44:59Z</time>
      </trkpt>
      <trkpt lat="43.64515" lon="1.37889">
        <ele>146</ele>
        <time>2025-04-23T09:45:00Z</time>
      </trkpt>
      <trkpt lat="43.64512" lon="1.37887">
        <ele>145</ele>
        <time>2025-04-23T09:45:01Z</time>
      </trkpt>
      <trkpt lat="43.64508" lon="1.37885">
        <ele>145</ele>
        <time>2025-04-23T09:45:02Z</time>
      </trkpt>
      <trkpt lat="43.64505" lon="1.37883">
        <ele>145</ele>
        <time>2025-04-23T09:45:03Z</time>
      </trkpt>
      <trkpt lat="43.64502" lon="1.37881">
        <ele>145</ele>
        <time>2025-04-23T09:45:04Z</time>
      </trkpt>
      <trkpt lat="43.64498" lon="1.37879">
        <ele>146</ele>
        <time>2025-04-23T09:45:05Z</time>
      </trkpt>
      <trkpt lat="43.64495" lon="1.37877">
        <ele>146</ele>
        <time>2025-04-23T09:45:06Z</time>
      </trkpt>
      <trkpt lat="43.64492" lon="1.37876">
        <ele>146</ele>
        <time>2025-04-23T09:45:07Z</time>
      </trkpt>
      <trkpt lat="43.64488" lon="1.37875">
        <ele>146</ele>
        <time>2025-04-23T09:45:08Z</time>
      </trkpt>
      <trkpt lat="43.64485" lon="1.37875">
        <ele>146</ele>
        <time>2025-04-23T09:45:09Z</time>
      </trkpt>
      <trkpt lat="43.64482" lon="1.37875">
        <ele>146</ele>
        <time>2025-04-23T09:45:10Z</time>
      </trkpt>
      <trkpt lat="43.64479" lon="1.37876">
        <ele>146</ele>
        <time>2025-04-23T09:45:11Z</time>
      </trkpt>
      <trkpt lat="43.64475" lon="1.37878">
        <ele>146</ele>
        <time>2025-04-23T09:45:12Z</time>
      </trkpt>
      <trkpt lat="43.64473" lon="1.37879">
        <ele>146</ele>
        <time>2025-04-23T09:45:13Z</time>
      </trkpt>
      <trkpt lat="43.64471" lon="1.37882">
        <ele>146</ele>
        <time>2025-04-23T09:45:14Z</time>
      </trkpt>
      <trkpt lat="43.64468" lon="1.37885">
        <ele>146</ele>
        <time>2025-04-23T09:45:15Z</time>
      </trkpt>
      <trkpt lat="43.64466" lon="1.37889">
        <ele>146</ele>
        <time>2025-04-23T09:45:16Z</time>
      </trkpt>
      <trkpt lat="43.64464" lon="1.37894">
        <ele>146</ele>
        <time>2025-04-23T09:45:17Z</time>
      </trkpt>
      <trkpt lat="43.64462" lon="1.37898">
        <ele>146</ele>
        <time>2025-04-23T09:45:18Z</time>
      </trkpt>
      <trkpt lat="43.6446" lon="1.37908">
        <ele>146</ele>
        <time>2025-04-23T09:45:19Z</time>
      </trkpt>
      <trkpt lat="43.6446" lon="1.37908">
        <ele>146</ele>
        <time>2025-04-23T09:45:20Z</time>
      </trkpt>
      <trkpt lat="43.6446" lon="1.37913">
        <ele>146</ele>
        <time>2025-04-23T09:45:21Z</time>
      </trkpt>
      <trkpt lat="43.6446" lon="1.37918">
        <ele>146</ele>
        <time>2025-04-23T09:45:22Z</time>
      </trkpt>
      <trkpt lat="43.64461" lon="1.37923">
        <ele>146</ele>
        <time>2025-04-23T09:45:23Z</time>
      </trkpt>
      <trkpt lat="43.64462" lon="1.37929">
        <ele>146</ele>
        <time>2025-04-23T09:45:24Z</time>
      </trkpt>
      <trkpt lat="43.64464" lon="1.37933">
        <ele>145</ele>
        <time>2025-04-23T09:45:25Z</time>
      </trkpt>
      <trkpt lat="43.64466" lon="1.37937">
        <ele>145</ele>
        <time>2025-04-23T09:45:26Z</time>
      </trkpt>
      <trkpt lat="43.64469" lon="1.37941">
        <ele>145</ele>
        <time>2025-04-23T09:45:27Z</time>
      </trkpt>
      <trkpt lat="43.64471" lon="1.37944">
        <ele>145</ele>
        <time>2025-04-23T09:45:28Z</time>
      </trkpt>
      <trkpt lat="43.64474" lon="1.37947">
        <ele>145</ele>
        <time>2025-04-23T09:45:29Z</time>
      </trkpt>
      <trkpt lat="43.64477" lon="1.37949">
        <ele>145</ele>
        <time>2025-04-23T09:45:30Z</time>
      </trkpt>
      <trkpt lat="43.6448" lon="1.37952">
        <ele>145</ele>
        <time>2025-04-23T09:45:31Z</time>
      </trkpt>
      <trkpt lat="43.64483" lon="1.37953">
        <ele>145</ele>
        <time>2025-04-23T09:45:32Z</time>
      </trkpt>
      <trkpt lat="43.64487" lon="1.37955">
        <ele>145</ele>
        <time>2025-04-23T09:45:33Z</time>
      </trkpt>
      <trkpt lat="43.64491" lon="1.37957">
        <ele>145</ele>
        <time>2025-04-23T09:45:34Z</time>
      </trkpt>
      <trkpt lat="43.64494" lon="1.37959">
        <ele>145</ele>
        <time>2025-04-23T09:45:35Z</time>
      </trkpt>
      <trkpt lat="43.64498" lon="1.37961">
        <ele>145</ele>
        <time>2025-04-23T09:45:36Z</time>
      </trkpt>
      <trkpt lat="43.64501" lon="1.37963">
        <ele>145</ele>
        <time>2025-04-23T09:45:37Z</time>
      </trkpt>
      <trkpt lat="43.64507" lon="1.37967">
        <ele>145</ele>
        <time>2025-04-23T09:45:38Z</time>
      </trkpt>
      <trkpt lat="43.64507" lon="1.37967">
        <ele>145</ele>
        <time>2025-04-23T09:45:39Z</time>
      </trkpt>
      <trkpt lat="43.64511" lon="1.37968">
        <ele>145</ele>
        <time>2025-04-23T09:45:40Z</time>
      </trkpt>
      <trkpt lat="43.64514" lon="1.3797">
        <ele>145</ele>
        <time>2025-04-23T09:45:41Z</time>
      </trkpt>
      <trkpt lat="43.64517" lon="1.37972">
        <ele>145</ele>
        <time>2025-04-23T09:45:42Z</time>
      </trkpt>
      <trkpt lat="43.64521" lon="1.37974">
        <ele>145</ele>
        <time>2025-04-23T09:45:43Z</time>
      </trkpt>
      <trkpt lat="43.64525" lon="1.37976">
        <ele>145</ele>
        <time>2025-04-23T09:45:44Z</time>
      </trkpt>
      <trkpt lat="43.64528" lon="1.37978">
        <ele>145</ele>
        <time>2025-04-23T09:45:45Z</time>
      </trkpt>
      <trkpt lat="43.64531" lon="1.3798">
        <ele>145</ele>
        <time>2025-04-23T09:45:46Z</time>
      </trkpt>
      <trkpt lat="43.64535" lon="1.37981">
        <ele>145</ele>
        <time>2025-04-23T09:45:47Z</time>
      </trkpt>
      <trkpt lat="43.64538" lon="1.37982">
        <ele>145</ele>
        <time>2025-04-23T09:45:48Z</time>
      </trkpt>
      <trkpt lat="43.64541" lon="1.37982">
        <ele>145</ele>
        <time>2025-04-23T09:45:49Z</time>
      </trkpt>
      <trkpt lat="43.64545" lon="1.37981">
        <ele>145</ele>
        <time>2025-04-23T09:45:50Z</time>
      </trkpt>
      <trkpt lat="43.64548" lon="1.37979">
        <ele>145</ele>
        <time>2025-04-23T09:45:51Z</time>
      </trkpt>
      <trkpt lat="43.64552" lon="1.37977">
        <ele>145</ele>
        <time>2025-04-23T09:45:52Z</time>
      </trkpt>
      <trkpt lat="43.64555" lon="1.37974">
        <ele>145</ele>
        <time>2025-04-23T09:45:53Z</time>
      </trkpt>
      <trkpt lat="43.64557" lon="1.37972">
        <ele>145</ele>
        <time>2025-04-23T09:45:54Z</time>
      </trkpt>
      <trkpt lat="43.6456" lon="1.37968">
        <ele>146</ele>
        <time>2025-04-23T09:45:55Z</time>
      </trkpt>
      <trkpt lat="43.64564" lon="1.37958">
        <ele>146</ele>
        <time>2025-04-23T09:45:56Z</time>
      </trkpt>
      <trkpt lat="43.64566" lon="1.37953">
        <ele>146</ele>
        <time>2025-04-23T09:45:57Z</time>
      </trkpt>
      <trkpt lat="43.64566" lon="1.37953">
        <ele>146</ele>
        <time>2025-04-23T09:45:58Z</time>
      </trkpt>
      <trkpt lat="43.64567" lon="1.37949">
        <ele>146</ele>
        <time>2025-04-23T09:45:59Z</time>
      </trkpt>
      <trkpt lat="43.64567" lon="1.37944">
        <ele>146</ele>
        <time>2025-04-23T09:46:00Z</time>
      </trkpt>
      <trkpt lat="43.64567" lon="1.37939">
        <ele>145</ele>
        <time>2025-04-23T09:46:01Z</time>
      </trkpt>
      <trkpt lat="43.64567" lon="1.37934">
        <ele>146</ele>
        <time>2025-04-23T09:46:02Z</time>
      </trkpt>
      <trkpt lat="43.64565" lon="1.37929">
        <ele>146</ele>
        <time>2025-04-23T09:46:03Z</time>
      </trkpt>
      <trkpt lat="43.64564" lon="1.37925">
        <ele>146</ele>
        <time>2025-04-23T09:46:04Z</time>
      </trkpt>
      <trkpt lat="43.64561" lon="1.37921">
        <ele>146</ele>
        <time>2025-04-23T09:46:05Z</time>
      </trkpt>
      <trkpt lat="43.64559" lon="1.37917">
        <ele>146</ele>
        <time>2025-04-23T09:46:06Z</time>
      </trkpt>
      <trkpt lat="43.64555" lon="1.37914">
        <ele>146</ele>
        <time>2025-04-23T09:46:07Z</time>
      </trkpt>
      <trkpt lat="43.64552" lon="1.37911">
        <ele>146</ele>
        <time>2025-04-23T09:46:08Z</time>
      </trkpt>
      <trkpt lat="43.64549" lon="1.37909">
        <ele>146</ele>
        <time>2025-04-23T09:46:09Z</time>
      </trkpt>
      <trkpt lat="43.64546" lon="1.37907">
        <ele>146</ele>
        <time>2025-04-23T09:46:10Z</time>
      </trkpt>
      <trkpt lat="43.64542" lon="1.37905">
        <ele>146</ele>
        <time>2025-04-23T09:46:11Z</time>
      </trkpt>
      <trkpt lat="43.64539" lon="1.37903">
        <ele>146</ele>
        <time>2025-04-23T09:46:12Z</time>
      </trkpt>
      <trkpt lat="43.64536" lon="1.37901">
        <ele>146</ele>
        <time>2025-04-23T09:46:13Z</time>
      </trkpt>
      <trkpt lat="43.64533" lon="1.37899">
        <ele>146</ele>
        <time>2025-04-23T09:46:14Z</time>
      </trkpt>
      <trkpt lat="43.6453" lon="1.37898">
        <ele>146</ele>
        <time>2025-04-23T09:46:15Z</time>
      </trkpt>
      <trkpt lat="43.64524" lon="1.37894">
        <ele>146</ele>
        <time>2025-04-23T09:46:16Z</time>
      </trkpt>
      <trkpt lat="43.64524" lon="1.37894">
        <ele>146</ele>
        <time>2025-04-23T09:46:17Z</time>
      </trkpt>
      <trkpt lat="43.64519" lon="1.37891">
        <ele>146</ele>
        <time>2025-04-23T09:46:18Z</time>
      </trkpt>
      <trkpt lat="43.64517" lon="1.3789">
        <ele>146</ele>
        <time>2025-04-23T09:46:19Z</time>
      </trkpt>
      <trkpt lat="43.64515" lon="1.37888">
        <ele>146</ele>
        <time>2025-04-23T09:46:20Z</time>
      </trkpt>
      <trkpt lat="43.64512" lon="1.37886">
        <ele>146</ele>
        <time>2025-04-23T09:46:21Z</time>
      </trkpt>
      <trkpt lat="43.64508" lon="1.37883">
        <ele>146</ele>
        <time>2025-04-23T09:46:22Z</time>
      </trkpt>
      <trkpt lat="43.64505" lon="1.37881">
        <ele>146</ele>
        <time>2025-04-23T09:46:23Z</time>
      </trkpt>
      <trkpt lat="43.64502" lon="1.37879">
        <ele>146</ele>
        <time>2025-04-23T09:46:24Z</time>
      </trkpt>
      <trkpt lat="43.64499" lon="1.37877">
        <ele>146</ele>
        <time>2025-04-23T09:46:25Z</time>
      </trkpt>
      <trkpt lat="43.64495" lon="1.37876">
        <ele>146</ele>
        <time>2025-04-23T09:46:26Z</time>
      </trkpt>
      <trkpt lat="43.64492" lon="1.37875">
        <ele>146</ele>
        <time>2025-04-23T09:46:27Z</time>
      </trkpt>
      <trkpt lat="43.64488" lon="1.37875">
        <ele>146</ele>
        <time>2025-04-23T09:46:28Z</time>
      </trkpt>
      <trkpt lat="43.64485" lon="1.37875">
        <ele>146</ele>
        <time>2025-04-23T09:46:29Z</time>
      </trkpt>
      <trkpt lat="43.64482" lon="1.37875">
        <ele>146</ele>
        <time>2025-04-23T09:46:30Z</time>
      </trkpt>
      <trkpt lat="43.64479" lon="1.37877">
        <ele>146</ele>
        <time>2025-04-23T09:46:31Z</time>
      </trkpt>
      <trkpt lat="43.64476" lon="1.37879">
        <ele>146</ele>
        <time>2025-04-23T09:46:32Z</time>
      </trkpt>
      <trkpt lat="43.64474" lon="1.37881">
        <ele>146</ele>
        <time>2025-04-23T09:46:33Z</time>
      </trkpt>
      <trkpt lat="43.64471" lon="1.37884">
        <ele>146</ele>
        <time>2025-04-23T09:46:34Z</time>
      </trkpt>
      <trkpt lat="43.64466" lon="1.3789">
        <ele>146</ele>
        <time>2025-04-23T09:46:35Z</time>
      </trkpt>
      <trkpt lat="43.64466" lon="1.3789">
        <ele>146</ele>
        <time>2025-04-23T09:46:36Z</time>
      </trkpt>
      <trkpt lat="43.64464" lon="1.37894">
        <ele>146</ele>
        <time>2025-04-23T09:46:37Z</time>
      </trkpt>
      <trkpt lat="43.64463" lon="1.37899">
        <ele>146</ele>
        <time>2025-04-23T09:46:38Z</time>
      </trkpt>
      <trkpt lat="43.64462" lon="1.37904">
        <ele>145</ele>
        <time>2025-04-23T09:46:39Z</time>
      </trkpt>
      <trkpt lat="43.64462" lon="1.37909">
        <ele>145</ele>
        <time>2025-04-23T09:46:40Z</time>
      </trkpt>
      <trkpt lat="43.64462" lon="1.37914">
        <ele>145</ele>
        <time>2025-04-23T09:46:41Z</time>
      </trkpt>
      <trkpt lat="43.64462" lon="1.37918">
        <ele>146</ele>
        <time>2025-04-23T09:46:42Z</time>
      </trkpt>
      <trkpt lat="43.64463" lon="1.37923">
        <ele>146</ele>
        <time>2025-04-23T09:46:43Z</time>
      </trkpt>
      <trkpt lat="43.64464" lon="1.37928">
        <ele>146</ele>
        <time>2025-04-23T09:46:44Z</time>
      </trkpt>
      <trkpt lat="43.64466" lon="1.37932">
        <ele>145</ele>
        <time>2025-04-23T09:46:45Z</time>
      </trkpt>
      <trkpt lat="43.64467" lon="1.37937">
        <ele>145</ele>
        <time>2025-04-23T09:46:46Z</time>
      </trkpt>
      <trkpt lat="43.64469" lon="1.3794">
        <ele>145</ele>
        <time>2025-04-23T09:46:47Z</time>
      </trkpt>
      <trkpt lat="43.64471" lon="1.37944">
        <ele>145</ele>
        <time>2025-04-23T09:46:48Z</time>
      </trkpt>
      <trkpt lat="43.64474" lon="1.37946">
        <ele>145</ele>
        <time>2025-04-23T09:46:49Z</time>
      </trkpt>
      <trkpt lat="43.64477" lon="1.37949">
        <ele>145</ele>
        <time>2025-04-23T09:46:50Z</time>
      </trkpt>
      <trkpt lat="43.6448" lon="1.37951">
        <ele>145</ele>
        <time>2025-04-23T09:46:51Z</time>
      </trkpt>
      <trkpt lat="43.64486" lon="1.37955">
        <ele>145</ele>
        <time>2025-04-23T09:46:52Z</time>
      </trkpt>
      <trkpt lat="43.64486" lon="1.37955">
        <ele>146</ele>
        <time>2025-04-23T09:46:53Z</time>
      </trkpt>
      <trkpt lat="43.64491" lon="1.37959">
        <ele>146</ele>
        <time>2025-04-23T09:46:54Z</time>
      </trkpt>
      <trkpt lat="43.64491" lon="1.37959">
        <ele>145</ele>
        <time>2025-04-23T09:46:55Z</time>
      </trkpt>
      <trkpt lat="43.64494" lon="1.37962">
        <ele>145</ele>
        <time>2025-04-23T09:46:56Z</time>
      </trkpt>
      <trkpt lat="43.64497" lon="1.37964">
        <ele>146</ele>
        <time>2025-04-23T09:46:57Z</time>
      </trkpt>
      <trkpt lat="43.645" lon="1.37966">
        <ele>146</ele>
        <time>2025-04-23T09:46:58Z</time>
      </trkpt>
      <trkpt lat="43.64503" lon="1.37968">
        <ele>146</ele>
        <time>2025-04-23T09:46:59Z</time>
      </trkpt>
      <trkpt lat="43.64506" lon="1.3797">
        <ele>145</ele>
        <time>2025-04-23T09:47:00Z</time>
      </trkpt>
      <trkpt lat="43.64508" lon="1.37971">
        <ele>145</ele>
        <time>2025-04-23T09:47:01Z</time>
      </trkpt>
      <trkpt lat="43.64511" lon="1.37973">
        <ele>145</ele>
        <time>2025-04-23T09:47:02Z</time>
      </trkpt>
      <trkpt lat="43.64514" lon="1.37974">
        <ele>145</ele>
        <time>2025-04-23T09:47:03Z</time>
      </trkpt>
      <trkpt lat="43.64518" lon="1.37976">
        <ele>145</ele>
        <time>2025-04-23T09:47:04Z</time>
      </trkpt>
      <trkpt lat="43.64521" lon="1.37978">
        <ele>145</ele>
        <time>2025-04-23T09:47:05Z</time>
      </trkpt>
      <trkpt lat="43.64525" lon="1.3798">
        <ele>145</ele>
        <time>2025-04-23T09:47:06Z</time>
      </trkpt>
      <trkpt lat="43.64529" lon="1.37982">
        <ele>145</ele>
        <time>2025-04-23T09:47:07Z</time>
      </trkpt>
      <trkpt lat="43.64532" lon="1.37984">
        <ele>145</ele>
        <time>2025-04-23T09:47:08Z</time>
      </trkpt>
      <trkpt lat="43.64535" lon="1.37984">
        <ele>145</ele>
        <time>2025-04-23T09:47:09Z</time>
      </trkpt>
      <trkpt lat="43.64539" lon="1.37984">
        <ele>145</ele>
        <time>2025-04-23T09:47:10Z</time>
      </trkpt>
      <trkpt lat="43.64542" lon="1.37983">
        <ele>145</ele>
        <time>2025-04-23T09:47:11Z</time>
      </trkpt>
      <trkpt lat="43.64546" lon="1.37982">
        <ele>145</ele>
        <time>2025-04-23T09:47:12Z</time>
      </trkpt>
      <trkpt lat="43.64553" lon="1.37978">
        <ele>145</ele>
        <time>2025-04-23T09:47:13Z</time>
      </trkpt>
      <trkpt lat="43.64553" lon="1.37978">
        <ele>145</ele>
        <time>2025-04-23T09:47:14Z</time>
      </trkpt>
      <trkpt lat="43.64556" lon="1.37976">
        <ele>145</ele>
        <time>2025-04-23T09:47:15Z</time>
      </trkpt>
      <trkpt lat="43.64559" lon="1.37973">
        <ele>145</ele>
        <time>2025-04-23T09:47:16Z</time>
      </trkpt>
      <trkpt lat="43.64561" lon="1.37969">
        <ele>146</ele>
        <time>2025-04-23T09:47:17Z</time>
      </trkpt>
      <trkpt lat="43.64563" lon="1.37964">
        <ele>146</ele>
        <time>2025-04-23T09:47:18Z</time>
      </trkpt>
      <trkpt lat="43.64564" lon="1.37959">
        <ele>146</ele>
        <time>2025-04-23T09:47:19Z</time>
      </trkpt>
      <trkpt lat="43.64566" lon="1.37955">
        <ele>146</ele>
        <time>2025-04-23T09:47:20Z</time>
      </trkpt>
      <trkpt lat="43.64567" lon="1.3795">
        <ele>146</ele>
        <time>2025-04-23T09:47:21Z</time>
      </trkpt>
      <trkpt lat="43.64567" lon="1.37945">
        <ele>146</ele>
        <time>2025-04-23T09:47:22Z</time>
      </trkpt>
      <trkpt lat="43.64567" lon="1.37939">
        <ele>146</ele>
        <time>2025-04-23T09:47:23Z</time>
      </trkpt>
      <trkpt lat="43.64566" lon="1.37934">
        <ele>146</ele>
        <time>2025-04-23T09:47:24Z</time>
      </trkpt>
      <trkpt lat="43.64565" lon="1.37929">
        <ele>146</ele>
        <time>2025-04-23T09:47:25Z</time>
      </trkpt>
      <trkpt lat="43.64563" lon="1.37924">
        <ele>146</ele>
        <time>2025-04-23T09:47:26Z</time>
      </trkpt>
      <trkpt lat="43.64561" lon="1.3792">
        <ele>145</ele>
        <time>2025-04-23T09:47:27Z</time>
      </trkpt>
      <trkpt lat="43.64559" lon="1.37915">
        <ele>145</ele>
        <time>2025-04-23T09:47:28Z</time>
      </trkpt>
      <trkpt lat="43.64556" lon="1.37912">
        <ele>145</ele>
        <time>2025-04-23T09:47:29Z</time>
      </trkpt>
      <trkpt lat="43.64552" lon="1.3791">
        <ele>145</ele>
        <time>2025-04-23T09:47:30Z</time>
      </trkpt>
      <trkpt lat="43.64549" lon="1.37908">
        <ele>145</ele>
        <time>2025-04-23T09:47:31Z</time>
      </trkpt>
      <trkpt lat="43.64543" lon="1.37905">
        <ele>145</ele>
        <time>2025-04-23T09:47:32Z</time>
      </trkpt>
      <trkpt lat="43.64543" lon="1.37905">
        <ele>146</ele>
        <time>2025-04-23T09:47:33Z</time>
      </trkpt>
      <trkpt lat="43.64539" lon="1.37901">
        <ele>146</ele>
        <time>2025-04-23T09:47:34Z</time>
      </trkpt>
      <trkpt lat="43.64539" lon="1.37901">
        <ele>146</ele>
        <time>2025-04-23T09:47:35Z</time>
      </trkpt>
      <trkpt lat="43.64537" lon="1.379">
        <ele>146</ele>
        <time>2025-04-23T09:47:36Z</time>
      </trkpt>
      <trkpt lat="43.64537" lon="1.379">
        <ele>146</ele>
        <time>2025-04-23T09:47:37Z</time>
      </trkpt>
      <trkpt lat="43.64535" lon="1.37898">
        <ele>146</ele>
        <time>2025-04-23T09:47:38Z</time>
      </trkpt>
      <trkpt lat="43.64535" lon="1.37898">
        <ele>146</ele>
        <time>2025-04-23T09:47:39Z</time>
      </trkpt>
      <trkpt lat="43.64533" lon="1.37897">
        <ele>146</ele>
        <time>2025-04-23T09:47:40Z</time>
      </trkpt>
      <trkpt lat="43.64533" lon="1.37897">
        <ele>146</ele>
        <time>2025-04-23T09:47:41Z</time>
      </trkpt>
      <trkpt lat="43.64531" lon="1.37896">
        <ele>146</ele>
        <time>2025-04-23T09:47:42Z</time>
      </trkpt>
      <trkpt lat="43.64531" lon="1.37896">
        <ele>146</ele>
        <time>2025-04-23T09:47:43Z</time>
      </trkpt>
      <trkpt lat="43.64529" lon="1.37894">
        <ele>146</ele>
        <time>2025-04-23T09:47:44Z</time>
      </trkpt>
      <trkpt lat="43.64529" lon="1.37894">
        <ele>147</ele>
        <time>2025-04-23T09:47:45Z</time>
      </trkpt>
      <trkpt lat="43.64526" lon="1.37893">
        <ele>147</ele>
        <time>2025-04-23T09:47:46Z</time>
      </trkpt>
      <trkpt lat="43.64526" lon="1.37893">
        <ele>147</ele>
        <time>2025-04-23T09:47:47Z</time>
      </trkpt>
      <trkpt lat="43.64524" lon="1.37892">
        <ele>146</ele>
        <time>2025-04-23T09:47:48Z</time>
      </trkpt>
      <trkpt lat="43.64524" lon="1.37892">
        <ele>146</ele>
        <time>2025-04-23T09:47:49Z</time>
      </trkpt>
      <trkpt lat="43.64522" lon="1.3789">
        <ele>146</ele>
        <time>2025-04-23T09:47:50Z</time>
      </trkpt>
      <trkpt lat="43.6452" lon="1.3789">
        <ele>146</ele>
        <time>2025-04-23T09:47:51Z</time>
      </trkpt>
      <trkpt lat="43.6452" lon="1.3789">
        <ele>146</ele>
        <time>2025-04-23T09:47:52Z</time>
      </trkpt>
      <trkpt lat="43.6452" lon="1.3789">
        <ele>146</ele>
        <time>2025-04-23T09:47:53Z</time>
      </trkpt>
      <trkpt lat="43.64517" lon="1.3789">
        <ele>146</ele>
        <time>2025-04-23T09:47:54Z</time>
      </trkpt>
      <trkpt lat="43.64517" lon="1.3789">
        <ele>146</ele>
        <time>2025-04-23T09:47:55Z</time>
      </trkpt>
      <trkpt lat="43.64515" lon="1.37888">
        <ele>146</ele>
        <time>2025-04-23T09:47:56Z</time>
      </trkpt>
      <trkpt lat="43.64515" lon="1.37888">
        <ele>146</ele>
        <time>2025-04-23T09:47:57Z</time>
      </trkpt>
      <trkpt lat="43.64514" lon="1.37886">
        <ele>146</ele>
        <time>2025-04-23T09:47:58Z</time>
      </trkpt>
      <trkpt lat="43.64514" lon="1.37886">
        <ele>146</ele>
        <time>2025-04-23T09:47:59Z</time>
      </trkpt>
      <trkpt lat="43.64511" lon="1.37884">
        <ele>146</ele>
        <time>2025-04-23T09:48:00Z</time>
      </trkpt>
      <trkpt lat="43.64511" lon="1.37884">
        <ele>146</ele>
        <time>2025-04-23T09:48:01Z</time>
      </trkpt>
      <trkpt lat="43.64509" lon="1.37883">
        <ele>146</ele>
        <time>2025-04-23T09:48:02Z</time>
      </trkpt>
      <trkpt lat="43.64509" lon="1.37883">
        <ele>146</ele>
        <time>2025-04-23T09:48:03Z</time>
      </trkpt>
      <trkpt lat="43.64507" lon="1.37881">
        <ele>146</ele>
        <time>2025-04-23T09:48:04Z</time>
      </trkpt>
      <trkpt lat="43.64507" lon="1.37881">
        <ele>146</ele>
        <time>2025-04-23T09:48:05Z</time>
      </trkpt>
      <trkpt lat="43.64505" lon="1.3788">
        <ele>146</ele>
        <time>2025-04-23T09:48:06Z</time>
      </trkpt>
      <trkpt lat="43.64505" lon="1.3788">
        <ele>146</ele>
        <time>2025-04-23T09:48:07Z</time>
      </trkpt>
      <trkpt lat="43.64503" lon="1.37879">
        <ele>146</ele>
        <time>2025-04-23T09:48:08Z</time>
      </trkpt>
      <trkpt lat="43.64503" lon="1.37879">
        <ele>146</ele>
        <time>2025-04-23T09:48:09Z</time>
      </trkpt>
      <trkpt lat="43.64501" lon="1.37877">
        <ele>146</ele>
        <time>2025-04-23T09:48:10Z</time>
      </trkpt>
      <trkpt lat="43.64501" lon="1.37877">
        <ele>146</ele>
        <time>2025-04-23T09:48:11Z</time>
      </trkpt>
      <trkpt lat="43.64498" lon="1.37876">
        <ele>146</ele>
        <time>2025-04-23T09:48:12Z</time>
      </trkpt>
      <trkpt lat="43.64498" lon="1.37876">
        <ele>146</ele>
        <time>2025-04-23T09:48:13Z</time>
      </trkpt>
      <trkpt lat="43.64496" lon="1.37875">
        <ele>146</ele>
        <time>2025-04-23T09:48:14Z</time>
      </trkpt>
      <trkpt lat="43.64496" lon="1.37875">
        <ele>146</ele>
        <time>2025-04-23T09:48:15Z</time>
      </trkpt>
      <trkpt lat="43.64494" lon="1.37874">
        <ele>146</ele>
        <time>2025-04-23T09:48:16Z</time>
      </trkpt>
      <trkpt lat="43.64494" lon="1.37874">
        <ele>146</ele>
        <time>2025-04-23T09:48:17Z</time>
      </trkpt>
      <trkpt lat="43.64491" lon="1.37874">
        <ele>146</ele>
        <time>2025-04-23T09:48:18Z</time>
      </trkpt>
      <trkpt lat="43.64491" lon="1.37874">
        <ele>146</ele>
        <time>2025-04-23T09:48:19Z</time>
      </trkpt>
      <trkpt lat="43.64489" lon="1.37874">
        <ele>146</ele>
        <time>2025-04-23T09:48:20Z</time>
      </trkpt>
      <trkpt lat="43.64489" lon="1.37874">
        <ele>146</ele>
        <time>2025-04-23T09:48:21Z</time>
      </trkpt>
      <trkpt lat="43.64486" lon="1.37874">
        <ele>146</ele>
        <time>2025-04-23T09:48:22Z</time>
      </trkpt>
      <trkpt lat="43.64486" lon="1.37874">
        <ele>146</ele>
        <time>2025-04-23T09:48:23Z</time>
      </trkpt>
      <trkpt lat="43.64484" lon="1.37875">
        <ele>146</ele>
        <time>2025-04-23T09:48:24Z</time>
      </trkpt>
      <trkpt lat="43.64484" lon="1.37875">
        <ele>146</ele>
        <time>2025-04-23T09:48:25Z</time>
      </trkpt>
      <trkpt lat="43.64481" lon="1.37876">
        <ele>146</ele>
        <time>2025-04-23T09:48:26Z</time>
      </trkpt>
      <trkpt lat="43.64481" lon="1.37876">
        <ele>146</ele>
        <time>2025-04-23T09:48:27Z</time>
      </trkpt>
      <trkpt lat="43.64479" lon="1.37877">
        <ele>146</ele>
        <time>2025-04-23T09:48:28Z</time>
      </trkpt>
      <trkpt lat="43.64477" lon="1.37878">
        <ele>146</ele>
        <time>2025-04-23T09:48:29Z</time>
      </trkpt>
      <trkpt lat="43.64477" lon="1.37878">
        <ele>146</ele>
        <time>2025-04-23T09:48:30Z</time>
      </trkpt>
      <trkpt lat="43.64477" lon="1.37878">
        <ele>146</ele>
        <time>2025-04-23T09:48:31Z</time>
      </trkpt>
      <trkpt lat="43.64475" lon="1.37879">
        <ele>146</ele>
        <time>2025-04-23T09:48:32Z</time>
      </trkpt>
      <trkpt lat="43.64475" lon="1.37879">
        <ele>146</ele>
        <time>2025-04-23T09:48:33Z</time>
      </trkpt>
      <trkpt lat="43.64473" lon="1.37881">
        <ele>146</ele>
        <time>2025-04-23T09:48:34Z</time>
      </trkpt>
      <trkpt lat="43.64473" lon="1.37881">
        <ele>146</ele>
        <time>2025-04-23T09:48:35Z</time>
      </trkpt>
      <trkpt lat="43.64471" lon="1.37883">
        <ele>146</ele>
        <time>2025-04-23T09:48:36Z</time>
      </trkpt>
      <trkpt lat="43.64471" lon="1.37883">
        <ele>146</ele>
        <time>2025-04-23T09:48:37Z</time>
      </trkpt>
      <trkpt lat="43.64469" lon="1.37885">
        <ele>146</ele>
        <time>2025-04-23T09:48:38Z</time>
      </trkpt>
      <trkpt lat="43.64469" lon="1.37885">
        <ele>146</ele>
        <time>2025-04-23T09:48:39Z</time>
      </trkpt>
      <trkpt lat="43.64468" lon="1.37888">
        <ele>146</ele>
        <time>2025-04-23T09:48:40Z</time>
      </trkpt>
      <trkpt lat="43.64468" lon="1.37888">
        <ele>146</ele>
        <time>2025-04-23T09:48:41Z</time>
      </trkpt>
      <trkpt lat="43.64466" lon="1.3789">
        <ele>146</ele>
        <time>2025-04-23T09:48:42Z</time>
      </trkpt>
      <trkpt lat="43.64466" lon="1.3789">
        <ele>146</ele>
        <time>2025-04-23T09:48:43Z</time>
      </trkpt>
      <trkpt lat="43.64465" lon="1.37893">
        <ele>146</ele>
        <time>2025-04-23T09:48:44Z</time>
      </trkpt>
      <trkpt lat="43.64465" lon="1.37893">
        <ele>146</ele>
        <time>2025-04-23T09:48:45Z</time>
      </trkpt>
      <trkpt lat="43.64464" lon="1.37896">
        <ele>146</ele>
        <time>2025-04-23T09:48:46Z</time>
      </trkpt>
      <trkpt lat="43.64464" lon="1.37896">
        <ele>146</ele>
        <time>2025-04-23T09:48:47Z</time>
      </trkpt>
      <trkpt lat="43.64463" lon="1.37899">
        <ele>146</ele>
        <time>2025-04-23T09:48:48Z</time>
      </trkpt>
      <trkpt lat="43.64463" lon="1.37899">
        <ele>146</ele>
        <time>2025-04-23T09:48:49Z</time>
      </trkpt>
      <trkpt lat="43.64462" lon="1.37902">
        <ele>146</ele>
        <time>2025-04-23T09:48:50Z</time>
      </trkpt>
      <trkpt lat="43.64462" lon="1.37902">
        <ele>146</ele>
        <time>2025-04-23T09:48:51Z</time>
      </trkpt>
      <trkpt lat="43.64461" lon="1.37906">
        <ele>146</ele>
        <time>2025-04-23T09:48:52Z</time>
      </trkpt>
      <trkpt lat="43.64461" lon="1.37906">
        <ele>146</ele>
        <time>2025-04-23T09:48:53Z</time>
      </trkpt>
      <trkpt lat="43.64461" lon="1.37909">
        <ele>146</ele>
        <time>2025-04-23T09:48:54Z</time>
      </trkpt>
      <trkpt lat="43.64461" lon="1.37909">
        <ele>146</ele>
        <time>2025-04-23T09:48:55Z</time>
      </trkpt>
      <trkpt lat="43.6446" lon="1.37912">
        <ele>146</ele>
        <time>2025-04-23T09:48:56Z</time>
      </trkpt>
      <trkpt lat="43.6446" lon="1.37912">
        <ele>146</ele>
        <time>2025-04-23T09:48:57Z</time>
      </trkpt>
      <trkpt lat="43.64461" lon="1.37915">
        <ele>146</ele>
        <time>2025-04-23T09:48:58Z</time>
      </trkpt>
      <trkpt lat="43.64461" lon="1.37915">
        <ele>146</ele>
        <time>2025-04-23T09:48:59Z</time>
      </trkpt>
      <trkpt lat="43.64461" lon="1.37919">
        <ele>146</ele>
        <time>2025-04-23T09:49:00Z</time>
      </trkpt>
      <trkpt lat="43.64461" lon="1.37919">
        <ele>146</ele>
        <time>2025-04-23T09:49:01Z</time>
      </trkpt>
      <trkpt lat="43.64462" lon="1.37922">
        <ele>146</ele>
        <time>2025-04-23T09:49:02Z</time>
      </trkpt>
      <trkpt lat="43.64462" lon="1.37922">
        <ele>146</ele>
        <time>2025-04-23T09:49:03Z</time>
      </trkpt>
      <trkpt lat="43.64462" lon="1.37926">
        <ele>146</ele>
        <time>2025-04-23T09:49:04Z</time>
      </trkpt>
      <trkpt lat="43.64462" lon="1.37926">
        <ele>146</ele>
        <time>2025-04-23T09:49:05Z</time>
      </trkpt>
      <trkpt lat="43.64463" lon="1.3793">
        <ele>146</ele>
        <time>2025-04-23T09:49:06Z</time>
      </trkpt>
      <trkpt lat="43.64464" lon="1.37933">
        <ele>146</ele>
        <time>2025-04-23T09:49:07Z</time>
      </trkpt>
      <trkpt lat="43.64464" lon="1.37933">
        <ele>146</ele>
        <time>2025-04-23T09:49:08Z</time>
      </trkpt>
      <trkpt lat="43.64464" lon="1.37933">
        <ele>146</ele>
        <time>2025-04-23T09:49:09Z</time>
      </trkpt>
      <trkpt lat="43.64465" lon="1.37936">
        <ele>145</ele>
        <time>2025-04-23T09:49:10Z</time>
      </trkpt>
      <trkpt lat="43.64465" lon="1.37936">
        <ele>145</ele>
        <time>2025-04-23T09:49:11Z</time>
      </trkpt>
      <trkpt lat="43.64466" lon="1.37938">
        <ele>146</ele>
        <time>2025-04-23T09:49:12Z</time>
      </trkpt>
      <trkpt lat="43.64466" lon="1.37938">
        <ele>146</ele>
        <time>2025-04-23T09:49:13Z</time>
      </trkpt>
      <trkpt lat="43.64468" lon="1.37941">
        <ele>146</ele>
        <time>2025-04-23T09:49:14Z</time>
      </trkpt>
      <trkpt lat="43.64468" lon="1.37941">
        <ele>146</ele>
        <time>2025-04-23T09:49:15Z</time>
      </trkpt>
      <trkpt lat="43.6447" lon="1.37943">
        <ele>146</ele>
        <time>2025-04-23T09:49:16Z</time>
      </trkpt>
      <trkpt lat="43.6447" lon="1.37943">
        <ele>146</ele>
        <time>2025-04-23T09:49:17Z</time>
      </trkpt>
      <trkpt lat="43.64471" lon="1.37945">
        <ele>146</ele>
        <time>2025-04-23T09:49:18Z</time>
      </trkpt>
      <trkpt lat="43.64471" lon="1.37945">
        <ele>146</ele>
        <time>2025-04-23T09:49:19Z</time>
      </trkpt>
      <trkpt lat="43.64473" lon="1.37947">
        <ele>146</ele>
        <time>2025-04-23T09:49:20Z</time>
      </trkpt>
      <trkpt lat="43.64473" lon="1.37947">
        <ele>146</ele>
        <time>2025-04-23T09:49:21Z</time>
      </trkpt>
      <trkpt lat="43.64475" lon="1.37949">
        <ele>146</ele>
        <time>2025-04-23T09:49:22Z</time>
      </trkpt>
      <trkpt lat="43.64475" lon="1.37949">
        <ele>146</ele>
        <time>2025-04-23T09:49:23Z</time>
      </trkpt>
      <trkpt lat="43.64477" lon="1.3795">
        <ele>146</ele>
        <time>2025-04-23T09:49:24Z</time>
      </trkpt>
      <trkpt lat="43.64477" lon="1.3795">
        <ele>146</ele>
        <time>2025-04-23T09:49:25Z</time>
      </trkpt>
      <trkpt lat="43.64479" lon="1.37952">
        <ele>146</ele>
        <time>2025-04-23T09:49:26Z</time>
      </trkpt>
      <trkpt lat="43.64479" lon="1.37952">
        <ele>146</ele>
        <time>2025-04-23T09:49:27Z</time>
      </trkpt>
      <trkpt lat="43.64481" lon="1.37953">
        <ele>146</ele>
        <time>2025-04-23T09:49:28Z</time>
      </trkpt>
      <trkpt lat="43.64481" lon="1.37953">
        <ele>146</ele>
        <time>2025-04-23T09:49:29Z</time>
      </trkpt>
      <trkpt lat="43.64484" lon="1.37955">
        <ele>146</ele>
        <time>2025-04-23T09:49:30Z</time>
      </trkpt>
      <trkpt lat="43.64484" lon="1.37955">
        <ele>146</ele>
        <time>2025-04-23T09:49:31Z</time>
      </trkpt>
      <trkpt lat="43.64485" lon="1.37956">
        <ele>146</ele>
        <time>2025-04-23T09:49:32Z</time>
      </trkpt>
      <trkpt lat="43.64485" lon="1.37956">
        <ele>146</ele>
        <time>2025-04-23T09:49:33Z</time>
      </trkpt>
      <trkpt lat="43.64487" lon="1.37957">
        <ele>146</ele>
        <time>2025-04-23T09:49:34Z</time>
      </trkpt>
      <trkpt lat="43.64487" lon="1.37957">
        <ele>146</ele>
        <time>2025-04-23T09:49:35Z</time>
      </trkpt>
      <trkpt lat="43.64489" lon="1.37958">
        <ele>145</ele>
        <time>2025-04-23T09:49:36Z</time>
      </trkpt>
      <trkpt lat="43.64491" lon="1.37959">
        <ele>145</ele>
        <time>2025-04-23T09:49:37Z</time>
      </trkpt>
      <trkpt lat="43.64491" lon="1.37959">
        <ele>145</ele>
        <time>2025-04-23T09:49:38Z</time>
      </trkpt>
      <trkpt lat="43.64491" lon="1.37959">
        <ele>145</ele>
        <time>2025-04-23T09:49:39Z</time>
      </trkpt>
      <trkpt lat="43.64493" lon="1.37961">
        <ele>145</ele>
        <time>2025-04-23T09:49:40Z</time>
      </trkpt>
      <trkpt lat="43.64493" lon="1.37961">
        <ele>145</ele>
        <time>2025-04-23T09:49:41Z</time>
      </trkpt>
      <trkpt lat="43.64495" lon="1.37962">
        <ele>145</ele>
        <time>2025-04-23T09:49:42Z</time>
      </trkpt>
      <trkpt lat="43.64495" lon="1.37962">
        <ele>145</ele>
        <time>2025-04-23T09:49:43Z</time>
      </trkpt>
      <trkpt lat="43.64497" lon="1.37963">
        <ele>145</ele>
        <time>2025-04-23T09:49:44Z</time>
      </trkpt>
      <trkpt lat="43.64497" lon="1.37963">
        <ele>145</ele>
        <time>2025-04-23T09:49:45Z</time>
      </trkpt>
      <trkpt lat="43.64499" lon="1.37964">
        <ele>145</ele>
        <time>2025-04-23T09:49:46Z</time>
      </trkpt>
      <trkpt lat="43.64499" lon="1.37964">
        <ele>145</ele>
        <time>2025-04-23T09:49:47Z</time>
      </trkpt>
      <trkpt lat="43.64502" lon="1.37965">
        <ele>145</ele>
        <time>2025-04-23T09:49:48Z</time>
      </trkpt>
      <trkpt lat="43.64502" lon="1.37965">
        <ele>145</ele>
        <time>2025-04-23T09:49:49Z</time>
      </trkpt>
      <trkpt lat="43.64504" lon="1.37968">
        <ele>146</ele>
        <time>2025-04-23T09:49:50Z</time>
      </trkpt>
      <trkpt lat="43.64504" lon="1.37968">
        <ele>146</ele>
        <time>2025-04-23T09:49:51Z</time>
      </trkpt>
      <trkpt lat="43.64505" lon="1.37969">
        <ele>146</ele>
        <time>2025-04-23T09:49:52Z</time>
      </trkpt>
      <trkpt lat="43.64505" lon="1.37969">
        <ele>146</ele>
        <time>2025-04-23T09:49:53Z</time>
      </trkpt>
      <trkpt lat="43.64508" lon="1.37971">
        <ele>146</ele>
        <time>2025-04-23T09:49:54Z</time>
      </trkpt>
      <trkpt lat="43.64508" lon="1.37971">
        <ele>146</ele>
        <time>2025-04-23T09:49:55Z</time>
      </trkpt>
      <trkpt lat="43.6451" lon="1.37972">
        <ele>146</ele>
        <time>2025-04-23T09:49:56Z</time>
      </trkpt>
      <trkpt lat="43.6451" lon="1.37972">
        <ele>146</ele>
        <time>2025-04-23T09:49:57Z</time>
      </trkpt>
      <trkpt lat="43.64512" lon="1.37973">
        <ele>146</ele>
        <time>2025-04-23T09:49:58Z</time>
      </trkpt>
      <trkpt lat="43.64512" lon="1.37973">
        <ele>146</ele>
        <time>2025-04-23T09:49:59Z</time>
      </trkpt>
      <trkpt lat="43.64514" lon="1.37974">
        <ele>146</ele>
        <time>2025-04-23T09:50:00Z</time>
      </trkpt>
      <trkpt lat="43.64514" lon="1.37974">
        <ele>146</ele>
        <time>2025-04-23T09:50:01Z</time>
      </trkpt>
      <trkpt lat="43.64516" lon="1.37975">
        <ele>146</ele>
        <time>2025-04-23T09:50:02Z</time>
      </trkpt>
      <trkpt lat="43.64518" lon="1.37976">
        <ele>146</ele>
        <time>2025-04-23T09:50:03Z</time>
      </trkpt>
      <trkpt lat="43.64519" lon="1.37977">
        <ele>146</ele>
        <time>2025-04-23T09:50:04Z</time>
      </trkpt>
      <trkpt lat="43.64521" lon="1.37979">
        <ele>146</ele>
        <time>2025-04-23T09:50:05Z</time>
      </trkpt>
      <trkpt lat="43.64523" lon="1.3798">
        <ele>146</ele>
        <time>2025-04-23T09:50:06Z</time>
      </trkpt>
      <trkpt lat="43.64526" lon="1.37982">
        <ele>146</ele>
        <time>2025-04-23T09:50:07Z</time>
      </trkpt>
      <trkpt lat="43.64529" lon="1.37983">
        <ele>146</ele>
        <time>2025-04-23T09:50:08Z</time>
      </trkpt>
      <trkpt lat="43.64533" lon="1.37984">
        <ele>146</ele>
        <time>2025-04-23T09:50:09Z</time>
      </trkpt>
      <trkpt lat="43.64537" lon="1.37984">
        <ele>146</ele>
        <time>2025-04-23T09:50:10Z</time>
      </trkpt>
      <trkpt lat="43.64541" lon="1.37984">
        <ele>146</ele>
        <time>2025-04-23T09:50:11Z</time>
      </trkpt>
      <trkpt lat="43.64544" lon="1.37983">
        <ele>146</ele>
        <time>2025-04-23T09:50:12Z</time>
      </trkpt>
      <trkpt lat="43.64548" lon="1.37981">
        <ele>146</ele>
        <time>2025-04-23T09:50:13Z</time>
      </trkpt>
      <trkpt lat="43.64552" lon="1.37978">
        <ele>146</ele>
        <time>2025-04-23T09:50:14Z</time>
      </trkpt>
      <trkpt lat="43.64555" lon="1.37975">
        <ele>146</ele>
        <time>2025-04-23T09:50:15Z</time>
      </trkpt>
      <trkpt lat="43.64558" lon="1.37971">
        <ele>146</ele>
        <time>2025-04-23T09:50:16Z</time>
      </trkpt>
      <trkpt lat="43.6456" lon="1.37965">
        <ele>146</ele>
        <time>2025-04-23T09:50:17Z</time>
      </trkpt>
      <trkpt lat="43.64563" lon="1.37958">
        <ele>146</ele>
        <time>2025-04-23T09:50:18Z</time>
      </trkpt>
      <trkpt lat="43.64564" lon="1.37955">
        <ele>146</ele>
        <time>2025-04-23T09:50:19Z</time>
      </trkpt>
      <trkpt lat="43.64565" lon="1.3795">
        <ele>146</ele>
        <time>2025-04-23T09:50:20Z</time>
      </trkpt>
      <trkpt lat="43.64566" lon="1.37945">
        <ele>146</ele>
        <time>2025-04-23T09:50:21Z</time>
      </trkpt>
      <trkpt lat="43.64566" lon="1.3794">
        <ele>147</ele>
        <time>2025-04-23T09:50:22Z</time>
      </trkpt>
      <trkpt lat="43.64565" lon="1.37931">
        <ele>147</ele>
        <time>2025-04-23T09:50:23Z</time>
      </trkpt>
      <trkpt lat="43.64565" lon="1.37931">
        <ele>147</ele>
        <time>2025-04-23T09:50:24Z</time>
      </trkpt>
      <trkpt lat="43.64563" lon="1.37924">
        <ele>147</ele>
        <time>2025-04-23T09:50:25Z</time>
      </trkpt>
      <trkpt lat="43.64562" lon="1.37923">
        <ele>147</ele>
        <time>2025-04-23T09:50:26Z</time>
      </trkpt>
      <trkpt lat="43.6456" lon="1.37919">
        <ele>147</ele>
        <time>2025-04-23T09:50:27Z</time>
      </trkpt>
      <trkpt lat="43.64555" lon="1.37912">
        <ele>147</ele>
        <time>2025-04-23T09:50:28Z</time>
      </trkpt>
      <trkpt lat="43.64555" lon="1.37912">
        <ele>147</ele>
        <time>2025-04-23T09:50:29Z</time>
      </trkpt>
      <trkpt lat="43.64552" lon="1.3791">
        <ele>147</ele>
        <time>2025-04-23T09:50:30Z</time>
      </trkpt>
      <trkpt lat="43.64547" lon="1.37906">
        <ele>147</ele>
        <time>2025-04-23T09:50:31Z</time>
      </trkpt>
      <trkpt lat="43.64545" lon="1.37905">
        <ele>147</ele>
        <time>2025-04-23T09:50:32Z</time>
      </trkpt>
      <trkpt lat="43.64542" lon="1.37904">
        <ele>147</ele>
        <time>2025-04-23T09:50:33Z</time>
      </trkpt>
      <trkpt lat="43.64538" lon="1.37902">
        <ele>147</ele>
        <time>2025-04-23T09:50:34Z</time>
      </trkpt>
      <trkpt lat="43.64535" lon="1.37901">
        <ele>146</ele>
        <time>2025-04-23T09:50:35Z</time>
      </trkpt>
      <trkpt lat="43.64532" lon="1.37899">
        <ele>146</ele>
        <time>2025-04-23T09:50:36Z</time>
      </trkpt>
      <trkpt lat="43.64529" lon="1.37897">
        <ele>146</ele>
        <time>2025-04-23T09:50:37Z</time>
      </trkpt>
      <trkpt lat="43.64525" lon="1.37895">
        <ele>146</ele>
        <time>2025-04-23T09:50:38Z</time>
      </trkpt>
      <trkpt lat="43.64522" lon="1.37893">
        <ele>146</ele>
        <time>2025-04-23T09:50:39Z</time>
      </trkpt>
      <trkpt lat="43.64519" lon="1.37892">
        <ele>147</ele>
        <time>2025-04-23T09:50:40Z</time>
      </trkpt>
      <trkpt lat="43.64516" lon="1.3789">
        <ele>147</ele>
        <time>2025-04-23T09:50:41Z</time>
      </trkpt>
      <trkpt lat="43.64513" lon="1.37888">
        <ele>147</ele>
        <time>2025-04-23T09:50:42Z</time>
      </trkpt>
      <trkpt lat="43.6451" lon="1.37886">
        <ele>147</ele>
        <time>2025-04-23T09:50:43Z</time>
      </trkpt>
      <trkpt lat="43.64507" lon="1.37884">
        <ele>147</ele>
        <time>2025-04-23T09:50:44Z</time>
      </trkpt>
      <trkpt lat="43.64504" lon="1.37882">
        <ele>147</ele>
        <time>2025-04-23T09:50:45Z</time>
      </trkpt>
      <trkpt lat="43.64501" lon="1.3788">
        <ele>147</ele>
        <time>2025-04-23T09:50:46Z</time>
      </trkpt>
      <trkpt lat="43.64498" lon="1.37879">
        <ele>146</ele>
        <time>2025-04-23T09:50:47Z</time>
      </trkpt>
      <trkpt lat="43.64494" lon="1.37877">
        <ele>146</ele>
        <time>2025-04-23T09:50:48Z</time>
      </trkpt>
      <trkpt lat="43.64492" lon="1.37876">
        <ele>146</ele>
        <time>2025-04-23T09:50:49Z</time>
      </trkpt>
      <trkpt lat="43.64488" lon="1.37875">
        <ele>146</ele>
        <time>2025-04-23T09:50:50Z</time>
      </trkpt>
      <trkpt lat="43.64485" lon="1.37875">
        <ele>146</ele>
        <time>2025-04-23T09:50:51Z</time>
      </trkpt>
      <trkpt lat="43.64482" lon="1.37875">
        <ele>146</ele>
        <time>2025-04-23T09:50:52Z</time>
      </trkpt>
      <trkpt lat="43.64479" lon="1.37876">
        <ele>146</ele>
        <time>2025-04-23T09:50:53Z</time>
      </trkpt>
      <trkpt lat="43.64474" lon="1.37879">
        <ele>146</ele>
        <time>2025-04-23T09:50:54Z</time>
      </trkpt>
      <trkpt lat="43.64473" lon="1.37879">
        <ele>146</ele>
        <time>2025-04-23T09:50:55Z</time>
      </trkpt>
      <trkpt lat="43.64471" lon="1.37882">
        <ele>146</ele>
        <time>2025-04-23T09:50:56Z</time>
      </trkpt>
      <trkpt lat="43.64468" lon="1.37885">
        <ele>146</ele>
        <time>2025-04-23T09:50:57Z</time>
      </trkpt>
      <trkpt lat="43.64466" lon="1.37888">
        <ele>146</ele>
        <time>2025-04-23T09:50:58Z</time>
      </trkpt>
      <trkpt lat="43.64464" lon="1.37895">
        <ele>146</ele>
        <time>2025-04-23T09:50:59Z</time>
      </trkpt>
      <trkpt lat="43.64463" lon="1.37897">
        <ele>146</ele>
        <time>2025-04-23T09:51:00Z</time>
      </trkpt>
      <trkpt lat="43.64461" lon="1.37907">
        <ele>146</ele>
        <time>2025-04-23T09:51:01Z</time>
      </trkpt>
      <trkpt lat="43.64461" lon="1.37907">
        <ele>146</ele>
        <time>2025-04-23T09:51:02Z</time>
      </trkpt>
      <trkpt lat="43.64461" lon="1.37912">
        <ele>146</ele>
        <time>2025-04-23T09:51:03Z</time>
      </trkpt>
      <trkpt lat="43.64461" lon="1.37917">
        <ele>146</ele>
        <time>2025-04-23T09:51:04Z</time>
      </trkpt>
      <trkpt lat="43.64461" lon="1.37922">
        <ele>145</ele>
        <time>2025-04-23T09:51:05Z</time>
      </trkpt>
      <trkpt lat="43.64462" lon="1.37926">
        <ele>145</ele>
        <time>2025-04-23T09:51:06Z</time>
      </trkpt>
      <trkpt lat="43.64464" lon="1.37931">
        <ele>145</ele>
        <time>2025-04-23T09:51:07Z</time>
      </trkpt>
      <trkpt lat="43.64466" lon="1.37935">
        <ele>146</ele>
        <time>2025-04-23T09:51:08Z</time>
      </trkpt>
      <trkpt lat="43.64468" lon="1.37939">
        <ele>146</ele>
        <time>2025-04-23T09:51:09Z</time>
      </trkpt>
      <trkpt lat="43.6447" lon="1.37943">
        <ele>146</ele>
        <time>2025-04-23T09:51:10Z</time>
      </trkpt>
      <trkpt lat="43.64473" lon="1.37946">
        <ele>145</ele>
        <time>2025-04-23T09:51:11Z</time>
      </trkpt>
      <trkpt lat="43.64476" lon="1.37948">
        <ele>145</ele>
        <time>2025-04-23T09:51:12Z</time>
      </trkpt>
      <trkpt lat="43.64479" lon="1.3795">
        <ele>145</ele>
        <time>2025-04-23T09:51:13Z</time>
      </trkpt>
      <trkpt lat="43.64482" lon="1.37952">
        <ele>145</ele>
        <time>2025-04-23T09:51:14Z</time>
      </trkpt>
      <trkpt lat="43.64485" lon="1.37953">
        <ele>145</ele>
        <time>2025-04-23T09:51:15Z</time>
      </trkpt>
      <trkpt lat="43.64488" lon="1.37955">
        <ele>145</ele>
        <time>2025-04-23T09:51:16Z</time>
      </trkpt>
      <trkpt lat="43.64491" lon="1.37957">
        <ele>145</ele>
        <time>2025-04-23T09:51:17Z</time>
      </trkpt>
      <trkpt lat="43.64494" lon="1.37958">
        <ele>145</ele>
        <time>2025-04-23T09:51:18Z</time>
      </trkpt>
      <trkpt lat="43.64498" lon="1.3796">
        <ele>145</ele>
        <time>2025-04-23T09:51:19Z</time>
      </trkpt>
      <trkpt lat="43.64504" lon="1.37964">
        <ele>145</ele>
        <time>2025-04-23T09:51:20Z</time>
      </trkpt>
      <trkpt lat="43.64504" lon="1.37964">
        <ele>145</ele>
        <time>2025-04-23T09:51:21Z</time>
      </trkpt>
      <trkpt lat="43.64507" lon="1.37966">
        <ele>145</ele>
        <time>2025-04-23T09:51:22Z</time>
      </trkpt>
      <trkpt lat="43.6451" lon="1.37968">
        <ele>145</ele>
        <time>2025-04-23T09:51:23Z</time>
      </trkpt>
      <trkpt lat="43.64513" lon="1.3797">
        <ele>145</ele>
        <time>2025-04-23T09:51:24Z</time>
      </trkpt>
      <trkpt lat="43.64516" lon="1.37972">
        <ele>145</ele>
        <time>2025-04-23T09:51:25Z</time>
      </trkpt>
      <trkpt lat="43.64519" lon="1.37974">
        <ele>145</ele>
        <time>2025-04-23T09:51:26Z</time>
      </trkpt>
      <trkpt lat="43.64522" lon="1.37976">
        <ele>145</ele>
        <time>2025-04-23T09:51:27Z</time>
      </trkpt>
      <trkpt lat="43.64526" lon="1.37978">
        <ele>145</ele>
        <time>2025-04-23T09:51:28Z</time>
      </trkpt>
      <trkpt lat="43.64529" lon="1.37979">
        <ele>145</ele>
        <time>2025-04-23T09:51:29Z</time>
      </trkpt>
      <trkpt lat="43.64532" lon="1.3798">
        <ele>145</ele>
        <time>2025-04-23T09:51:30Z</time>
      </trkpt>
      <trkpt lat="43.64535" lon="1.37982">
        <ele>145</ele>
        <time>2025-04-23T09:51:31Z</time>
      </trkpt>
      <trkpt lat="43.64538" lon="1.37983">
        <ele>145</ele>
        <time>2025-04-23T09:51:32Z</time>
      </trkpt>
      <trkpt lat="43.64541" lon="1.37983">
        <ele>145</ele>
        <time>2025-04-23T09:51:33Z</time>
      </trkpt>
      <trkpt lat="43.64544" lon="1.37982">
        <ele>145</ele>
        <time>2025-04-23T09:51:34Z</time>
      </trkpt>
      <trkpt lat="43.64547" lon="1.37982">
        <ele>145</ele>
        <time>2025-04-23T09:51:35Z</time>
      </trkpt>
      <trkpt lat="43.64551" lon="1.3798">
        <ele>145</ele>
        <time>2025-04-23T09:51:36Z</time>
      </trkpt>
      <trkpt lat="43.64554" lon="1.37978">
        <ele>145</ele>
        <time>2025-04-23T09:51:37Z</time>
      </trkpt>
      <trkpt lat="43.64557" lon="1.37975">
        <ele>146</ele>
        <time>2025-04-23T09:51:38Z</time>
      </trkpt>
      <trkpt lat="43.64559" lon="1.3797">
        <ele>146</ele>
        <time>2025-04-23T09:51:39Z</time>
      </trkpt>
      <trkpt lat="43.64561" lon="1.37965">
        <ele>145</ele>
        <time>2025-04-23T09:51:40Z</time>
      </trkpt>
      <trkpt lat="43.64563" lon="1.37961">
        <ele>145</ele>
        <time>2025-04-23T09:51:41Z</time>
      </trkpt>
      <trkpt lat="43.64565" lon="1.37956">
        <ele>145</ele>
        <time>2025-04-23T09:51:42Z</time>
      </trkpt>
      <trkpt lat="43.64565" lon="1.3795">
        <ele>146</ele>
        <time>2025-04-23T09:51:43Z</time>
      </trkpt>
      <trkpt lat="43.64565" lon="1.37944">
        <ele>146</ele>
        <time>2025-04-23T09:51:44Z</time>
      </trkpt>
      <trkpt lat="43.64565" lon="1.37939">
        <ele>146</ele>
        <time>2025-04-23T09:51:45Z</time>
      </trkpt>
      <trkpt lat="43.64564" lon="1.37934">
        <ele>146</ele>
        <time>2025-04-23T09:51:46Z</time>
      </trkpt>
      <trkpt lat="43.64563" lon="1.37929">
        <ele>145</ele>
        <time>2025-04-23T09:51:47Z</time>
      </trkpt>
      <trkpt lat="43.64561" lon="1.37925">
        <ele>145</ele>
        <time>2025-04-23T09:51:48Z</time>
      </trkpt>
      <trkpt lat="43.64559" lon="1.37921">
        <ele>145</ele>
        <time>2025-04-23T09:51:49Z</time>
      </trkpt>
      <trkpt lat="43.64557" lon="1.37917">
        <ele>145</ele>
        <time>2025-04-23T09:51:50Z</time>
      </trkpt>
      <trkpt lat="43.64554" lon="1.37914">
        <ele>146</ele>
        <time>2025-04-23T09:51:51Z</time>
      </trkpt>
      <trkpt lat="43.64552" lon="1.37911">
        <ele>146</ele>
        <time>2025-04-23T09:51:52Z</time>
      </trkpt>
      <trkpt lat="43.64549" lon="1.37909">
        <ele>146</ele>
        <time>2025-04-23T09:51:53Z</time>
      </trkpt>
      <trkpt lat="43.64546" lon="1.37907">
        <ele>146</ele>
        <time>2025-04-23T09:51:54Z</time>
      </trkpt>
      <trkpt lat="43.64543" lon="1.37905">
        <ele>146</ele>
        <time>2025-04-23T09:51:55Z</time>
      </trkpt>
      <trkpt lat="43.6454" lon="1.37903">
        <ele>146</ele>
        <time>2025-04-23T09:51:56Z</time>
      </trkpt>
      <trkpt lat="43.64536" lon="1.37901">
        <ele>146</ele>
        <time>2025-04-23T09:51:57Z</time>
      </trkpt>
      <trkpt lat="43.64534" lon="1.379">
        <ele>146</ele>
        <time>2025-04-23T09:51:58Z</time>
      </trkpt>
      <trkpt lat="43.6453" lon="1.37898">
        <ele>146</ele>
        <time>2025-04-23T09:51:59Z</time>
      </trkpt>
      <trkpt lat="43.64527" lon="1.37896">
        <ele>146</ele>
        <time>2025-04-23T09:52:00Z</time>
      </trkpt>
      <trkpt lat="43.64524" lon="1.37894">
        <ele>146</ele>
        <time>2025-04-23T09:52:01Z</time>
      </trkpt>
      <trkpt lat="43.64521" lon="1.37892">
        <ele>146</ele>
        <time>2025-04-23T09:52:02Z</time>
      </trkpt>
      <trkpt lat="43.64518" lon="1.37891">
        <ele>146</ele>
        <time>2025-04-23T09:52:03Z</time>
      </trkpt>
      <trkpt lat="43.64512" lon="1.37887">
        <ele>146</ele>
        <time>2025-04-23T09:52:04Z</time>
      </trkpt>
      <trkpt lat="43.64512" lon="1.37887">
        <ele>146</ele>
        <time>2025-04-23T09:52:05Z</time>
      </trkpt>
      <trkpt lat="43.64508" lon="1.37886">
        <ele>146</ele>
        <time>2025-04-23T09:52:06Z</time>
      </trkpt>
      <trkpt lat="43.64505" lon="1.37884">
        <ele>146</ele>
        <time>2025-04-23T09:52:07Z</time>
      </trkpt>
      <trkpt lat="43.64502" lon="1.37882">
        <ele>146</ele>
        <time>2025-04-23T09:52:08Z</time>
      </trkpt>
      <trkpt lat="43.64499" lon="1.3788">
        <ele>146</ele>
        <time>2025-04-23T09:52:09Z</time>
      </trkpt>
      <trkpt lat="43.64496" lon="1.37878">
        <ele>146</ele>
        <time>2025-04-23T09:52:10Z</time>
      </trkpt>
      <trkpt lat="43.64493" lon="1.37877">
        <ele>146</ele>
        <time>2025-04-23T09:52:11Z</time>
      </trkpt>
      <trkpt lat="43.6449" lon="1.37875">
        <ele>146</ele>
        <time>2025-04-23T09:52:12Z</time>
      </trkpt>
      <trkpt lat="43.64487" lon="1.37875">
        <ele>146</ele>
        <time>2025-04-23T09:52:13Z</time>
      </trkpt>
      <trkpt lat="43.64484" lon="1.37875">
        <ele>146</ele>
        <time>2025-04-23T09:52:14Z</time>
      </trkpt>
      <trkpt lat="43.6448" lon="1.37876">
        <ele>146</ele>
        <time>2025-04-23T09:52:15Z</time>
      </trkpt>
      <trkpt lat="43.64477" lon="1.37877">
        <ele>146</ele>
        <time>2025-04-23T09:52:16Z</time>
      </trkpt>
      <trkpt lat="43.64475" lon="1.37879">
        <ele>146</ele>
        <time>2025-04-23T09:52:17Z</time>
      </trkpt>
      <trkpt lat="43.64472" lon="1.37882">
        <ele>146</ele>
        <time>2025-04-23T09:52:18Z</time>
      </trkpt>
      <trkpt lat="43.64469" lon="1.37885">
        <ele>146</ele>
        <time>2025-04-23T09:52:19Z</time>
      </trkpt>
      <trkpt lat="43.64467" lon="1.37889">
        <ele>146</ele>
        <time>2025-04-23T09:52:20Z</time>
      </trkpt>
      <trkpt lat="43.64465" lon="1.37893">
        <ele>146</ele>
        <time>2025-04-23T09:52:21Z</time>
      </trkpt>
      <trkpt lat="43.64463" lon="1.37897">
        <ele>146</ele>
        <time>2025-04-23T09:52:22Z</time>
      </trkpt>
      <trkpt lat="43.64462" lon="1.37901">
        <ele>146</ele>
        <time>2025-04-23T09:52:23Z</time>
      </trkpt>
      <trkpt lat="43.64462" lon="1.37906">
        <ele>146</ele>
        <time>2025-04-23T09:52:24Z</time>
      </trkpt>
      <trkpt lat="43.64461" lon="1.3791">
        <ele>146</ele>
        <time>2025-04-23T09:52:25Z</time>
      </trkpt>
      <trkpt lat="43.64461" lon="1.37915">
        <ele>146</ele>
        <time>2025-04-23T09:52:26Z</time>
      </trkpt>
      <trkpt lat="43.64462" lon="1.37919">
        <ele>146</ele>
        <time>2025-04-23T09:52:27Z</time>
      </trkpt>
      <trkpt lat="43.64463" lon="1.37923">
        <ele>146</ele>
        <time>2025-04-23T09:52:28Z</time>
      </trkpt>
      <trkpt lat="43.64464" lon="1.37927">
        <ele>146</ele>
        <time>2025-04-23T09:52:29Z</time>
      </trkpt>
      <trkpt lat="43.64464" lon="1.37931">
        <ele>146</ele>
        <time>2025-04-23T09:52:30Z</time>
      </trkpt>
      <trkpt lat="43.64466" lon="1.37935">
        <ele>146</ele>
        <time>2025-04-23T09:52:31Z</time>
      </trkpt>
      <trkpt lat="43.64468" lon="1.37939">
        <ele>146</ele>
        <time>2025-04-23T09:52:32Z</time>
      </trkpt>
      <trkpt lat="43.6447" lon="1.37942">
        <ele>146</ele>
        <time>2025-04-23T09:52:33Z</time>
      </trkpt>
      <trkpt lat="43.64473" lon="1.37945">
        <ele>146</ele>
        <time>2025-04-23T09:52:34Z</time>
      </trkpt>
      <trkpt lat="43.64477" lon="1.37947">
        <ele>146</ele>
        <time>2025-04-23T09:52:35Z</time>
      </trkpt>
      <trkpt lat="43.64478" lon="1.37948">
        <ele>146</ele>
        <time>2025-04-23T09:52:36Z</time>
      </trkpt>
      <trkpt lat="43.64481" lon="1.3795">
        <ele>146</ele>
        <time>2025-04-23T09:52:37Z</time>
      </trkpt>
      <trkpt lat="43.64484" lon="1.37952">
        <ele>146</ele>
        <time>2025-04-23T09:52:38Z</time>
      </trkpt>
      <trkpt lat="43.64487" lon="1.37954">
        <ele>145</ele>
        <time>2025-04-23T09:52:39Z</time>
      </trkpt>
      <trkpt lat="43.6449" lon="1.37956">
        <ele>145</ele>
        <time>2025-04-23T09:52:40Z</time>
      </trkpt>
      <trkpt lat="43.64493" lon="1.37958">
        <ele>145</ele>
        <time>2025-04-23T09:52:41Z</time>
      </trkpt>
      <trkpt lat="43.64496" lon="1.3796">
        <ele>145</ele>
        <time>2025-04-23T09:52:42Z</time>
      </trkpt>
      <trkpt lat="43.64499" lon="1.37962">
        <ele>145</ele>
        <time>2025-04-23T09:52:43Z</time>
      </trkpt>
      <trkpt lat="43.64502" lon="1.37963">
        <ele>145</ele>
        <time>2025-04-23T09:52:44Z</time>
      </trkpt>
      <trkpt lat="43.64506" lon="1.37966">
        <ele>145</ele>
        <time>2025-04-23T09:52:45Z</time>
      </trkpt>
      <trkpt lat="43.64509" lon="1.37967">
        <ele>145</ele>
        <time>2025-04-23T09:52:46Z</time>
      </trkpt>
      <trkpt lat="43.64511" lon="1.37969">
        <ele>145</ele>
        <time>2025-04-23T09:52:47Z</time>
      </trkpt>
      <trkpt lat="43.64514" lon="1.37971">
        <ele>145</ele>
        <time>2025-04-23T09:52:48Z</time>
      </trkpt>
      <trkpt lat="43.64517" lon="1.37973">
        <ele>145</ele>
        <time>2025-04-23T09:52:49Z</time>
      </trkpt>
      <trkpt lat="43.64521" lon="1.37975">
        <ele>145</ele>
        <time>2025-04-23T09:52:50Z</time>
      </trkpt>
      <trkpt lat="43.64524" lon="1.37976">
        <ele>145</ele>
        <time>2025-04-23T09:52:51Z</time>
      </trkpt>
      <trkpt lat="43.64527" lon="1.37978">
        <ele>145</ele>
        <time>2025-04-23T09:52:52Z</time>
      </trkpt>
      <trkpt lat="43.6453" lon="1.3798">
        <ele>145</ele>
        <time>2025-04-23T09:52:53Z</time>
      </trkpt>
      <trkpt lat="43.64533" lon="1.3798">
        <ele>145</ele>
        <time>2025-04-23T09:52:54Z</time>
      </trkpt>
      <trkpt lat="43.64536" lon="1.37981">
        <ele>145</ele>
        <time>2025-04-23T09:52:55Z</time>
      </trkpt>
      <trkpt lat="43.6454" lon="1.37981">
        <ele>145</ele>
        <time>2025-04-23T09:52:56Z</time>
      </trkpt>
      <trkpt lat="43.64543" lon="1.37981">
        <ele>145</ele>
        <time>2025-04-23T09:52:57Z</time>
      </trkpt>
      <trkpt lat="43.64546" lon="1.37979">
        <ele>145</ele>
        <time>2025-04-23T09:52:58Z</time>
      </trkpt>
      <trkpt lat="43.64549" lon="1.37977">
        <ele>146</ele>
        <time>2025-04-23T09:52:59Z</time>
      </trkpt>
      <trkpt lat="43.64553" lon="1.37975">
        <ele>146</ele>
        <time>2025-04-23T09:53:00Z</time>
      </trkpt>
      <trkpt lat="43.64556" lon="1.37972">
        <ele>146</ele>
        <time>2025-04-23T09:53:01Z</time>
      </trkpt>
      <trkpt lat="43.64559" lon="1.37969">
        <ele>146</ele>
        <time>2025-04-23T09:53:02Z</time>
      </trkpt>
      <trkpt lat="43.64561" lon="1.37965">
        <ele>146</ele>
        <time>2025-04-23T09:53:03Z</time>
      </trkpt>
      <trkpt lat="43.64563" lon="1.37961">
        <ele>146</ele>
        <time>2025-04-23T09:53:04Z</time>
      </trkpt>
      <trkpt lat="43.64564" lon="1.37956">
        <ele>146</ele>
        <time>2025-04-23T09:53:05Z</time>
      </trkpt>
      <trkpt lat="43.64565" lon="1.37951">
        <ele>147</ele>
        <time>2025-04-23T09:53:06Z</time>
      </trkpt>
      <trkpt lat="43.64565" lon="1.37946">
        <ele>147</ele>
        <time>2025-04-23T09:53:07Z</time>
      </trkpt>
      <trkpt lat="43.64566" lon="1.37941">
        <ele>146</ele>
        <time>2025-04-23T09:53:08Z</time>
      </trkpt>
      <trkpt lat="43.64566" lon="1.37936">
        <ele>146</ele>
        <time>2025-04-23T09:53:09Z</time>
      </trkpt>
      <trkpt lat="43.64565" lon="1.37931">
        <ele>146</ele>
        <time>2025-04-23T09:53:10Z</time>
      </trkpt>
      <trkpt lat="43.64564" lon="1.37926">
        <ele>147</ele>
        <time>2025-04-23T09:53:11Z</time>
      </trkpt>
      <trkpt lat="43.64562" lon="1.37922">
        <ele>147</ele>
        <time>2025-04-23T09:53:12Z</time>
      </trkpt>
      <trkpt lat="43.64557" lon="1.37915">
        <ele>147</ele>
        <time>2025-04-23T09:53:13Z</time>
      </trkpt>
      <trkpt lat="43.64554" lon="1.37912">
        <ele>147</ele>
        <time>2025-04-23T09:53:14Z</time>
      </trkpt>
      <trkpt lat="43.64554" lon="1.37912">
        <ele>147</ele>
        <time>2025-04-23T09:53:15Z</time>
      </trkpt>
      <trkpt lat="43.64551" lon="1.37909">
        <ele>147</ele>
        <time>2025-04-23T09:53:16Z</time>
      </trkpt>
      <trkpt lat="43.64548" lon="1.37907">
        <ele>146</ele>
        <time>2025-04-23T09:53:17Z</time>
      </trkpt>
      <trkpt lat="43.64545" lon="1.37906">
        <ele>146</ele>
        <time>2025-04-23T09:53:18Z</time>
      </trkpt>
      <trkpt lat="43.64541" lon="1.37903">
        <ele>146</ele>
        <time>2025-04-23T09:53:19Z</time>
      </trkpt>
      <trkpt lat="43.6454" lon="1.37902">
        <ele>146</ele>
        <time>2025-04-23T09:53:20Z</time>
      </trkpt>
      <trkpt lat="43.6454" lon="1.37902">
        <ele>146</ele>
        <time>2025-04-23T09:53:21Z</time>
      </trkpt>
      <trkpt lat="43.64538" lon="1.37901">
        <ele>146</ele>
        <time>2025-04-23T09:53:22Z</time>
      </trkpt>
      <trkpt lat="43.64538" lon="1.37901">
        <ele>145</ele>
        <time>2025-04-23T09:53:23Z</time>
      </trkpt>
      <trkpt lat="43.64536" lon="1.37899">
        <ele>146</ele>
        <time>2025-04-23T09:53:24Z</time>
      </trkpt>
      <trkpt lat="43.64536" lon="1.37899">
        <ele>146</ele>
        <time>2025-04-23T09:53:25Z</time>
      </trkpt>
      <trkpt lat="43.64533" lon="1.37898">
        <ele>146</ele>
        <time>2025-04-23T09:53:26Z</time>
      </trkpt>
      <trkpt lat="43.6453" lon="1.37896">
        <ele>146</ele>
        <time>2025-04-23T09:53:27Z</time>
      </trkpt>
      <trkpt lat="43.6453" lon="1.37896">
        <ele>146</ele>
        <time>2025-04-23T09:53:28Z</time>
      </trkpt>
      <trkpt lat="43.6453" lon="1.37896">
        <ele>146</ele>
        <time>2025-04-23T09:53:29Z</time>
      </trkpt>
      <trkpt lat="43.64529" lon="1.37895">
        <ele>146</ele>
        <time>2025-04-23T09:53:30Z</time>
      </trkpt>
      <trkpt lat="43.64529" lon="1.37895">
        <ele>146</ele>
        <time>2025-04-23T09:53:31Z</time>
      </trkpt>
      <trkpt lat="43.64527" lon="1.37894">
        <ele>146</ele>
        <time>2025-04-23T09:53:32Z</time>
      </trkpt>
      <trkpt lat="43.64524" lon="1.37892">
        <ele>146</ele>
        <time>2025-04-23T09:53:33Z</time>
      </trkpt>
      <trkpt lat="43.64524" lon="1.37892">
        <ele>146</ele>
        <time>2025-04-23T09:53:34Z</time>
      </trkpt>
      <trkpt lat="43.64524" lon="1.37892">
        <ele>146</ele>
        <time>2025-04-23T09:53:35Z</time>
      </trkpt>
      <trkpt lat="43.64522" lon="1.37891">
        <ele>146</ele>
        <time>2025-04-23T09:53:36Z</time>
      </trkpt>
      <trkpt lat="43.64522" lon="1.37891">
        <ele>146</ele>
        <time>2025-04-23T09:53:37Z</time>
      </trkpt>
      <trkpt lat="43.6452" lon="1.37889">
        <ele>146</ele>
        <time>2025-04-23T09:53:38Z</time>
      </trkpt>
      <trkpt lat="43.6452" lon="1.37889">
        <ele>146</ele>
        <time>2025-04-23T09:53:39Z</time>
      </trkpt>
      <trkpt lat="43.64517" lon="1.37888">
        <ele>146</ele>
        <time>2025-04-23T09:53:40Z</time>
      </trkpt>
      <trkpt lat="43.64517" lon="1.37888">
        <ele>146</ele>
        <time>2025-04-23T09:53:41Z</time>
      </trkpt>
      <trkpt lat="43.64515" lon="1.37886">
        <ele>146</ele>
        <time>2025-04-23T09:53:42Z</time>
      </trkpt>
      <trkpt lat="43.64515" lon="1.37886">
        <ele>146</ele>
        <time>2025-04-23T09:53:43Z</time>
      </trkpt>
      <trkpt lat="43.64513" lon="1.37885">
        <ele>146</ele>
        <time>2025-04-23T09:53:44Z</time>
      </trkpt>
      <trkpt lat="43.64513" lon="1.37885">
        <ele>146</ele>
        <time>2025-04-23T09:53:45Z</time>
      </trkpt>
      <trkpt lat="43.64511" lon="1.37883">
        <ele>146</ele>
        <time>2025-04-23T09:53:46Z</time>
      </trkpt>
      <trkpt lat="43.64511" lon="1.37883">
        <ele>146</ele>
        <time>2025-04-23T09:53:47Z</time>
      </trkpt>
      <trkpt lat="43.64511" lon="1.37883">
        <ele>146</ele>
        <time>2025-04-23T09:53:48Z</time>
      </trkpt>
      <trkpt lat="43.64511" lon="1.37883">
        <ele>146</ele>
        <time>2025-04-23T09:53:49Z</time>
      </trkpt>
      <trkpt lat="43.64508" lon="1.37882">
        <ele>146</ele>
        <time>2025-04-23T09:53:50Z</time>
      </trkpt>
      <trkpt lat="43.64508" lon="1.37882">
        <ele>146</ele>
        <time>2025-04-23T09:53:51Z</time>
      </trkpt>
      <trkpt lat="43.64506" lon="1.3788">
        <ele>146</ele>
        <time>2025-04-23T09:53:52Z</time>
      </trkpt>
      <trkpt lat="43.64506" lon="1.3788">
        <ele>146</ele>
        <time>2025-04-23T09:53:53Z</time>
      </trkpt>
      <trkpt lat="43.64503" lon="1.37878">
        <ele>146</ele>
        <time>2025-04-23T09:53:54Z</time>
      </trkpt>
      <trkpt lat="43.64503" lon="1.37878">
        <ele>146</ele>
        <time>2025-04-23T09:53:55Z</time>
      </trkpt>
      <trkpt lat="43.645" lon="1.37878">
        <ele>146</ele>
        <time>2025-04-23T09:53:56Z</time>
      </trkpt>
      <trkpt lat="43.645" lon="1.37878">
        <ele>146</ele>
        <time>2025-04-23T09:53:57Z</time>
      </trkpt>
      <trkpt lat="43.64498" lon="1.37876">
        <ele>146</ele>
        <time>2025-04-23T09:53:58Z</time>
      </trkpt>
      <trkpt lat="43.64498" lon="1.37876">
        <ele>146</ele>
        <time>2025-04-23T09:53:59Z</time>
      </trkpt>
      <trkpt lat="43.64496" lon="1.37874">
        <ele>146</ele>
        <time>2025-04-23T09:54:00Z</time>
      </trkpt>
      <trkpt lat="43.64496" lon="1.37874">
        <ele>146</ele>
        <time>2025-04-23T09:54:01Z</time>
      </trkpt>
      <trkpt lat="43.64496" lon="1.37874">
        <ele>146</ele>
        <time>2025-04-23T09:54:02Z</time>
      </trkpt>
      <trkpt lat="43.64496" lon="1.37874">
        <ele>146</ele>
        <time>2025-04-23T09:54:03Z</time>
      </trkpt>
      <trkpt lat="43.64496" lon="1.37874">
        <ele>146</ele>
        <time>2025-04-23T09:54:04Z</time>
      </trkpt>
      <trkpt lat="43.64494" lon="1.37873">
        <ele>146</ele>
        <time>2025-04-23T09:54:05Z</time>
      </trkpt>
      <trkpt lat="43.64494" lon="1.37873">
        <ele>146</ele>
        <time>2025-04-23T09:54:06Z</time>
      </trkpt>
      <trkpt lat="43.64494" lon="1.37873">
        <ele>146</ele>
        <time>2025-04-23T09:54:07Z</time>
      </trkpt>
      <trkpt lat="43.64494" lon="1.37873">
        <ele>146</ele>
        <time>2025-04-23T09:54:08Z</time>
      </trkpt>
      <trkpt lat="43.64494" lon="1.37873">
        <ele>146</ele>
        <time>2025-04-23T09:54:09Z</time>
      </trkpt>
      <trkpt lat="43.64494" lon="1.37873">
        <ele>146</ele>
        <time>2025-04-23T09:54:10Z</time>
      </trkpt>
      <trkpt lat="43.64494" lon="1.37873">
        <ele>146</ele>
        <time>2025-04-23T09:54:11Z</time>
      </trkpt>
      <trkpt lat="43.64494" lon="1.37873">
        <ele>146</ele>
        <time>2025-04-23T09:54:12Z</time>
      </trkpt>
      <trkpt lat="43.64492" lon="1.37874">
        <ele>146</ele>
        <time>2025-04-23T09:54:13Z</time>
      </trkpt>
      <trkpt lat="43.64492" lon="1.37874">
        <ele>146</ele>
        <time>2025-04-23T09:54:14Z</time>
      </trkpt>
      <trkpt lat="43.6449" lon="1.37874">
        <ele>146</ele>
        <time>2025-04-23T09:54:15Z</time>
      </trkpt>
      <trkpt lat="43.6449" lon="1.37874">
        <ele>146</ele>
        <time>2025-04-23T09:54:16Z</time>
      </trkpt>
      <trkpt lat="43.64488" lon="1.37874">
        <ele>146</ele>
        <time>2025-04-23T09:54:17Z</time>
      </trkpt>
      <trkpt lat="43.64488" lon="1.37874">
        <ele>146</ele>
        <time>2025-04-23T09:54:18Z</time>
      </trkpt>
      <trkpt lat="43.64485" lon="1.37874">
        <ele>146</ele>
        <time>2025-04-23T09:54:19Z</time>
      </trkpt>
      <trkpt lat="43.64485" lon="1.37874">
        <ele>146</ele>
        <time>2025-04-23T09:54:20Z</time>
      </trkpt>
      <trkpt lat="43.64483" lon="1.37875">
        <ele>146</ele>
        <time>2025-04-23T09:54:21Z</time>
      </trkpt>
      <trkpt lat="43.64483" lon="1.37875">
        <ele>146</ele>
        <time>2025-04-23T09:54:22Z</time>
      </trkpt>
      <trkpt lat="43.6448" lon="1.37876">
        <ele>146</ele>
        <time>2025-04-23T09:54:23Z</time>
      </trkpt>
      <trkpt lat="43.6448" lon="1.37876">
        <ele>146</ele>
        <time>2025-04-23T09:54:24Z</time>
      </trkpt>
      <trkpt lat="43.64478" lon="1.37877">
        <ele>146</ele>
        <time>2025-04-23T09:54:25Z</time>
      </trkpt>
      <trkpt lat="43.64478" lon="1.37877">
        <ele>146</ele>
        <time>2025-04-23T09:54:26Z</time>
      </trkpt>
      <trkpt lat="43.64476" lon="1.37878">
        <ele>146</ele>
        <time>2025-04-23T09:54:27Z</time>
      </trkpt>
      <trkpt lat="43.64476" lon="1.37878">
        <ele>146</ele>
        <time>2025-04-23T09:54:28Z</time>
      </trkpt>
      <trkpt lat="43.64473" lon="1.3788">
        <ele>146</ele>
        <time>2025-04-23T09:54:29Z</time>
      </trkpt>
      <trkpt lat="43.64471" lon="1.37882">
        <ele>146</ele>
        <time>2025-04-23T09:54:30Z</time>
      </trkpt>
      <trkpt lat="43.64471" lon="1.37882">
        <ele>146</ele>
        <time>2025-04-23T09:54:31Z</time>
      </trkpt>
      <trkpt lat="43.64471" lon="1.37882">
        <ele>146</ele>
        <time>2025-04-23T09:54:32Z</time>
      </trkpt>
      <trkpt lat="43.64469" lon="1.37884">
        <ele>146</ele>
        <time>2025-04-23T09:54:33Z</time>
      </trkpt>
      <trkpt lat="43.64469" lon="1.37884">
        <ele>146</ele>
        <time>2025-04-23T09:54:34Z</time>
      </trkpt>
      <trkpt lat="43.64468" lon="1.37887">
        <ele>146</ele>
        <time>2025-04-23T09:54:35Z</time>
      </trkpt>
      <trkpt lat="43.64468" lon="1.37887">
        <ele>146</ele>
        <time>2025-04-23T09:54:36Z</time>
      </trkpt>
      <trkpt lat="43.64466" lon="1.3789">
        <ele>146</ele>
        <time>2025-04-23T09:54:37Z</time>
      </trkpt>
      <trkpt lat="43.64466" lon="1.3789">
        <ele>146</ele>
        <time>2025-04-23T09:54:38Z</time>
      </trkpt>
      <trkpt lat="43.64465" lon="1.37893">
        <ele>146</ele>
        <time>2025-04-23T09:54:39Z</time>
      </trkpt>
      <trkpt lat="43.64465" lon="1.37893">
        <ele>146</ele>
        <time>2025-04-23T09:54:40Z</time>
      </trkpt>
      <trkpt lat="43.64463" lon="1.37896">
        <ele>146</ele>
        <time>2025-04-23T09:54:41Z</time>
      </trkpt>
      <trkpt lat="43.64463" lon="1.37896">
        <ele>146</ele>
        <time>2025-04-23T09:54:42Z</time>
      </trkpt>
      <trkpt lat="43.64462" lon="1.37899">
        <ele>146</ele>
        <time>2025-04-23T09:54:43Z</time>
      </trkpt>
      <trkpt lat="43.64462" lon="1.37899">
        <ele>146</ele>
        <time>2025-04-23T09:54:44Z</time>
      </trkpt>
      <trkpt lat="43.64461" lon="1.37902">
        <ele>146</ele>
        <time>2025-04-23T09:54:45Z</time>
      </trkpt>
      <trkpt lat="43.64461" lon="1.37902">
        <ele>146</ele>
        <time>2025-04-23T09:54:46Z</time>
      </trkpt>
      <trkpt lat="43.64461" lon="1.37905">
        <ele>146</ele>
        <time>2025-04-23T09:54:47Z</time>
      </trkpt>
      <trkpt lat="43.64461" lon="1.37905">
        <ele>146</ele>
        <time>2025-04-23T09:54:48Z</time>
      </trkpt>
      <trkpt lat="43.6446" lon="1.37909">
        <ele>146</ele>
        <time>2025-04-23T09:54:49Z</time>
      </trkpt>
      <trkpt lat="43.6446" lon="1.37909">
        <ele>146</ele>
        <time>2025-04-23T09:54:50Z</time>
      </trkpt>
      <trkpt lat="43.6446" lon="1.37913">
        <ele>146</ele>
        <time>2025-04-23T09:54:51Z</time>
      </trkpt>
      <trkpt lat="43.6446" lon="1.37913">
        <ele>146</ele>
        <time>2025-04-23T09:54:52Z</time>
      </trkpt>
      <trkpt lat="43.6446" lon="1.37916">
        <ele>146</ele>
        <time>2025-04-23T09:54:53Z</time>
      </trkpt>
      <trkpt lat="43.6446" lon="1.37916">
        <ele>146</ele>
        <time>2025-04-23T09:54:54Z</time>
      </trkpt>
      <trkpt lat="43.6446" lon="1.3792">
        <ele>146</ele>
        <time>2025-04-23T09:54:55Z</time>
      </trkpt>
      <trkpt lat="43.6446" lon="1.3792">
        <ele>146</ele>
        <time>2025-04-23T09:54:56Z</time>
      </trkpt>
      <trkpt lat="43.64461" lon="1.37923">
        <ele>146</ele>
        <time>2025-04-23T09:54:57Z</time>
      </trkpt>
      <trkpt lat="43.64461" lon="1.37923">
        <ele>146</ele>
        <time>2025-04-23T09:54:58Z</time>
      </trkpt>
      <trkpt lat="43.64461" lon="1.37926">
        <ele>146</ele>
        <time>2025-04-23T09:54:59Z</time>
      </trkpt>
      <trkpt lat="43.64461" lon="1.37926">
        <ele>146</ele>
        <time>2025-04-23T09:55:00Z</time>
      </trkpt>
      <trkpt lat="43.64463" lon="1.37929">
        <ele>146</ele>
        <time>2025-04-23T09:55:01Z</time>
      </trkpt>
      <trkpt lat="43.64463" lon="1.37929">
        <ele>146</ele>
        <time>2025-04-23T09:55:02Z</time>
      </trkpt>
      <trkpt lat="43.64464" lon="1.37932">
        <ele>146</ele>
        <time>2025-04-23T09:55:03Z</time>
      </trkpt>
      <trkpt lat="43.64464" lon="1.37932">
        <ele>147</ele>
        <time>2025-04-23T09:55:04Z</time>
      </trkpt>
      <trkpt lat="43.64465" lon="1.37935">
        <ele>147</ele>
        <time>2025-04-23T09:55:05Z</time>
      </trkpt>
      <trkpt lat="43.64465" lon="1.37935">
        <ele>146</ele>
        <time>2025-04-23T09:55:06Z</time>
      </trkpt>
      <trkpt lat="43.64466" lon="1.37938">
        <ele>146</ele>
        <time>2025-04-23T09:55:07Z</time>
      </trkpt>
      <trkpt lat="43.64468" lon="1.3794">
        <ele>146</ele>
        <time>2025-04-23T09:55:08Z</time>
      </trkpt>
      <trkpt lat="43.64468" lon="1.3794">
        <ele>146</ele>
        <time>2025-04-23T09:55:09Z</time>
      </trkpt>
      <trkpt lat="43.64468" lon="1.3794">
        <ele>146</ele>
        <time>2025-04-23T09:55:10Z</time>
      </trkpt>
      <trkpt lat="43.64469" lon="1.37943">
        <ele>146</ele>
        <time>2025-04-23T09:55:11Z</time>
      </trkpt>
      <trkpt lat="43.64469" lon="1.37943">
        <ele>146</ele>
        <time>2025-04-23T09:55:12Z</time>
      </trkpt>
      <trkpt lat="43.64472" lon="1.37945">
        <ele>146</ele>
        <time>2025-04-23T09:55:13Z</time>
      </trkpt>
      <trkpt lat="43.64472" lon="1.37945">
        <ele>146</ele>
        <time>2025-04-23T09:55:14Z</time>
      </trkpt>
      <trkpt lat="43.64474" lon="1.37948">
        <ele>146</ele>
        <time>2025-04-23T09:55:15Z</time>
      </trkpt>
      <trkpt lat="43.64474" lon="1.37948">
        <ele>146</ele>
        <time>2025-04-23T09:55:16Z</time>
      </trkpt>
      <trkpt lat="43.64475" lon="1.37949">
        <ele>146</ele>
        <time>2025-04-23T09:55:17Z</time>
      </trkpt>
      <trkpt lat="43.64475" lon="1.37949">
        <ele>146</ele>
        <time>2025-04-23T09:55:18Z</time>
      </trkpt>
      <trkpt lat="43.64477" lon="1.37951">
        <ele>146</ele>
        <time>2025-04-23T09:55:19Z</time>
      </trkpt>
      <trkpt lat="43.64477" lon="1.37951">
        <ele>146</ele>
        <time>2025-04-23T09:55:20Z</time>
      </trkpt>
      <trkpt lat="43.64479" lon="1.37952">
        <ele>146</ele>
        <time>2025-04-23T09:55:21Z</time>
      </trkpt>
      <trkpt lat="43.64479" lon="1.37952">
        <ele>146</ele>
        <time>2025-04-23T09:55:22Z</time>
      </trkpt>
      <trkpt lat="43.64481" lon="1.37953">
        <ele>146</ele>
        <time>2025-04-23T09:55:23Z</time>
      </trkpt>
      <trkpt lat="43.64481" lon="1.37953">
        <ele>146</ele>
        <time>2025-04-23T09:55:24Z</time>
      </trkpt>
      <trkpt lat="43.64483" lon="1.37954">
        <ele>146</ele>
        <time>2025-04-23T09:55:25Z</time>
      </trkpt>
      <trkpt lat="43.64483" lon="1.37954">
        <ele>146</ele>
        <time>2025-04-23T09:55:26Z</time>
      </trkpt>
      <trkpt lat="43.64485" lon="1.37956">
        <ele>146</ele>
        <time>2025-04-23T09:55:27Z</time>
      </trkpt>
      <trkpt lat="43.64485" lon="1.37956">
        <ele>146</ele>
        <time>2025-04-23T09:55:28Z</time>
      </trkpt>
      <trkpt lat="43.64487" lon="1.37957">
        <ele>146</ele>
        <time>2025-04-23T09:55:29Z</time>
      </trkpt>
      <trkpt lat="43.64487" lon="1.37957">
        <ele>146</ele>
        <time>2025-04-23T09:55:30Z</time>
      </trkpt>
      <trkpt lat="43.64489" lon="1.37958">
        <ele>146</ele>
        <time>2025-04-23T09:55:31Z</time>
      </trkpt>
      <trkpt lat="43.64489" lon="1.37958">
        <ele>146</ele>
        <time>2025-04-23T09:55:32Z</time>
      </trkpt>
      <trkpt lat="43.64492" lon="1.3796">
        <ele>146</ele>
        <time>2025-04-23T09:55:33Z</time>
      </trkpt>
      <trkpt lat="43.64492" lon="1.3796">
        <ele>146</ele>
        <time>2025-04-23T09:55:34Z</time>
      </trkpt>
      <trkpt lat="43.64494" lon="1.37961">
        <ele>146</ele>
        <time>2025-04-23T09:55:35Z</time>
      </trkpt>
      <trkpt lat="43.64494" lon="1.37961">
        <ele>147</ele>
        <time>2025-04-23T09:55:36Z</time>
      </trkpt>
      <trkpt lat="43.64496" lon="1.37963">
        <ele>147</ele>
        <time>2025-04-23T09:55:37Z</time>
      </trkpt>
      <trkpt lat="43.64496" lon="1.37963">
        <ele>147</ele>
        <time>2025-04-23T09:55:38Z</time>
      </trkpt>
      <trkpt lat="43.64498" lon="1.37964">
        <ele>147</ele>
        <time>2025-04-23T09:55:39Z</time>
      </trkpt>
      <trkpt lat="43.64498" lon="1.37964">
        <ele>147</ele>
        <time>2025-04-23T09:55:40Z</time>
      </trkpt>
      <trkpt lat="43.645" lon="1.37965">
        <ele>147</ele>
        <time>2025-04-23T09:55:41Z</time>
      </trkpt>
      <trkpt lat="43.645" lon="1.37965">
        <ele>146</ele>
        <time>2025-04-23T09:55:42Z</time>
      </trkpt>
      <trkpt lat="43.64502" lon="1.37967">
        <ele>147</ele>
        <time>2025-04-23T09:55:43Z</time>
      </trkpt>
      <trkpt lat="43.64502" lon="1.37967">
        <ele>147</ele>
        <time>2025-04-23T09:55:44Z</time>
      </trkpt>
      <trkpt lat="43.64504" lon="1.37968">
        <ele>147</ele>
        <time>2025-04-23T09:55:45Z</time>
      </trkpt>
      <trkpt lat="43.64506" lon="1.3797">
        <ele>147</ele>
        <time>2025-04-23T09:55:46Z</time>
      </trkpt>
      <trkpt lat="43.64506" lon="1.3797">
        <ele>147</ele>
        <time>2025-04-23T09:55:47Z</time>
      </trkpt>
      <trkpt lat="43.64506" lon="1.3797">
        <ele>147</ele>
        <time>2025-04-23T09:55:48Z</time>
      </trkpt>
      <trkpt lat="43.64508" lon="1.37972">
        <ele>147</ele>
        <time>2025-04-23T09:55:49Z</time>
      </trkpt>
      <trkpt lat="43.64508" lon="1.37972">
        <ele>146</ele>
        <time>2025-04-23T09:55:50Z</time>
      </trkpt>
      <trkpt lat="43.6451" lon="1.37973">
        <ele>146</ele>
        <time>2025-04-23T09:55:51Z</time>
      </trkpt>
      <trkpt lat="43.6451" lon="1.37973">
        <ele>146</ele>
        <time>2025-04-23T09:55:52Z</time>
      </trkpt>
      <trkpt lat="43.64512" lon="1.37974">
        <ele>146</ele>
        <time>2025-04-23T09:55:53Z</time>
      </trkpt>
      <trkpt lat="43.64512" lon="1.37974">
        <ele>146</ele>
        <time>2025-04-23T09:55:54Z</time>
      </trkpt>
      <trkpt lat="43.64514" lon="1.37976">
        <ele>147</ele>
        <time>2025-04-23T09:55:55Z</time>
      </trkpt>
      <trkpt lat="43.64514" lon="1.37976">
        <ele>147</ele>
        <time>2025-04-23T09:55:56Z</time>
      </trkpt>
      <trkpt lat="43.64516" lon="1.37977">
        <ele>147</ele>
        <time>2025-04-23T09:55:57Z</time>
      </trkpt>
      <trkpt lat="43.64516" lon="1.37977">
        <ele>146</ele>
        <time>2025-04-23T09:55:58Z</time>
      </trkpt>
      <trkpt lat="43.64519" lon="1.37978">
        <ele>146</ele>
        <time>2025-04-23T09:55:59Z</time>
      </trkpt>
      <trkpt lat="43.64519" lon="1.37978">
        <ele>146</ele>
        <time>2025-04-23T09:56:00Z</time>
      </trkpt>
      <trkpt lat="43.64522" lon="1.3798">
        <ele>146</ele>
        <time>2025-04-23T09:56:01Z</time>
      </trkpt>
      <trkpt lat="43.64524" lon="1.37982">
        <ele>146</ele>
        <time>2025-04-23T09:56:02Z</time>
      </trkpt>
      <trkpt lat="43.64527" lon="1.37984">
        <ele>146</ele>
        <time>2025-04-23T09:56:03Z</time>
      </trkpt>
      <trkpt lat="43.6453" lon="1.37986">
        <ele>146</ele>
        <time>2025-04-23T09:56:04Z</time>
      </trkpt>
      <trkpt lat="43.64537" lon="1.37987">
        <ele>146</ele>
        <time>2025-04-23T09:56:05Z</time>
      </trkpt>
      <trkpt lat="43.64537" lon="1.37987">
        <ele>146</ele>
        <time>2025-04-23T09:56:06Z</time>
      </trkpt>
      <trkpt lat="43.64541" lon="1.37986">
        <ele>146</ele>
        <time>2025-04-23T09:56:07Z</time>
      </trkpt>
      <trkpt lat="43.64545" lon="1.37984">
        <ele>146</ele>
        <time>2025-04-23T09:56:08Z</time>
      </trkpt>
      <trkpt lat="43.64549" lon="1.37982">
        <ele>146</ele>
        <time>2025-04-23T09:56:09Z</time>
      </trkpt>
      <trkpt lat="43.64553" lon="1.3798">
        <ele>146</ele>
        <time>2025-04-23T09:56:10Z</time>
      </trkpt>
      <trkpt lat="43.64556" lon="1.37976">
        <ele>146</ele>
        <time>2025-04-23T09:56:11Z</time>
      </trkpt>
      <trkpt lat="43.64559" lon="1.37971">
        <ele>147</ele>
        <time>2025-04-23T09:56:12Z</time>
      </trkpt>
      <trkpt lat="43.64562" lon="1.37966">
        <ele>147</ele>
        <time>2025-04-23T09:56:13Z</time>
      </trkpt>
      <trkpt lat="43.64564" lon="1.37962">
        <ele>147</ele>
        <time>2025-04-23T09:56:14Z</time>
      </trkpt>
      <trkpt lat="43.64565" lon="1.37957">
        <ele>147</ele>
        <time>2025-04-23T09:56:15Z</time>
      </trkpt>
      <trkpt lat="43.64567" lon="1.37951">
        <ele>147</ele>
        <time>2025-04-23T09:56:16Z</time>
      </trkpt>
      <trkpt lat="43.64567" lon="1.37943">
        <ele>147</ele>
        <time>2025-04-23T09:56:17Z</time>
      </trkpt>
      <trkpt lat="43.64567" lon="1.3794">
        <ele>147</ele>
        <time>2025-04-23T09:56:18Z</time>
      </trkpt>
      <trkpt lat="43.64567" lon="1.37935">
        <ele>147</ele>
        <time>2025-04-23T09:56:19Z</time>
      </trkpt>
      <trkpt lat="43.64566" lon="1.3793">
        <ele>147</ele>
        <time>2025-04-23T09:56:20Z</time>
      </trkpt>
      <trkpt lat="43.64564" lon="1.37925">
        <ele>147</ele>
        <time>2025-04-23T09:56:21Z</time>
      </trkpt>
      <trkpt lat="43.64561" lon="1.37921">
        <ele>147</ele>
        <time>2025-04-23T09:56:22Z</time>
      </trkpt>
      <trkpt lat="43.64558" lon="1.37917">
        <ele>147</ele>
        <time>2025-04-23T09:56:23Z</time>
      </trkpt>
      <trkpt lat="43.64552" lon="1.37912">
        <ele>147</ele>
        <time>2025-04-23T09:56:24Z</time>
      </trkpt>
      <trkpt lat="43.64552" lon="1.37912">
        <ele>146</ele>
        <time>2025-04-23T09:56:25Z</time>
      </trkpt>
      <trkpt lat="43.64549" lon="1.3791">
        <ele>146</ele>
        <time>2025-04-23T09:56:26Z</time>
      </trkpt>
      <trkpt lat="43.64546" lon="1.37907">
        <ele>147</ele>
        <time>2025-04-23T09:56:27Z</time>
      </trkpt>
      <trkpt lat="43.64542" lon="1.37905">
        <ele>147</ele>
        <time>2025-04-23T09:56:28Z</time>
      </trkpt>
      <trkpt lat="43.64539" lon="1.37904">
        <ele>147</ele>
        <time>2025-04-23T09:56:29Z</time>
      </trkpt>
      <trkpt lat="43.64535" lon="1.37901">
        <ele>147</ele>
        <time>2025-04-23T09:56:30Z</time>
      </trkpt>
      <trkpt lat="43.64532" lon="1.379">
        <ele>147</ele>
        <time>2025-04-23T09:56:31Z</time>
      </trkpt>
      <trkpt lat="43.64529" lon="1.37897">
        <ele>147</ele>
        <time>2025-04-23T09:56:32Z</time>
      </trkpt>
      <trkpt lat="43.64523" lon="1.37893">
        <ele>147</ele>
        <time>2025-04-23T09:56:33Z</time>
      </trkpt>
      <trkpt lat="43.64519" lon="1.37891">
        <ele>147</ele>
        <time>2025-04-23T09:56:34Z</time>
      </trkpt>
      <trkpt lat="43.64519" lon="1.37891">
        <ele>147</ele>
        <time>2025-04-23T09:56:35Z</time>
      </trkpt>
      <trkpt lat="43.64516" lon="1.37889">
        <ele>147</ele>
        <time>2025-04-23T09:56:36Z</time>
      </trkpt>
      <trkpt lat="43.64513" lon="1.37887">
        <ele>147</ele>
        <time>2025-04-23T09:56:37Z</time>
      </trkpt>
      <trkpt lat="43.64509" lon="1.37885">
        <ele>147</ele>
        <time>2025-04-23T09:56:38Z</time>
      </trkpt>
      <trkpt lat="43.64506" lon="1.37882">
        <ele>147</ele>
        <time>2025-04-23T09:56:39Z</time>
      </trkpt>
      <trkpt lat="43.64503" lon="1.3788">
        <ele>147</ele>
        <time>2025-04-23T09:56:40Z</time>
      </trkpt>
      <trkpt lat="43.645" lon="1.37878">
        <ele>147</ele>
        <time>2025-04-23T09:56:41Z</time>
      </trkpt>
      <trkpt lat="43.64497" lon="1.37876">
        <ele>147</ele>
        <time>2025-04-23T09:56:42Z</time>
      </trkpt>
      <trkpt lat="43.6449" lon="1.37874">
        <ele>146</ele>
        <time>2025-04-23T09:56:43Z</time>
      </trkpt>
      <trkpt lat="43.6449" lon="1.37874">
        <ele>146</ele>
        <time>2025-04-23T09:56:44Z</time>
      </trkpt>
      <trkpt lat="43.64486" lon="1.37874">
        <ele>146</ele>
        <time>2025-04-23T09:56:45Z</time>
      </trkpt>
      <trkpt lat="43.64483" lon="1.37874">
        <ele>146</ele>
        <time>2025-04-23T09:56:46Z</time>
      </trkpt>
      <trkpt lat="43.6448" lon="1.37874">
        <ele>147</ele>
        <time>2025-04-23T09:56:47Z</time>
      </trkpt>
      <trkpt lat="43.64477" lon="1.37876">
        <ele>147</ele>
        <time>2025-04-23T09:56:48Z</time>
      </trkpt>
      <trkpt lat="43.64474" lon="1.37879">
        <ele>147</ele>
        <time>2025-04-23T09:56:49Z</time>
      </trkpt>
      <trkpt lat="43.64471" lon="1.37882">
        <ele>147</ele>
        <time>2025-04-23T09:56:50Z</time>
      </trkpt>
      <trkpt lat="43.64469" lon="1.37885">
        <ele>147</ele>
        <time>2025-04-23T09:56:51Z</time>
      </trkpt>
      <trkpt lat="43.64467" lon="1.37889">
        <ele>147</ele>
        <time>2025-04-23T09:56:52Z</time>
      </trkpt>
      <trkpt lat="43.64465" lon="1.37895">
        <ele>147</ele>
        <time>2025-04-23T09:56:53Z</time>
      </trkpt>
      <trkpt lat="43.64464" lon="1.37898">
        <ele>146</ele>
        <time>2025-04-23T09:56:54Z</time>
      </trkpt>
      <trkpt lat="43.64463" lon="1.37903">
        <ele>146</ele>
        <time>2025-04-23T09:56:55Z</time>
      </trkpt>
      <trkpt lat="43.64463" lon="1.37907">
        <ele>146</ele>
        <time>2025-04-23T09:56:56Z</time>
      </trkpt>
      <trkpt lat="43.64463" lon="1.37912">
        <ele>146</ele>
        <time>2025-04-23T09:56:57Z</time>
      </trkpt>
      <trkpt lat="43.64463" lon="1.37917">
        <ele>146</ele>
        <time>2025-04-23T09:56:58Z</time>
      </trkpt>
      <trkpt lat="43.64464" lon="1.37922">
        <ele>147</ele>
        <time>2025-04-23T09:56:59Z</time>
      </trkpt>
      <trkpt lat="43.64466" lon="1.37926">
        <ele>147</ele>
        <time>2025-04-23T09:57:00Z</time>
      </trkpt>
      <trkpt lat="43.64467" lon="1.37931">
        <ele>146</ele>
        <time>2025-04-23T09:57:01Z</time>
      </trkpt>
      <trkpt lat="43.64469" lon="1.37935">
        <ele>146</ele>
        <time>2025-04-23T09:57:02Z</time>
      </trkpt>
      <trkpt lat="43.64471" lon="1.37939">
        <ele>146</ele>
        <time>2025-04-23T09:57:03Z</time>
      </trkpt>
      <trkpt lat="43.64474" lon="1.37943">
        <ele>146</ele>
        <time>2025-04-23T09:57:04Z</time>
      </trkpt>
      <trkpt lat="43.64476" lon="1.37946">
        <ele>146</ele>
        <time>2025-04-23T09:57:05Z</time>
      </trkpt>
      <trkpt lat="43.64479" lon="1.37948">
        <ele>146</ele>
        <time>2025-04-23T09:57:06Z</time>
      </trkpt>
      <trkpt lat="43.64484" lon="1.37952">
        <ele>146</ele>
        <time>2025-04-23T09:57:07Z</time>
      </trkpt>
      <trkpt lat="43.64484" lon="1.37952">
        <ele>145</ele>
        <time>2025-04-23T09:57:08Z</time>
      </trkpt>
      <trkpt lat="43.64487" lon="1.37954">
        <ele>145</ele>
        <time>2025-04-23T09:57:09Z</time>
      </trkpt>
      <trkpt lat="43.6449" lon="1.37955">
        <ele>145</ele>
        <time>2025-04-23T09:57:10Z</time>
      </trkpt>
      <trkpt lat="43.64493" lon="1.37957">
        <ele>145</ele>
        <time>2025-04-23T09:57:11Z</time>
      </trkpt>
      <trkpt lat="43.64496" lon="1.37959">
        <ele>145</ele>
        <time>2025-04-23T09:57:12Z</time>
      </trkpt>
      <trkpt lat="43.645" lon="1.37961">
        <ele>145</ele>
        <time>2025-04-23T09:57:13Z</time>
      </trkpt>
      <trkpt lat="43.64503" lon="1.37963">
        <ele>145</ele>
        <time>2025-04-23T09:57:14Z</time>
      </trkpt>
      <trkpt lat="43.64506" lon="1.37965">
        <ele>145</ele>
        <time>2025-04-23T09:57:15Z</time>
      </trkpt>
      <trkpt lat="43.6451" lon="1.37967">
        <ele>145</ele>
        <time>2025-04-23T09:57:16Z</time>
      </trkpt>
      <trkpt lat="43.64513" lon="1.37969">
        <ele>145</ele>
        <time>2025-04-23T09:57:17Z</time>
      </trkpt>
      <trkpt lat="43.64516" lon="1.37971">
        <ele>145</ele>
        <time>2025-04-23T09:57:18Z</time>
      </trkpt>
      <trkpt lat="43.6452" lon="1.37974">
        <ele>145</ele>
        <time>2025-04-23T09:57:19Z</time>
      </trkpt>
      <trkpt lat="43.64523" lon="1.37976">
        <ele>146</ele>
        <time>2025-04-23T09:57:20Z</time>
      </trkpt>
      <trkpt lat="43.64531" lon="1.37979">
        <ele>146</ele>
        <time>2025-04-23T09:57:21Z</time>
      </trkpt>
      <trkpt lat="43.64535" lon="1.3798">
        <ele>146</ele>
        <time>2025-04-23T09:57:22Z</time>
      </trkpt>
      <trkpt lat="43.64535" lon="1.3798">
        <ele>146</ele>
        <time>2025-04-23T09:57:23Z</time>
      </trkpt>
      <trkpt lat="43.64538" lon="1.3798">
        <ele>146</ele>
        <time>2025-04-23T09:57:24Z</time>
      </trkpt>
      <trkpt lat="43.64542" lon="1.3798">
        <ele>146</ele>
        <time>2025-04-23T09:57:25Z</time>
      </trkpt>
      <trkpt lat="43.64546" lon="1.37979">
        <ele>146</ele>
        <time>2025-04-23T09:57:26Z</time>
      </trkpt>
      <trkpt lat="43.64549" lon="1.37977">
        <ele>146</ele>
        <time>2025-04-23T09:57:27Z</time>
      </trkpt>
      <trkpt lat="43.64552" lon="1.37975">
        <ele>146</ele>
        <time>2025-04-23T09:57:28Z</time>
      </trkpt>
      <trkpt lat="43.64555" lon="1.37972">
        <ele>146</ele>
        <time>2025-04-23T09:57:29Z</time>
      </trkpt>
      <trkpt lat="43.64558" lon="1.37969">
        <ele>146</ele>
        <time>2025-04-23T09:57:30Z</time>
      </trkpt>
      <trkpt lat="43.6456" lon="1.37965">
        <ele>146</ele>
        <time>2025-04-23T09:57:31Z</time>
      </trkpt>
      <trkpt lat="43.64563" lon="1.37961">
        <ele>146</ele>
        <time>2025-04-23T09:57:32Z</time>
      </trkpt>
      <trkpt lat="43.64565" lon="1.37957">
        <ele>146</ele>
        <time>2025-04-23T09:57:33Z</time>
      </trkpt>
      <trkpt lat="43.64566" lon="1.37952">
        <ele>147</ele>
        <time>2025-04-23T09:57:34Z</time>
      </trkpt>
      <trkpt lat="43.64567" lon="1.37947">
        <ele>147</ele>
        <time>2025-04-23T09:57:35Z</time>
      </trkpt>
      <trkpt lat="43.64567" lon="1.37941">
        <ele>147</ele>
        <time>2025-04-23T09:57:36Z</time>
      </trkpt>
      <trkpt lat="43.64566" lon="1.37936">
        <ele>147</ele>
        <time>2025-04-23T09:57:37Z</time>
      </trkpt>
      <trkpt lat="43.64565" lon="1.3793">
        <ele>146</ele>
        <time>2025-04-23T09:57:38Z</time>
      </trkpt>
      <trkpt lat="43.64563" lon="1.37925">
        <ele>146</ele>
        <time>2025-04-23T09:57:39Z</time>
      </trkpt>
      <trkpt lat="43.64559" lon="1.37917">
        <ele>146</ele>
        <time>2025-04-23T09:57:40Z</time>
      </trkpt>
      <trkpt lat="43.64559" lon="1.37917">
        <ele>146</ele>
        <time>2025-04-23T09:57:41Z</time>
      </trkpt>
      <trkpt lat="43.64556" lon="1.37914">
        <ele>146</ele>
        <time>2025-04-23T09:57:42Z</time>
      </trkpt>
      <trkpt lat="43.64553" lon="1.3791">
        <ele>146</ele>
        <time>2025-04-23T09:57:43Z</time>
      </trkpt>
      <trkpt lat="43.6455" lon="1.37907">
        <ele>146</ele>
        <time>2025-04-23T09:57:44Z</time>
      </trkpt>
      <trkpt lat="43.64546" lon="1.37905">
        <ele>146</ele>
        <time>2025-04-23T09:57:45Z</time>
      </trkpt>
      <trkpt lat="43.64543" lon="1.37903">
        <ele>146</ele>
        <time>2025-04-23T09:57:46Z</time>
      </trkpt>
      <trkpt lat="43.6454" lon="1.37901">
        <ele>146</ele>
        <time>2025-04-23T09:57:47Z</time>
      </trkpt>
      <trkpt lat="43.64535" lon="1.37899">
        <ele>146</ele>
        <time>2025-04-23T09:57:48Z</time>
      </trkpt>
      <trkpt lat="43.64533" lon="1.37898">
        <ele>146</ele>
        <time>2025-04-23T09:57:49Z</time>
      </trkpt>
      <trkpt lat="43.6453" lon="1.37896">
        <ele>146</ele>
        <time>2025-04-23T09:57:50Z</time>
      </trkpt>
      <trkpt lat="43.64527" lon="1.37894">
        <ele>146</ele>
        <time>2025-04-23T09:57:51Z</time>
      </trkpt>
      <trkpt lat="43.64523" lon="1.37893">
        <ele>146</ele>
        <time>2025-04-23T09:57:52Z</time>
      </trkpt>
      <trkpt lat="43.6452" lon="1.37891">
        <ele>146</ele>
        <time>2025-04-23T09:57:53Z</time>
      </trkpt>
      <trkpt lat="43.64516" lon="1.37889">
        <ele>146</ele>
        <time>2025-04-23T09:57:54Z</time>
      </trkpt>
      <trkpt lat="43.64513" lon="1.37887">
        <ele>146</ele>
        <time>2025-04-23T09:57:55Z</time>
      </trkpt>
      <trkpt lat="43.6451" lon="1.37885">
        <ele>146</ele>
        <time>2025-04-23T09:57:56Z</time>
      </trkpt>
      <trkpt lat="43.64506" lon="1.37883">
        <ele>147</ele>
        <time>2025-04-23T09:57:57Z</time>
      </trkpt>
      <trkpt lat="43.64503" lon="1.3788">
        <ele>147</ele>
        <time>2025-04-23T09:57:58Z</time>
      </trkpt>
      <trkpt lat="43.64496" lon="1.37876">
        <ele>147</ele>
        <time>2025-04-23T09:57:59Z</time>
      </trkpt>
      <trkpt lat="43.64496" lon="1.37876">
        <ele>147</ele>
        <time>2025-04-23T09:58:00Z</time>
      </trkpt>
      <trkpt lat="43.64491" lon="1.37874">
        <ele>147</ele>
        <time>2025-04-23T09:58:01Z</time>
      </trkpt>
      <trkpt lat="43.64489" lon="1.37873">
        <ele>147</ele>
        <time>2025-04-23T09:58:02Z</time>
      </trkpt>
      <trkpt lat="43.64486" lon="1.37873">
        <ele>147</ele>
        <time>2025-04-23T09:58:03Z</time>
      </trkpt>
      <trkpt lat="43.64483" lon="1.37873">
        <ele>146</ele>
        <time>2025-04-23T09:58:04Z</time>
      </trkpt>
      <trkpt lat="43.64479" lon="1.37875">
        <ele>146</ele>
        <time>2025-04-23T09:58:05Z</time>
      </trkpt>
      <trkpt lat="43.64477" lon="1.37876">
        <ele>146</ele>
        <time>2025-04-23T09:58:06Z</time>
      </trkpt>
      <trkpt lat="43.64474" lon="1.37878">
        <ele>146</ele>
        <time>2025-04-23T09:58:07Z</time>
      </trkpt>
      <trkpt lat="43.64472" lon="1.37881">
        <ele>146</ele>
        <time>2025-04-23T09:58:08Z</time>
      </trkpt>
      <trkpt lat="43.64469" lon="1.37884">
        <ele>146</ele>
        <time>2025-04-23T09:58:09Z</time>
      </trkpt>
      <trkpt lat="43.64467" lon="1.37889">
        <ele>146</ele>
        <time>2025-04-23T09:58:10Z</time>
      </trkpt>
      <trkpt lat="43.64465" lon="1.37893">
        <ele>146</ele>
        <time>2025-04-23T09:58:11Z</time>
      </trkpt>
      <trkpt lat="43.64464" lon="1.37897">
        <ele>146</ele>
        <time>2025-04-23T09:58:12Z</time>
      </trkpt>
      <trkpt lat="43.64463" lon="1.37902">
        <ele>146</ele>
        <time>2025-04-23T09:58:13Z</time>
      </trkpt>
      <trkpt lat="43.64463" lon="1.37907">
        <ele>146</ele>
        <time>2025-04-23T09:58:14Z</time>
      </trkpt>
      <trkpt lat="43.64462" lon="1.37912">
        <ele>146</ele>
        <time>2025-04-23T09:58:15Z</time>
      </trkpt>
      <trkpt lat="43.64462" lon="1.37917">
        <ele>146</ele>
        <time>2025-04-23T09:58:16Z</time>
      </trkpt>
      <trkpt lat="43.64463" lon="1.37922">
        <ele>146</ele>
        <time>2025-04-23T09:58:17Z</time>
      </trkpt>
      <trkpt lat="43.64465" lon="1.37932">
        <ele>146</ele>
        <time>2025-04-23T09:58:18Z</time>
      </trkpt>
      <trkpt lat="43.64465" lon="1.37932">
        <ele>146</ele>
        <time>2025-04-23T09:58:19Z</time>
      </trkpt>
      <trkpt lat="43.64467" lon="1.37936">
        <ele>146</ele>
        <time>2025-04-23T09:58:20Z</time>
      </trkpt>
      <trkpt lat="43.64469" lon="1.3794">
        <ele>146</ele>
        <time>2025-04-23T09:58:21Z</time>
      </trkpt>
      <trkpt lat="43.64472" lon="1.37943">
        <ele>146</ele>
        <time>2025-04-23T09:58:22Z</time>
      </trkpt>
      <trkpt lat="43.64474" lon="1.37946">
        <ele>146</ele>
        <time>2025-04-23T09:58:23Z</time>
      </trkpt>
      <trkpt lat="43.64477" lon="1.37949">
        <ele>146</ele>
        <time>2025-04-23T09:58:24Z</time>
      </trkpt>
      <trkpt lat="43.64481" lon="1.37951">
        <ele>146</ele>
        <time>2025-04-23T09:58:25Z</time>
      </trkpt>
      <trkpt lat="43.64484" lon="1.37953">
        <ele>146</ele>
        <time>2025-04-23T09:58:26Z</time>
      </trkpt>
      <trkpt lat="43.64487" lon="1.37955">
        <ele>146</ele>
        <time>2025-04-23T09:58:27Z</time>
      </trkpt>
      <trkpt lat="43.6449" lon="1.37957">
        <ele>146</ele>
        <time>2025-04-23T09:58:28Z</time>
      </trkpt>
      <trkpt lat="43.64493" lon="1.37959">
        <ele>146</ele>
        <time>2025-04-23T09:58:29Z</time>
      </trkpt>
      <trkpt lat="43.64498" lon="1.37962">
        <ele>146</ele>
        <time>2025-04-23T09:58:30Z</time>
      </trkpt>
      <trkpt lat="43.645" lon="1.37963">
        <ele>146</ele>
        <time>2025-04-23T09:58:31Z</time>
      </trkpt>
      <trkpt lat="43.64504" lon="1.37965">
        <ele>146</ele>
        <time>2025-04-23T09:58:32Z</time>
      </trkpt>
      <trkpt lat="43.64507" lon="1.37967">
        <ele>146</ele>
        <time>2025-04-23T09:58:33Z</time>
      </trkpt>
      <trkpt lat="43.6451" lon="1.37969">
        <ele>146</ele>
        <time>2025-04-23T09:58:34Z</time>
      </trkpt>
      <trkpt lat="43.64513" lon="1.3797">
        <ele>146</ele>
        <time>2025-04-23T09:58:35Z</time>
      </trkpt>
      <trkpt lat="43.64516" lon="1.37973">
        <ele>146</ele>
        <time>2025-04-23T09:58:36Z</time>
      </trkpt>
      <trkpt lat="43.64522" lon="1.37978">
        <ele>146</ele>
        <time>2025-04-23T09:58:37Z</time>
      </trkpt>
      <trkpt lat="43.64522" lon="1.37978">
        <ele>146</ele>
        <time>2025-04-23T09:58:38Z</time>
      </trkpt>
      <trkpt lat="43.64526" lon="1.3798">
        <ele>146</ele>
        <time>2025-04-23T09:58:39Z</time>
      </trkpt>
      <trkpt lat="43.64529" lon="1.37982">
        <ele>146</ele>
        <time>2025-04-23T09:58:40Z</time>
      </trkpt>
      <trkpt lat="43.64532" lon="1.37983">
        <ele>146</ele>
        <time>2025-04-23T09:58:41Z</time>
      </trkpt>
      <trkpt lat="43.64536" lon="1.37984">
        <ele>146</ele>
        <time>2025-04-23T09:58:42Z</time>
      </trkpt>
      <trkpt lat="43.64539" lon="1.37985">
        <ele>146</ele>
        <time>2025-04-23T09:58:43Z</time>
      </trkpt>
      <trkpt lat="43.64542" lon="1.37984">
        <ele>146</ele>
        <time>2025-04-23T09:58:44Z</time>
      </trkpt>
      <trkpt lat="43.64545" lon="1.37983">
        <ele>146</ele>
        <time>2025-04-23T09:58:45Z</time>
      </trkpt>
      <trkpt lat="43.64548" lon="1.37981">
        <ele>146</ele>
        <time>2025-04-23T09:58:46Z</time>
      </trkpt>
      <trkpt lat="43.64552" lon="1.37979">
        <ele>146</ele>
        <time>2025-04-23T09:58:47Z</time>
      </trkpt>
      <trkpt lat="43.64555" lon="1.37976">
        <ele>146</ele>
        <time>2025-04-23T09:58:48Z</time>
      </trkpt>
      <trkpt lat="43.64558" lon="1.37973">
        <ele>146</ele>
        <time>2025-04-23T09:58:49Z</time>
      </trkpt>
      <trkpt lat="43.64561" lon="1.37968">
        <ele>146</ele>
        <time>2025-04-23T09:58:50Z</time>
      </trkpt>
      <trkpt lat="43.64563" lon="1.37963">
        <ele>146</ele>
        <time>2025-04-23T09:58:51Z</time>
      </trkpt>
      <trkpt lat="43.64565" lon="1.37958">
        <ele>146</ele>
        <time>2025-04-23T09:58:52Z</time>
      </trkpt>
      <trkpt lat="43.64566" lon="1.37953">
        <ele>146</ele>
        <time>2025-04-23T09:58:53Z</time>
      </trkpt>
      <trkpt lat="43.64567" lon="1.37949">
        <ele>146</ele>
        <time>2025-04-23T09:58:54Z</time>
      </trkpt>
      <trkpt lat="43.64567" lon="1.37944">
        <ele>147</ele>
        <time>2025-04-23T09:58:55Z</time>
      </trkpt>
      <trkpt lat="43.64565" lon="1.37934">
        <ele>147</ele>
        <time>2025-04-23T09:58:56Z</time>
      </trkpt>
      <trkpt lat="43.64565" lon="1.37934">
        <ele>146</ele>
        <time>2025-04-23T09:58:57Z</time>
      </trkpt>
      <trkpt lat="43.64563" lon="1.37927">
        <ele>146</ele>
        <time>2025-04-23T09:58:58Z</time>
      </trkpt>
      <trkpt lat="43.64563" lon="1.37925">
        <ele>146</ele>
        <time>2025-04-23T09:58:59Z</time>
      </trkpt>
      <trkpt lat="43.64561" lon="1.37921">
        <ele>147</ele>
        <time>2025-04-23T09:59:00Z</time>
      </trkpt>
      <trkpt lat="43.64558" lon="1.37916">
        <ele>147</ele>
        <time>2025-04-23T09:59:01Z</time>
      </trkpt>
      <trkpt lat="43.64556" lon="1.37913">
        <ele>147</ele>
        <time>2025-04-23T09:59:02Z</time>
      </trkpt>
      <trkpt lat="43.64552" lon="1.3791">
        <ele>147</ele>
        <time>2025-04-23T09:59:03Z</time>
      </trkpt>
      <trkpt lat="43.64549" lon="1.37907">
        <ele>146</ele>
        <time>2025-04-23T09:59:04Z</time>
      </trkpt>
      <trkpt lat="43.64545" lon="1.37905">
        <ele>145</ele>
        <time>2025-04-23T09:59:05Z</time>
      </trkpt>
      <trkpt lat="43.64541" lon="1.37902">
        <ele>145</ele>
        <time>2025-04-23T09:59:06Z</time>
      </trkpt>
      <trkpt lat="43.6454" lon="1.37901">
        <ele>145</ele>
        <time>2025-04-23T09:59:07Z</time>
      </trkpt>
      <trkpt lat="43.64539" lon="1.37899">
        <ele>145</ele>
        <time>2025-04-23T09:59:08Z</time>
      </trkpt>
      <trkpt lat="43.64539" lon="1.37899">
        <ele>145</ele>
        <time>2025-04-23T09:59:09Z</time>
      </trkpt>
      <trkpt lat="43.64539" lon="1.37896">
        <ele>145</ele>
        <time>2025-04-23T09:59:10Z</time>
      </trkpt>
      <trkpt lat="43.64539" lon="1.37896">
        <ele>145</ele>
        <time>2025-04-23T09:59:11Z</time>
      </trkpt>
      <trkpt lat="43.64539" lon="1.37896">
        <ele>145</ele>
        <time>2025-04-23T09:59:12Z</time>
      </trkpt>
      <trkpt lat="43.64541" lon="1.37899">
        <ele>146</ele>
        <time>2025-04-23T09:59:13Z</time>
      </trkpt>
      <trkpt lat="43.64543" lon="1.37902">
        <ele>146</ele>
        <time>2025-04-23T09:59:14Z</time>
      </trkpt>
      <trkpt lat="43.64543" lon="1.37902">
        <ele>146</ele>
        <time>2025-04-23T09:59:15Z</time>
      </trkpt>
      <trkpt lat="43.64543" lon="1.37902">
        <ele>146</ele>
        <time>2025-04-23T09:59:16Z</time>
      </trkpt>
      <trkpt lat="43.64545" lon="1.37904">
        <ele>146</ele>
        <time>2025-04-23T09:59:17Z</time>
      </trkpt>
      <trkpt lat="43.64545" lon="1.37904">
        <ele>146</ele>
        <time>2025-04-23T09:59:18Z</time>
      </trkpt>
      <trkpt lat="43.64548" lon="1.37905">
        <ele>146</ele>
        <time>2025-04-23T09:59:19Z</time>
      </trkpt>
      <trkpt lat="43.64548" lon="1.37905">
        <ele>146</ele>
        <time>2025-04-23T09:59:20Z</time>
      </trkpt>
      <trkpt lat="43.6455" lon="1.37907">
        <ele>146</ele>
        <time>2025-04-23T09:59:21Z</time>
      </trkpt>
      <trkpt lat="43.64552" lon="1.37908">
        <ele>146</ele>
        <time>2025-04-23T09:59:22Z</time>
      </trkpt>
      <trkpt lat="43.64552" lon="1.37908">
        <ele>146</ele>
        <time>2025-04-23T09:59:23Z</time>
      </trkpt>
      <trkpt lat="43.64554" lon="1.3791">
        <ele>146</ele>
        <time>2025-04-23T09:59:24Z</time>
      </trkpt>
      <trkpt lat="43.64554" lon="1.3791">
        <ele>146</ele>
        <time>2025-04-23T09:59:25Z</time>
      </trkpt>
      <trkpt lat="43.64557" lon="1.37912">
        <ele>146</ele>
        <time>2025-04-23T09:59:26Z</time>
      </trkpt>
      <trkpt lat="43.64557" lon="1.37912">
        <ele>146</ele>
        <time>2025-04-23T09:59:27Z</time>
      </trkpt>
      <trkpt lat="43.64559" lon="1.37914">
        <ele>146</ele>
        <time>2025-04-23T09:59:28Z</time>
      </trkpt>
      <trkpt lat="43.64559" lon="1.37914">
        <ele>146</ele>
        <time>2025-04-23T09:59:29Z</time>
      </trkpt>
      <trkpt lat="43.64561" lon="1.37916">
        <ele>146</ele>
        <time>2025-04-23T09:59:30Z</time>
      </trkpt>
      <trkpt lat="43.64561" lon="1.37916">
        <ele>146</ele>
        <time>2025-04-23T09:59:31Z</time>
      </trkpt>
      <trkpt lat="43.64562" lon="1.37919">
        <ele>146</ele>
        <time>2025-04-23T09:59:32Z</time>
      </trkpt>
      <trkpt lat="43.64562" lon="1.37919">
        <ele>146</ele>
        <time>2025-04-23T09:59:33Z</time>
      </trkpt>
      <trkpt lat="43.64564" lon="1.37921">
        <ele>146</ele>
        <time>2025-04-23T09:59:34Z</time>
      </trkpt>
      <trkpt lat="43.64564" lon="1.37921">
        <ele>146</ele>
        <time>2025-04-23T09:59:35Z</time>
      </trkpt>
      <trkpt lat="43.64565" lon="1.37924">
        <ele>146</ele>
        <time>2025-04-23T09:59:36Z</time>
      </trkpt>
      <trkpt lat="43.64565" lon="1.37924">
        <ele>146</ele>
        <time>2025-04-23T09:59:37Z</time>
      </trkpt>
      <trkpt lat="43.64567" lon="1.37928">
        <ele>146</ele>
        <time>2025-04-23T09:59:38Z</time>
      </trkpt>
      <trkpt lat="43.64567" lon="1.37928">
        <ele>146</ele>
        <time>2025-04-23T09:59:39Z</time>
      </trkpt>
      <trkpt lat="43.64568" lon="1.37931">
        <ele>146</ele>
        <time>2025-04-23T09:59:40Z</time>
      </trkpt>
      <trkpt lat="43.64568" lon="1.37931">
        <ele>146</ele>
        <time>2025-04-23T09:59:41Z</time>
      </trkpt>
      <trkpt lat="43.64569" lon="1.37934">
        <ele>146</ele>
        <time>2025-04-23T09:59:42Z</time>
      </trkpt>
      <trkpt lat="43.64569" lon="1.37934">
        <ele>146</ele>
        <time>2025-04-23T09:59:43Z</time>
      </trkpt>
      <trkpt lat="43.64569" lon="1.37938">
        <ele>146</ele>
        <time>2025-04-23T09:59:44Z</time>
      </trkpt>
      <trkpt lat="43.64569" lon="1.37938">
        <ele>146</ele>
        <time>2025-04-23T09:59:45Z</time>
      </trkpt>
      <trkpt lat="43.6457" lon="1.37942">
        <ele>146</ele>
        <time>2025-04-23T09:59:46Z</time>
      </trkpt>
      <trkpt lat="43.6457" lon="1.37942">
        <ele>146</ele>
        <time>2025-04-23T09:59:47Z</time>
      </trkpt>
      <trkpt lat="43.6457" lon="1.37945">
        <ele>146</ele>
        <time>2025-04-23T09:59:48Z</time>
      </trkpt>
      <trkpt lat="43.6457" lon="1.37945">
        <ele>146</ele>
        <time>2025-04-23T09:59:49Z</time>
      </trkpt>
      <trkpt lat="43.6457" lon="1.37948">
        <ele>146</ele>
        <time>2025-04-23T09:59:50Z</time>
      </trkpt>
      <trkpt lat="43.6457" lon="1.37948">
        <ele>146</ele>
        <time>2025-04-23T09:59:51Z</time>
      </trkpt>
      <trkpt lat="43.64571" lon="1.37952">
        <ele>146</ele>
        <time>2025-04-23T09:59:52Z</time>
      </trkpt>
      <trkpt lat="43.64571" lon="1.37955">
        <ele>146</ele>
        <time>2025-04-23T09:59:53Z</time>
      </trkpt>
      <trkpt lat="43.64571" lon="1.37955">
        <ele>146</ele>
        <time>2025-04-23T09:59:54Z</time>
      </trkpt>
      <trkpt lat="43.64571" lon="1.37955">
        <ele>146</ele>
        <time>2025-04-23T09:59:55Z</time>
      </trkpt>
      <trkpt lat="43.64571" lon="1.37958">
        <ele>146</ele>
        <time>2025-04-23T09:59:56Z</time>
      </trkpt>
      <trkpt lat="43.64571" lon="1.37958">
        <ele>146</ele>
        <time>2025-04-23T09:59:57Z</time>
      </trkpt>
      <trkpt lat="43.6457" lon="1.37961">
        <ele>146</ele>
        <time>2025-04-23T09:59:58Z</time>
      </trkpt>
      <trkpt lat="43.6457" lon="1.37961">
        <ele>146</ele>
        <time>2025-04-23T09:59:59Z</time>
      </trkpt>
      <trkpt lat="43.64569" lon="1.37963">
        <ele>146</ele>
        <time>2025-04-23T10:00:00Z</time>
      </trkpt>
      <trkpt lat="43.64569" lon="1.37963">
        <ele>146</ele>
        <time>2025-04-23T10:00:01Z</time>
      </trkpt>
      <trkpt lat="43.64568" lon="1.37966">
        <ele>146</ele>
        <time>2025-04-23T10:00:02Z</time>
      </trkpt>
      <trkpt lat="43.64568" lon="1.37966">
        <ele>146</ele>
        <time>2025-04-23T10:00:03Z</time>
      </trkpt>
      <trkpt lat="43.64569" lon="1.37969">
        <ele>146</ele>
        <time>2025-04-23T10:00:04Z</time>
      </trkpt>
      <trkpt lat="43.64569" lon="1.37969">
        <ele>146</ele>
        <time>2025-04-23T10:00:05Z</time>
      </trkpt>
      <trkpt lat="43.64569" lon="1.37969">
        <ele>146</ele>
        <time>2025-04-23T10:00:06Z</time>
      </trkpt>
      <trkpt lat="43.64568" lon="1.37973">
        <ele>146</ele>
        <time>2025-04-23T10:00:07Z</time>
      </trkpt>
      <trkpt lat="43.64568" lon="1.37973">
        <ele>146</ele>
        <time>2025-04-23T10:00:08Z</time>
      </trkpt>
      <trkpt lat="43.64567" lon="1.37975">
        <ele>146</ele>
        <time>2025-04-23T10:00:09Z</time>
      </trkpt>
      <trkpt lat="43.64567" lon="1.37975">
        <ele>146</ele>
        <time>2025-04-23T10:00:10Z</time>
      </trkpt>
      <trkpt lat="43.64565" lon="1.37978">
        <ele>146</ele>
        <time>2025-04-23T10:00:11Z</time>
      </trkpt>
      <trkpt lat="43.64563" lon="1.3798">
        <ele>146</ele>
        <time>2025-04-23T10:00:12Z</time>
      </trkpt>
      <trkpt lat="43.64563" lon="1.3798">
        <ele>146</ele>
        <time>2025-04-23T10:00:13Z</time>
      </trkpt>
      <trkpt lat="43.64563" lon="1.3798">
        <ele>146</ele>
        <time>2025-04-23T10:00:14Z</time>
      </trkpt>
      <trkpt lat="43.64563" lon="1.3798">
        <ele>146</ele>
        <time>2025-04-23T10:00:15Z</time>
      </trkpt>
      <trkpt lat="43.64561" lon="1.37982">
        <ele>146</ele>
        <time>2025-04-23T10:00:16Z</time>
      </trkpt>
      <trkpt lat="43.64561" lon="1.37982">
        <ele>146</ele>
        <time>2025-04-23T10:00:17Z</time>
      </trkpt>
      <trkpt lat="43.64561" lon="1.37982">
        <ele>146</ele>
        <time>2025-04-23T10:00:18Z</time>
      </trkpt>
      <trkpt lat="43.64561" lon="1.37982">
        <ele>146</ele>
        <time>2025-04-23T10:00:19Z</time>
      </trkpt>
      <trkpt lat="43.64561" lon="1.37982">
        <ele>146</ele>
        <time>2025-04-23T10:00:20Z</time>
      </trkpt>
      <trkpt lat="43.64561" lon="1.37982">
        <ele>146</ele>
        <time>2025-04-23T10:00:21Z</time>
      </trkpt>
      <trkpt lat="43.64561" lon="1.37982">
        <ele>146</ele>
        <time>2025-04-23T10:00:22Z</time>
      </trkpt>
      <trkpt lat="43.64561" lon="1.37982">
        <ele>146</ele>
        <time>2025-04-23T10:00:23Z</time>
      </trkpt>
      <trkpt lat="43.64561" lon="1.37982">
        <ele>146</ele>
        <time>2025-04-23T10:00:24Z</time>
      </trkpt>
      <trkpt lat="43.64561" lon="1.37982">
        <ele>146</ele>
        <time>2025-04-23T10:00:25Z</time>
      </trkpt>
      <trkpt lat="43.64561" lon="1.37982">
        <ele>146</ele>
        <time>2025-04-23T10:00:26Z</time>
      </trkpt>
      <trkpt lat="43.64561" lon="1.37982">
        <ele>146</ele>
        <time>2025-04-23T10:00:27Z</time>
      </trkpt>
      <trkpt lat="43.64561" lon="1.37982">
        <ele>146</ele>
        <time>2025-04-23T10:00:28Z</time>
      </trkpt>
      <trkpt lat="43.64561" lon="1.37982">
        <ele>146</ele>
        <time>2025-04-23T10:00:29Z</time>
      </trkpt>
      <trkpt lat="43.64559" lon="1.37983">
        <ele>146</ele>
        <time>2025-04-23T10:00:30Z</time>
      </trkpt>
      <trkpt lat="43.64557" lon="1.37983">
        <ele>146</ele>
        <time>2025-04-23T10:00:31Z</time>
      </trkpt>
      <trkpt lat="43.64557" lon="1.37983">
        <ele>146</ele>
        <time>2025-04-23T10:00:32Z</time>
      </trkpt>
      <trkpt lat="43.64557" lon="1.37983">
        <ele>146</ele>
        <time>2025-04-23T10:00:33Z</time>
      </trkpt>
      <trkpt lat="43.64555" lon="1.37983">
        <ele>146</ele>
        <time>2025-04-23T10:00:34Z</time>
      </trkpt>
      <trkpt lat="43.64555" lon="1.37983">
        <ele>146</ele>
        <time>2025-04-23T10:00:35Z</time>
      </trkpt>
      <trkpt lat="43.64552" lon="1.37984">
        <ele>146</ele>
        <time>2025-04-23T10:00:36Z</time>
      </trkpt>
      <trkpt lat="43.64552" lon="1.37984">
        <ele>146</ele>
        <time>2025-04-23T10:00:37Z</time>
      </trkpt>
      <trkpt lat="43.6455" lon="1.37985">
        <ele>146</ele>
        <time>2025-04-23T10:00:38Z</time>
      </trkpt>
      <trkpt lat="43.6455" lon="1.37985">
        <ele>146</ele>
        <time>2025-04-23T10:00:39Z</time>
      </trkpt>
      <trkpt lat="43.64548" lon="1.37987">
        <ele>146</ele>
        <time>2025-04-23T10:00:40Z</time>
      </trkpt>
      <trkpt lat="43.64548" lon="1.37987">
        <ele>146</ele>
        <time>2025-04-23T10:00:41Z</time>
      </trkpt>
      <trkpt lat="43.64545" lon="1.37988">
        <ele>146</ele>
        <time>2025-04-23T10:00:42Z</time>
      </trkpt>
      <trkpt lat="43.64545" lon="1.37988">
        <ele>145</ele>
        <time>2025-04-23T10:00:43Z</time>
      </trkpt>
      <trkpt lat="43.64542" lon="1.37989">
        <ele>145</ele>
        <time>2025-04-23T10:00:44Z</time>
      </trkpt>
      <trkpt lat="43.64542" lon="1.37989">
        <ele>145</ele>
        <time>2025-04-23T10:00:45Z</time>
      </trkpt>
      <trkpt lat="43.64539" lon="1.37989">
        <ele>145</ele>
        <time>2025-04-23T10:00:46Z</time>
      </trkpt>
      <trkpt lat="43.64539" lon="1.37989">
        <ele>145</ele>
        <time>2025-04-23T10:00:47Z</time>
      </trkpt>
      <trkpt lat="43.64536" lon="1.37989">
        <ele>145</ele>
        <time>2025-04-23T10:00:48Z</time>
      </trkpt>
      <trkpt lat="43.64536" lon="1.37989">
        <ele>146</ele>
        <time>2025-04-23T10:00:49Z</time>
      </trkpt>
      <trkpt lat="43.64533" lon="1.37989">
        <ele>146</ele>
        <time>2025-04-23T10:00:50Z</time>
      </trkpt>
      <trkpt lat="43.64533" lon="1.37989">
        <ele>146</ele>
        <time>2025-04-23T10:00:51Z</time>
      </trkpt>
      <trkpt lat="43.6453" lon="1.3799">
        <ele>146</ele>
        <time>2025-04-23T10:00:52Z</time>
      </trkpt>
      <trkpt lat="43.6453" lon="1.3799">
        <ele>146</ele>
        <time>2025-04-23T10:00:53Z</time>
      </trkpt>
      <trkpt lat="43.64528" lon="1.37991">
        <ele>146</ele>
        <time>2025-04-23T10:00:54Z</time>
      </trkpt>
      <trkpt lat="43.64528" lon="1.37991">
        <ele>146</ele>
        <time>2025-04-23T10:00:55Z</time>
      </trkpt>
      <trkpt lat="43.64528" lon="1.37991">
        <ele>146</ele>
        <time>2025-04-23T10:00:56Z</time>
      </trkpt>
      <trkpt lat="43.64525" lon="1.3799">
        <ele>146</ele>
        <time>2025-04-23T10:00:57Z</time>
      </trkpt>
      <trkpt lat="43.64523" lon="1.37989">
        <ele>146</ele>
        <time>2025-04-23T10:00:58Z</time>
      </trkpt>
      <trkpt lat="43.64523" lon="1.37989">
        <ele>146</ele>
        <time>2025-04-23T10:00:59Z</time>
      </trkpt>
      <trkpt lat="43.64523" lon="1.37989">
        <ele>146</ele>
        <time>2025-04-23T10:01:00Z</time>
      </trkpt>
      <trkpt lat="43.6452" lon="1.37988">
        <ele>146</ele>
        <time>2025-04-23T10:01:01Z</time>
      </trkpt>
      <trkpt lat="43.6452" lon="1.37988">
        <ele>146</ele>
        <time>2025-04-23T10:01:02Z</time>
      </trkpt>
      <trkpt lat="43.64518" lon="1.37986">
        <ele>146</ele>
        <time>2025-04-23T10:01:03Z</time>
      </trkpt>
      <trkpt lat="43.64518" lon="1.37986">
        <ele>146</ele>
        <time>2025-04-23T10:01:04Z</time>
      </trkpt>
      <trkpt lat="43.64515" lon="1.37985">
        <ele>146</ele>
        <time>2025-04-23T10:01:05Z</time>
      </trkpt>
      <trkpt lat="43.64515" lon="1.37985">
        <ele>145</ele>
        <time>2025-04-23T10:01:06Z</time>
      </trkpt>
      <trkpt lat="43.64513" lon="1.37983">
        <ele>145</ele>
        <time>2025-04-23T10:01:07Z</time>
      </trkpt>
      <trkpt lat="43.64513" lon="1.37983">
        <ele>145</ele>
        <time>2025-04-23T10:01:08Z</time>
      </trkpt>
      <trkpt lat="43.64511" lon="1.37982">
        <ele>145</ele>
        <time>2025-04-23T10:01:09Z</time>
      </trkpt>
      <trkpt lat="43.64511" lon="1.37982">
        <ele>145</ele>
        <time>2025-04-23T10:01:10Z</time>
      </trkpt>
      <trkpt lat="43.64508" lon="1.37981">
        <ele>145</ele>
        <time>2025-04-23T10:01:11Z</time>
      </trkpt>
      <trkpt lat="43.64508" lon="1.37981">
        <ele>145</ele>
        <time>2025-04-23T10:01:12Z</time>
      </trkpt>
      <trkpt lat="43.64507" lon="1.3798">
        <ele>145</ele>
        <time>2025-04-23T10:01:13Z</time>
      </trkpt>
      <trkpt lat="43.64507" lon="1.3798">
        <ele>145</ele>
        <time>2025-04-23T10:01:14Z</time>
      </trkpt>
      <trkpt lat="43.64504" lon="1.37978">
        <ele>145</ele>
        <time>2025-04-23T10:01:15Z</time>
      </trkpt>
      <trkpt lat="43.64504" lon="1.37978">
        <ele>145</ele>
        <time>2025-04-23T10:01:16Z</time>
      </trkpt>
      <trkpt lat="43.64502" lon="1.37977">
        <ele>145</ele>
        <time>2025-04-23T10:01:17Z</time>
      </trkpt>
      <trkpt lat="43.64502" lon="1.37977">
        <ele>145</ele>
        <time>2025-04-23T10:01:18Z</time>
      </trkpt>
      <trkpt lat="43.64499" lon="1.37976">
        <ele>145</ele>
        <time>2025-04-23T10:01:19Z</time>
      </trkpt>
      <trkpt lat="43.64499" lon="1.37976">
        <ele>145</ele>
        <time>2025-04-23T10:01:20Z</time>
      </trkpt>
      <trkpt lat="43.64496" lon="1.37975">
        <ele>145</ele>
        <time>2025-04-23T10:01:21Z</time>
      </trkpt>
      <trkpt lat="43.64496" lon="1.37975">
        <ele>145</ele>
        <time>2025-04-23T10:01:22Z</time>
      </trkpt>
      <trkpt lat="43.64494" lon="1.37973">
        <ele>145</ele>
        <time>2025-04-23T10:01:23Z</time>
      </trkpt>
      <trkpt lat="43.64494" lon="1.37973">
        <ele>145</ele>
        <time>2025-04-23T10:01:24Z</time>
      </trkpt>
      <trkpt lat="43.64491" lon="1.37972">
        <ele>145</ele>
        <time>2025-04-23T10:01:25Z</time>
      </trkpt>
      <trkpt lat="43.64491" lon="1.37972">
        <ele>145</ele>
        <time>2025-04-23T10:01:26Z</time>
      </trkpt>
      <trkpt lat="43.64489" lon="1.3797">
        <ele>145</ele>
        <time>2025-04-23T10:01:27Z</time>
      </trkpt>
      <trkpt lat="43.64486" lon="1.37969">
        <ele>145</ele>
        <time>2025-04-23T10:01:28Z</time>
      </trkpt>
      <trkpt lat="43.64486" lon="1.37969">
        <ele>145</ele>
        <time>2025-04-23T10:01:29Z</time>
      </trkpt>
      <trkpt lat="43.64486" lon="1.37969">
        <ele>145</ele>
        <time>2025-04-23T10:01:30Z</time>
      </trkpt>
      <trkpt lat="43.64484" lon="1.37968">
        <ele>145</ele>
        <time>2025-04-23T10:01:31Z</time>
      </trkpt>
      <trkpt lat="43.64484" lon="1.37968">
        <ele>145</ele>
        <time>2025-04-23T10:01:32Z</time>
      </trkpt>
      <trkpt lat="43.64482" lon="1.37967">
        <ele>145</ele>
        <time>2025-04-23T10:01:33Z</time>
      </trkpt>
      <trkpt lat="43.64482" lon="1.37967">
        <ele>145</ele>
        <time>2025-04-23T10:01:34Z</time>
      </trkpt>
      <trkpt lat="43.64479" lon="1.37966">
        <ele>145</ele>
        <time>2025-04-23T10:01:35Z</time>
      </trkpt>
      <trkpt lat="43.64479" lon="1.37966">
        <ele>145</ele>
        <time>2025-04-23T10:01:36Z</time>
      </trkpt>
      <trkpt lat="43.64477" lon="1.37965">
        <ele>145</ele>
        <time>2025-04-23T10:01:37Z</time>
      </trkpt>
      <trkpt lat="43.64477" lon="1.37965">
        <ele>145</ele>
        <time>2025-04-23T10:01:38Z</time>
      </trkpt>
      <trkpt lat="43.64475" lon="1.37964">
        <ele>145</ele>
        <time>2025-04-23T10:01:39Z</time>
      </trkpt>
      <trkpt lat="43.64475" lon="1.37964">
        <ele>145</ele>
        <time>2025-04-23T10:01:40Z</time>
      </trkpt>
      <trkpt lat="43.64474" lon="1.37964">
        <ele>145</ele>
        <time>2025-04-23T10:01:41Z</time>
      </trkpt>
      <trkpt lat="43.64474" lon="1.37964">
        <ele>145</ele>
        <time>2025-04-23T10:01:42Z</time>
      </trkpt>
      <trkpt lat="43.64472" lon="1.37962">
        <ele>146</ele>
        <time>2025-04-23T10:01:43Z</time>
      </trkpt>
      <trkpt lat="43.64472" lon="1.37962">
        <ele>146</ele>
        <time>2025-04-23T10:01:44Z</time>
      </trkpt>
      <trkpt lat="43.6447" lon="1.3796">
        <ele>145</ele>
        <time>2025-04-23T10:01:45Z</time>
      </trkpt>
      <trkpt lat="43.6447" lon="1.3796">
        <ele>145</ele>
        <time>2025-04-23T10:01:46Z</time>
      </trkpt>
      <trkpt lat="43.64469" lon="1.37958">
        <ele>145</ele>
        <time>2025-04-23T10:01:47Z</time>
      </trkpt>
      <trkpt lat="43.64469" lon="1.37958">
        <ele>145</ele>
        <time>2025-04-23T10:01:48Z</time>
      </trkpt>
      <trkpt lat="43.64467" lon="1.37957">
        <ele>145</ele>
        <time>2025-04-23T10:01:49Z</time>
      </trkpt>
      <trkpt lat="43.64467" lon="1.37957">
        <ele>145</ele>
        <time>2025-04-23T10:01:50Z</time>
      </trkpt>
      <trkpt lat="43.64464" lon="1.37955">
        <ele>145</ele>
        <time>2025-04-23T10:01:51Z</time>
      </trkpt>
      <trkpt lat="43.64464" lon="1.37955">
        <ele>145</ele>
        <time>2025-04-23T10:01:52Z</time>
      </trkpt>
      <trkpt lat="43.64462" lon="1.37953">
        <ele>145</ele>
        <time>2025-04-23T10:01:53Z</time>
      </trkpt>
      <trkpt lat="43.64462" lon="1.37953">
        <ele>146</ele>
        <time>2025-04-23T10:01:54Z</time>
      </trkpt>
      <trkpt lat="43.6446" lon="1.37952">
        <ele>146</ele>
        <time>2025-04-23T10:01:55Z</time>
      </trkpt>
      <trkpt lat="43.6446" lon="1.37952">
        <ele>145</ele>
        <time>2025-04-23T10:01:56Z</time>
      </trkpt>
      <trkpt lat="43.64459" lon="1.3795">
        <ele>145</ele>
        <time>2025-04-23T10:01:57Z</time>
      </trkpt>
      <trkpt lat="43.64459" lon="1.3795">
        <ele>145</ele>
        <time>2025-04-23T10:01:58Z</time>
      </trkpt>
      <trkpt lat="43.64457" lon="1.37948">
        <ele>145</ele>
        <time>2025-04-23T10:01:59Z</time>
      </trkpt>
      <trkpt lat="43.64457" lon="1.37948">
        <ele>145</ele>
        <time>2025-04-23T10:02:00Z</time>
      </trkpt>
      <trkpt lat="43.64456" lon="1.37945">
        <ele>145</ele>
        <time>2025-04-23T10:02:01Z</time>
      </trkpt>
      <trkpt lat="43.64456" lon="1.37945">
        <ele>145</ele>
        <time>2025-04-23T10:02:02Z</time>
      </trkpt>
      <trkpt lat="43.64456" lon="1.37945">
        <ele>145</ele>
        <time>2025-04-23T10:02:03Z</time>
      </trkpt>
      <trkpt lat="43.64455" lon="1.37941">
        <ele>145</ele>
        <time>2025-04-23T10:02:04Z</time>
      </trkpt>
      <trkpt lat="43.64455" lon="1.37941">
        <ele>146</ele>
        <time>2025-04-23T10:02:05Z</time>
      </trkpt>
      <trkpt lat="43.64453" lon="1.37939">
        <ele>146</ele>
        <time>2025-04-23T10:02:06Z</time>
      </trkpt>
      <trkpt lat="43.64453" lon="1.37939">
        <ele>146</ele>
        <time>2025-04-23T10:02:07Z</time>
      </trkpt>
      <trkpt lat="43.64452" lon="1.37938">
        <ele>146</ele>
        <time>2025-04-23T10:02:08Z</time>
      </trkpt>
      <trkpt lat="43.64452" lon="1.37938">
        <ele>146</ele>
        <time>2025-04-23T10:02:09Z</time>
      </trkpt>
      <trkpt lat="43.6445" lon="1.37937">
        <ele>145</ele>
        <time>2025-04-23T10:02:10Z</time>
      </trkpt>
      <trkpt lat="43.6445" lon="1.37937">
        <ele>145</ele>
        <time>2025-04-23T10:02:11Z</time>
      </trkpt>
      <trkpt lat="43.64449" lon="1.37934">
        <ele>145</ele>
        <time>2025-04-23T10:02:12Z</time>
      </trkpt>
      <trkpt lat="43.64449" lon="1.37934">
        <ele>145</ele>
        <time>2025-04-23T10:02:13Z</time>
      </trkpt>
      <trkpt lat="43.64447" lon="1.37932">
        <ele>145</ele>
        <time>2025-04-23T10:02:14Z</time>
      </trkpt>
      <trkpt lat="43.64447" lon="1.37932">
        <ele>145</ele>
        <time>2025-04-23T10:02:15Z</time>
      </trkpt>
      <trkpt lat="43.64446" lon="1.37931">
        <ele>145</ele>
        <time>2025-04-23T10:02:16Z</time>
      </trkpt>
      <trkpt lat="43.64446" lon="1.37931">
        <ele>146</ele>
        <time>2025-04-23T10:02:17Z</time>
      </trkpt>
      <trkpt lat="43.64446" lon="1.37931">
        <ele>146</ele>
        <time>2025-04-23T10:02:18Z</time>
      </trkpt>
      <trkpt lat="43.64446" lon="1.37931">
        <ele>146</ele>
        <time>2025-04-23T10:02:19Z</time>
      </trkpt>
      <trkpt lat="43.64446" lon="1.37931">
        <ele>146</ele>
        <time>2025-04-23T10:02:20Z</time>
      </trkpt>
      <trkpt lat="43.64446" lon="1.37931">
        <ele>146</ele>
        <time>2025-04-23T10:02:21Z</time>
      </trkpt>
      <trkpt lat="43.64446" lon="1.37931">
        <ele>146</ele>
        <time>2025-04-23T10:02:22Z</time>
      </trkpt>
      <trkpt lat="43.64446" lon="1.37934">
        <ele>146</ele>
        <time>2025-04-23T10:02:23Z</time>
      </trkpt>
      <trkpt lat="43.64446" lon="1.37934">
        <ele>146</ele>
        <time>2025-04-23T10:02:24Z</time>
      </trkpt>
      <trkpt lat="43.64446" lon="1.37934">
        <ele>146</ele>
        <time>2025-04-23T10:02:25Z</time>
      </trkpt>
      <trkpt lat="43.64446" lon="1.37934">
        <ele>146</ele>
        <time>2025-04-23T10:02:26Z</time>
      </trkpt>
      <trkpt lat="43.64447" lon="1.37935">
        <ele>146</ele>
        <time>2025-04-23T10:02:27Z</time>
      </trkpt>
      <trkpt lat="43.64447" lon="1.37935">
        <ele>146</ele>
        <time>2025-04-23T10:02:28Z</time>
      </trkpt>
      <trkpt lat="43.64447" lon="1.37935">
        <ele>146</ele>
        <time>2025-04-23T10:02:29Z</time>
      </trkpt>
      <trkpt lat="43.64447" lon="1.37935">
        <ele>146</ele>
        <time>2025-04-23T10:02:30Z</time>
      </trkpt>
      <trkpt lat="43.64449" lon="1.37937">
        <ele>145</ele>
        <time>2025-04-23T10:02:31Z</time>
      </trkpt>
      <trkpt lat="43.64449" lon="1.37937">
        <ele>145</ele>
        <time>2025-04-23T10:02:32Z</time>
      </trkpt>
      <trkpt lat="43.64451" lon="1.37938">
        <ele>145</ele>
        <time>2025-04-23T10:02:33Z</time>
      </trkpt>
      <trkpt lat="43.64451" lon="1.37938">
        <ele>145</ele>
        <time>2025-04-23T10:02:34Z</time>
      </trkpt>
      <trkpt lat="43.64453" lon="1.37939">
        <ele>145</ele>
        <time>2025-04-23T10:02:35Z</time>
      </trkpt>
      <trkpt lat="43.64453" lon="1.37939">
        <ele>145</ele>
        <time>2025-04-23T10:02:36Z</time>
      </trkpt>
      <trkpt lat="43.64453" lon="1.37939">
        <ele>146</ele>
        <time>2025-04-23T10:02:37Z</time>
      </trkpt>
      <trkpt lat="43.64455" lon="1.37941">
        <ele>146</ele>
        <time>2025-04-23T10:02:38Z</time>
      </trkpt>
      <trkpt lat="43.64455" lon="1.37941">
        <ele>146</ele>
        <time>2025-04-23T10:02:39Z</time>
      </trkpt>
      <trkpt lat="43.64457" lon="1.37942">
        <ele>146</ele>
        <time>2025-04-23T10:02:40Z</time>
      </trkpt>
      <trkpt lat="43.64457" lon="1.37942">
        <ele>145</ele>
        <time>2025-04-23T10:02:41Z</time>
      </trkpt>
      <trkpt lat="43.64457" lon="1.37942">
        <ele>145</ele>
        <time>2025-04-23T10:02:42Z</time>
      </trkpt>
      <trkpt lat="43.64459" lon="1.37944">
        <ele>145</ele>
        <time>2025-04-23T10:02:43Z</time>
      </trkpt>
      <trkpt lat="43.64465" lon="1.37947">
        <ele>145</ele>
        <time>2025-04-23T10:02:44Z</time>
      </trkpt>
      <trkpt lat="43.64465" lon="1.37947">
        <ele>145</ele>
        <time>2025-04-23T10:02:45Z</time>
      </trkpt>
      <trkpt lat="43.64471" lon="1.3795">
        <ele>145</ele>
        <time>2025-04-23T10:02:46Z</time>
      </trkpt>
      <trkpt lat="43.64473" lon="1.37951">
        <ele>145</ele>
        <time>2025-04-23T10:02:47Z</time>
      </trkpt>
      <trkpt lat="43.64478" lon="1.37953">
        <ele>146</ele>
        <time>2025-04-23T10:02:48Z</time>
      </trkpt>
      <trkpt lat="43.64482" lon="1.37956">
        <ele>146</ele>
        <time>2025-04-23T10:02:49Z</time>
      </trkpt>
      <trkpt lat="43.64486" lon="1.37958">
        <ele>145</ele>
        <time>2025-04-23T10:02:50Z</time>
      </trkpt>
      <trkpt lat="43.64491" lon="1.37961">
        <ele>145</ele>
        <time>2025-04-23T10:02:51Z</time>
      </trkpt>
      <trkpt lat="43.64496" lon="1.37964">
        <ele>143</ele>
        <time>2025-04-23T10:02:52Z</time>
      </trkpt>
      <trkpt lat="43.64501" lon="1.37966">
        <ele>143</ele>
        <time>2025-04-23T10:02:53Z</time>
      </trkpt>
      <trkpt lat="43.64506" lon="1.37969">
        <ele>143</ele>
        <time>2025-04-23T10:02:54Z</time>
      </trkpt>
      <trkpt lat="43.64511" lon="1.37972">
        <ele>143</ele>
        <time>2025-04-23T10:02:55Z</time>
      </trkpt>
      <trkpt lat="43.64517" lon="1.37975">
        <ele>144</ele>
        <time>2025-04-23T10:02:56Z</time>
      </trkpt>
      <trkpt lat="43.64521" lon="1.37977">
        <ele>144</ele>
        <time>2025-04-23T10:02:57Z</time>
      </trkpt>
      <trkpt lat="43.64525" lon="1.37979">
        <ele>144</ele>
        <time>2025-04-23T10:02:58Z</time>
      </trkpt>
      <trkpt lat="43.64532" lon="1.37983">
        <ele>144</ele>
        <time>2025-04-23T10:02:59Z</time>
      </trkpt>
      <trkpt lat="43.64532" lon="1.37983">
        <ele>145</ele>
        <time>2025-04-23T10:03:00Z</time>
      </trkpt>
      <trkpt lat="43.64533" lon="1.37986">
        <ele>145</ele>
        <time>2025-04-23T10:03:01Z</time>
      </trkpt>
      <trkpt lat="43.64533" lon="1.37986">
        <ele>145</ele>
        <time>2025-04-23T10:03:02Z</time>
      </trkpt>
      <trkpt lat="43.64535" lon="1.37988">
        <ele>145</ele>
        <time>2025-04-23T10:03:03Z</time>
      </trkpt>
      <trkpt lat="43.64535" lon="1.37988">
        <ele>145</ele>
        <time>2025-04-23T10:03:04Z</time>
      </trkpt>
      <trkpt lat="43.64537" lon="1.3799">
        <ele>145</ele>
        <time>2025-04-23T10:03:05Z</time>
      </trkpt>
      <trkpt lat="43.64537" lon="1.3799">
        <ele>145</ele>
        <time>2025-04-23T10:03:06Z</time>
      </trkpt>
      <trkpt lat="43.64539" lon="1.37992">
        <ele>145</ele>
        <time>2025-04-23T10:03:07Z</time>
      </trkpt>
      <trkpt lat="43.64539" lon="1.37992">
        <ele>145</ele>
        <time>2025-04-23T10:03:08Z</time>
      </trkpt>
      <trkpt lat="43.64539" lon="1.37992">
        <ele>144</ele>
        <time>2025-04-23T10:03:09Z</time>
      </trkpt>
      <trkpt lat="43.64541" lon="1.37993">
        <ele>143</ele>
        <time>2025-04-23T10:03:10Z</time>
      </trkpt>
      <trkpt lat="43.64541" lon="1.37993">
        <ele>143</ele>
        <time>2025-04-23T10:03:11Z</time>
      </trkpt>
      <trkpt lat="43.64542" lon="1.37991">
        <ele>143</ele>
        <time>2025-04-23T10:03:12Z</time>
      </trkpt>
      <trkpt lat="43.64542" lon="1.37991">
        <ele>143</ele>
        <time>2025-04-23T10:03:13Z</time>
      </trkpt>
      <trkpt lat="43.64544" lon="1.37989">
        <ele>144</ele>
        <time>2025-04-23T10:03:14Z</time>
      </trkpt>
      <trkpt lat="43.64544" lon="1.37989">
        <ele>144</ele>
        <time>2025-04-23T10:03:15Z</time>
      </trkpt>
      <trkpt lat="43.64546" lon="1.3799">
        <ele>144</ele>
        <time>2025-04-23T10:03:16Z</time>
      </trkpt>
      <trkpt lat="43.64546" lon="1.3799">
        <ele>144</ele>
        <time>2025-04-23T10:03:17Z</time>
      </trkpt>
      <trkpt lat="43.64546" lon="1.37993">
        <ele>144</ele>
        <time>2025-04-23T10:03:18Z</time>
      </trkpt>
      <trkpt lat="43.64546" lon="1.37993">
        <ele>145</ele>
        <time>2025-04-23T10:03:19Z</time>
      </trkpt>
      <trkpt lat="43.64544" lon="1.37995">
        <ele>146</ele>
        <time>2025-04-23T10:03:20Z</time>
      </trkpt>
      <trkpt lat="43.64544" lon="1.37995">
        <ele>146</ele>
        <time>2025-04-23T10:03:21Z</time>
      </trkpt>
      <trkpt lat="43.64542" lon="1.37997">
        <ele>145</ele>
        <time>2025-04-23T10:03:22Z</time>
      </trkpt>
      <trkpt lat="43.64542" lon="1.37997">
        <ele>145</ele>
        <time>2025-04-23T10:03:23Z</time>
      </trkpt>
      <trkpt lat="43.6454" lon="1.37995">
        <ele>145</ele>
        <time>2025-04-23T10:03:24Z</time>
      </trkpt>
      <trkpt lat="43.6454" lon="1.37995">
        <ele>145</ele>
        <time>2025-04-23T10:03:25Z</time>
      </trkpt>
      <trkpt lat="43.64539" lon="1.37993">
        <ele>145</ele>
        <time>2025-04-23T10:03:26Z</time>
      </trkpt>
      <trkpt lat="43.64539" lon="1.37993">
        <ele>145</ele>
        <time>2025-04-23T10:03:27Z</time>
      </trkpt>
      <trkpt lat="43.64539" lon="1.37993">
        <ele>145</ele>
        <time>2025-04-23T10:03:28Z</time>
      </trkpt>
      <trkpt lat="43.64538" lon="1.3799">
        <ele>145</ele>
        <time>2025-04-23T10:03:29Z</time>
      </trkpt>
      <trkpt lat="43.64538" lon="1.3799">
        <ele>145</ele>
        <time>2025-04-23T10:03:30Z</time>
      </trkpt>
      <trkpt lat="43.64535" lon="1.3799">
        <ele>145</ele>
        <time>2025-04-23T10:03:31Z</time>
      </trkpt>
      <trkpt lat="43.64535" lon="1.3799">
        <ele>145</ele>
        <time>2025-04-23T10:03:32Z</time>
      </trkpt>
      <trkpt lat="43.64533" lon="1.37989">
        <ele>145</ele>
        <time>2025-04-23T10:03:33Z</time>
      </trkpt>
      <trkpt lat="43.64533" lon="1.37989">
        <ele>145</ele>
        <time>2025-04-23T10:03:34Z</time>
      </trkpt>
      <trkpt lat="43.6453" lon="1.37988">
        <ele>145</ele>
        <time>2025-04-23T10:03:35Z</time>
      </trkpt>
      <trkpt lat="43.6453" lon="1.37988">
        <ele>145</ele>
        <time>2025-04-23T10:03:36Z</time>
      </trkpt>
      <trkpt lat="43.64528" lon="1.37987">
        <ele>145</ele>
        <time>2025-04-23T10:03:37Z</time>
      </trkpt>
      <trkpt lat="43.64528" lon="1.37987">
        <ele>145</ele>
        <time>2025-04-23T10:03:38Z</time>
      </trkpt>
      <trkpt lat="43.64526" lon="1.37985">
        <ele>145</ele>
        <time>2025-04-23T10:03:39Z</time>
      </trkpt>
      <trkpt lat="43.64522" lon="1.37983">
        <ele>145</ele>
        <time>2025-04-23T10:03:40Z</time>
      </trkpt>
      <trkpt lat="43.64519" lon="1.37981">
        <ele>145</ele>
        <time>2025-04-23T10:03:41Z</time>
      </trkpt>
      <trkpt lat="43.64519" lon="1.37981">
        <ele>145</ele>
        <time>2025-04-23T10:03:42Z</time>
      </trkpt>
      <trkpt lat="43.64514" lon="1.37979">
        <ele>145</ele>
        <time>2025-04-23T10:03:43Z</time>
      </trkpt>
      <trkpt lat="43.64509" lon="1.37976">
        <ele>145</ele>
        <time>2025-04-23T10:03:44Z</time>
      </trkpt>
      <trkpt lat="43.64505" lon="1.37973">
        <ele>145</ele>
        <time>2025-04-23T10:03:45Z</time>
      </trkpt>
      <trkpt lat="43.645" lon="1.37972">
        <ele>145</ele>
        <time>2025-04-23T10:03:46Z</time>
      </trkpt>
      <trkpt lat="43.64496" lon="1.3797">
        <ele>145</ele>
        <time>2025-04-23T10:03:47Z</time>
      </trkpt>
      <trkpt lat="43.64491" lon="1.37968">
        <ele>145</ele>
        <time>2025-04-23T10:03:48Z</time>
      </trkpt>
      <trkpt lat="43.64481" lon="1.37964">
        <ele>145</ele>
        <time>2025-04-23T10:03:49Z</time>
      </trkpt>
      <trkpt lat="43.64481" lon="1.37964">
        <ele>144</ele>
        <time>2025-04-23T10:03:50Z</time>
      </trkpt>
      <trkpt lat="43.64476" lon="1.37961">
        <ele>144</ele>
        <time>2025-04-23T10:03:51Z</time>
      </trkpt>
      <trkpt lat="43.64471" lon="1.37958">
        <ele>143</ele>
        <time>2025-04-23T10:03:52Z</time>
      </trkpt>
      <trkpt lat="43.64466" lon="1.37955">
        <ele>144</ele>
        <time>2025-04-23T10:03:53Z</time>
      </trkpt>
      <trkpt lat="43.64461" lon="1.37952">
        <ele>144</ele>
        <time>2025-04-23T10:03:54Z</time>
      </trkpt>
      <trkpt lat="43.64457" lon="1.37949">
        <ele>145</ele>
        <time>2025-04-23T10:03:55Z</time>
      </trkpt>
      <trkpt lat="43.64454" lon="1.37946">
        <ele>145</ele>
        <time>2025-04-23T10:03:56Z</time>
      </trkpt>
      <trkpt lat="43.64451" lon="1.37943">
        <ele>145</ele>
        <time>2025-04-23T10:03:57Z</time>
      </trkpt>
      <trkpt lat="43.6445" lon="1.3794">
        <ele>145</ele>
        <time>2025-04-23T10:03:58Z</time>
      </trkpt>
      <trkpt lat="43.64448" lon="1.37938">
        <ele>145</ele>
        <time>2025-04-23T10:03:59Z</time>
      </trkpt>
      <trkpt lat="43.64447" lon="1.37935">
        <ele>145</ele>
        <time>2025-04-23T10:04:00Z</time>
      </trkpt>
      <trkpt lat="43.64447" lon="1.37935">
        <ele>145</ele>
        <time>2025-04-23T10:04:01Z</time>
      </trkpt>
      <trkpt lat="43.64447" lon="1.37935">
        <ele>145</ele>
        <time>2025-04-23T10:04:02Z</time>
      </trkpt>
      <trkpt lat="43.64446" lon="1.37933">
        <ele>145</ele>
        <time>2025-04-23T10:04:03Z</time>
      </trkpt>
      <trkpt lat="43.64444" lon="1.3793">
        <ele>145</ele>
        <time>2025-04-23T10:04:04Z</time>
      </trkpt>
      <trkpt lat="43.64444" lon="1.3793">
        <ele>145</ele>
        <time>2025-04-23T10:04:05Z</time>
      </trkpt>
      <trkpt lat="43.64444" lon="1.3793">
        <ele>145</ele>
        <time>2025-04-23T10:04:06Z</time>
      </trkpt>
      <trkpt lat="43.64444" lon="1.37927">
        <ele>145</ele>
        <time>2025-04-23T10:04:07Z</time>
      </trkpt>
      <trkpt lat="43.64444" lon="1.37927">
        <ele>145</ele>
        <time>2025-04-23T10:04:08Z</time>
      </trkpt>
      <trkpt lat="43.64444" lon="1.37927">
        <ele>145</ele>
        <time>2025-04-23T10:04:09Z</time>
      </trkpt>
      <trkpt lat="43.64444" lon="1.37927">
        <ele>145</ele>
        <time>2025-04-23T10:04:10Z</time>
      </trkpt>
      <trkpt lat="43.64442" lon="1.37929">
        <ele>145</ele>
        <time>2025-04-23T10:04:11Z</time>
      </trkpt>
      <trkpt lat="43.64442" lon="1.37929">
        <ele>145</ele>
        <time>2025-04-23T10:04:12Z</time>
      </trkpt>
      <trkpt lat="43.64441" lon="1.37931">
        <ele>145</ele>
        <time>2025-04-23T10:04:13Z</time>
      </trkpt>
      <trkpt lat="43.64441" lon="1.37931">
        <ele>145</ele>
        <time>2025-04-23T10:04:14Z</time>
      </trkpt>
      <trkpt lat="43.64441" lon="1.37931">
        <ele>145</ele>
        <time>2025-04-23T10:04:15Z</time>
      </trkpt>
      <trkpt lat="43.64443" lon="1.37932">
        <ele>145</ele>
        <time>2025-04-23T10:04:16Z</time>
      </trkpt>
      <trkpt lat="43.64443" lon="1.37932">
        <ele>145</ele>
        <time>2025-04-23T10:04:17Z</time>
      </trkpt>
      <trkpt lat="43.64443" lon="1.37932">
        <ele>145</ele>
        <time>2025-04-23T10:04:18Z</time>
      </trkpt>
      <trkpt lat="43.64446" lon="1.3793">
        <ele>145</ele>
        <time>2025-04-23T10:04:19Z</time>
      </trkpt>
      <trkpt lat="43.64446" lon="1.3793">
        <ele>145</ele>
        <time>2025-04-23T10:04:20Z</time>
      </trkpt>
      <trkpt lat="43.64448" lon="1.3793">
        <ele>145</ele>
        <time>2025-04-23T10:04:21Z</time>
      </trkpt>
      <trkpt lat="43.64448" lon="1.3793">
        <ele>145</ele>
        <time>2025-04-23T10:04:22Z</time>
      </trkpt>
      <trkpt lat="43.64449" lon="1.37932">
        <ele>145</ele>
        <time>2025-04-23T10:04:23Z</time>
      </trkpt>
      <trkpt lat="43.64449" lon="1.37932">
        <ele>145</ele>
        <time>2025-04-23T10:04:24Z</time>
      </trkpt>
      <trkpt lat="43.6445" lon="1.37936">
        <ele>145</ele>
        <time>2025-04-23T10:04:25Z</time>
      </trkpt>
      <trkpt lat="43.6445" lon="1.37936">
        <ele>145</ele>
        <time>2025-04-23T10:04:26Z</time>
      </trkpt>
      <trkpt lat="43.6445" lon="1.37936">
        <ele>145</ele>
        <time>2025-04-23T10:04:27Z</time>
      </trkpt>
      <trkpt lat="43.64452" lon="1.37938">
        <ele>145</ele>
        <time>2025-04-23T10:04:28Z</time>
      </trkpt>
      <trkpt lat="43.64452" lon="1.37938">
        <ele>145</ele>
        <time>2025-04-23T10:04:29Z</time>
      </trkpt>
      <trkpt lat="43.64454" lon="1.37939">
        <ele>145</ele>
        <time>2025-04-23T10:04:30Z</time>
      </trkpt>
      <trkpt lat="43.64454" lon="1.37939">
        <ele>145</ele>
        <time>2025-04-23T10:04:31Z</time>
      </trkpt>
      <trkpt lat="43.64456" lon="1.37941">
        <ele>145</ele>
        <time>2025-04-23T10:04:32Z</time>
      </trkpt>
      <trkpt lat="43.64456" lon="1.37941">
        <ele>145</ele>
        <time>2025-04-23T10:04:33Z</time>
      </trkpt>
      <trkpt lat="43.64458" lon="1.37943">
        <ele>145</ele>
        <time>2025-04-23T10:04:34Z</time>
      </trkpt>
      <trkpt lat="43.6446" lon="1.37944">
        <ele>145</ele>
        <time>2025-04-23T10:04:35Z</time>
      </trkpt>
      <trkpt lat="43.64462" lon="1.37946">
        <ele>145</ele>
        <time>2025-04-23T10:04:36Z</time>
      </trkpt>
      <trkpt lat="43.64471" lon="1.37952">
        <ele>145</ele>
        <time>2025-04-23T10:04:37Z</time>
      </trkpt>
      <trkpt lat="43.64476" lon="1.37955">
        <ele>145</ele>
        <time>2025-04-23T10:04:38Z</time>
      </trkpt>
      <trkpt lat="43.64476" lon="1.37955">
        <ele>145</ele>
        <time>2025-04-23T10:04:39Z</time>
      </trkpt>
      <trkpt lat="43.6448" lon="1.37958">
        <ele>145</ele>
        <time>2025-04-23T10:04:40Z</time>
      </trkpt>
      <trkpt lat="43.64484" lon="1.37961">
        <ele>145</ele>
        <time>2025-04-23T10:04:41Z</time>
      </trkpt>
      <trkpt lat="43.64489" lon="1.37963">
        <ele>145</ele>
        <time>2025-04-23T10:04:42Z</time>
      </trkpt>
      <trkpt lat="43.64493" lon="1.37965">
        <ele>145</ele>
        <time>2025-04-23T10:04:43Z</time>
      </trkpt>
      <trkpt lat="43.64498" lon="1.37969">
        <ele>145</ele>
        <time>2025-04-23T10:04:44Z</time>
      </trkpt>
      <trkpt lat="43.64503" lon="1.37972">
        <ele>146</ele>
        <time>2025-04-23T10:04:45Z</time>
      </trkpt>
      <trkpt lat="43.64508" lon="1.37975">
        <ele>146</ele>
        <time>2025-04-23T10:04:46Z</time>
      </trkpt>
      <trkpt lat="43.64512" lon="1.37978">
        <ele>145</ele>
        <time>2025-04-23T10:04:47Z</time>
      </trkpt>
      <trkpt lat="43.64518" lon="1.37981">
        <ele>144</ele>
        <time>2025-04-23T10:04:48Z</time>
      </trkpt>
      <trkpt lat="43.64522" lon="1.37984">
        <ele>144</ele>
        <time>2025-04-23T10:04:49Z</time>
      </trkpt>
      <trkpt lat="43.64528" lon="1.37986">
        <ele>144</ele>
        <time>2025-04-23T10:04:50Z</time>
      </trkpt>
      <trkpt lat="43.6453" lon="1.37987">
        <ele>144</ele>
        <time>2025-04-23T10:04:51Z</time>
      </trkpt>
      <trkpt lat="43.64532" lon="1.37987">
        <ele>144</ele>
        <time>2025-04-23T10:04:52Z</time>
      </trkpt>
      <trkpt lat="43.64535" lon="1.37987">
        <ele>144</ele>
        <time>2025-04-23T10:04:53Z</time>
      </trkpt>
      <trkpt lat="43.64537" lon="1.37987">
        <ele>145</ele>
        <time>2025-04-23T10:04:54Z</time>
      </trkpt>
      <trkpt lat="43.64537" lon="1.37987">
        <ele>145</ele>
        <time>2025-04-23T10:04:55Z</time>
      </trkpt>
      <trkpt lat="43.64539" lon="1.37987">
        <ele>145</ele>
        <time>2025-04-23T10:04:56Z</time>
      </trkpt>
      <trkpt lat="43.64539" lon="1.37987">
        <ele>145</ele>
        <time>2025-04-23T10:04:57Z</time>
      </trkpt>
      <trkpt lat="43.64541" lon="1.37985">
        <ele>145</ele>
        <time>2025-04-23T10:04:58Z</time>
      </trkpt>
      <trkpt lat="43.64541" lon="1.37985">
        <ele>145</ele>
        <time>2025-04-23T10:04:59Z</time>
      </trkpt>
      <trkpt lat="43.64541" lon="1.37985">
        <ele>145</ele>
        <time>2025-04-23T10:05:00Z</time>
      </trkpt>
      <trkpt lat="43.64542" lon="1.37982">
        <ele>144</ele>
        <time>2025-04-23T10:05:01Z</time>
      </trkpt>
      <trkpt lat="43.64542" lon="1.37982">
        <ele>144</ele>
        <time>2025-04-23T10:05:02Z</time>
      </trkpt>
      <trkpt lat="43.64544" lon="1.37984">
        <ele>145</ele>
        <time>2025-04-23T10:05:03Z</time>
      </trkpt>
      <trkpt lat="43.64544" lon="1.37984">
        <ele>145</ele>
        <time>2025-04-23T10:05:04Z</time>
      </trkpt>
      <trkpt lat="43.64545" lon="1.37988">
        <ele>145</ele>
        <time>2025-04-23T10:05:05Z</time>
      </trkpt>
      <trkpt lat="43.64545" lon="1.37988">
        <ele>145</ele>
        <time>2025-04-23T10:05:06Z</time>
      </trkpt>
      <trkpt lat="43.64545" lon="1.37992">
        <ele>145</ele>
        <time>2025-04-23T10:05:07Z</time>
      </trkpt>
      <trkpt lat="43.64545" lon="1.37992">
        <ele>145</ele>
        <time>2025-04-23T10:05:08Z</time>
      </trkpt>
      <trkpt lat="43.64545" lon="1.37994">
        <ele>145</ele>
        <time>2025-04-23T10:05:09Z</time>
      </trkpt>
      <trkpt lat="43.64545" lon="1.37994">
        <ele>145</ele>
        <time>2025-04-23T10:05:10Z</time>
      </trkpt>
      <trkpt lat="43.64544" lon="1.37997">
        <ele>145</ele>
        <time>2025-04-23T10:05:11Z</time>
      </trkpt>
      <trkpt lat="43.64544" lon="1.37997">
        <ele>145</ele>
        <time>2025-04-23T10:05:12Z</time>
      </trkpt>
      <trkpt lat="43.64542" lon="1.37997">
        <ele>145</ele>
        <time>2025-04-23T10:05:13Z</time>
      </trkpt>
      <trkpt lat="43.64542" lon="1.37997">
        <ele>145</ele>
        <time>2025-04-23T10:05:14Z</time>
      </trkpt>
      <trkpt lat="43.64539" lon="1.37996">
        <ele>145</ele>
        <time>2025-04-23T10:05:15Z</time>
      </trkpt>
      <trkpt lat="43.64539" lon="1.37996">
        <ele>145</ele>
        <time>2025-04-23T10:05:16Z</time>
      </trkpt>
      <trkpt lat="43.64537" lon="1.37995">
        <ele>145</ele>
        <time>2025-04-23T10:05:17Z</time>
      </trkpt>
      <trkpt lat="43.64537" lon="1.37995">
        <ele>145</ele>
        <time>2025-04-23T10:05:18Z</time>
      </trkpt>
      <trkpt lat="43.64536" lon="1.37993">
        <ele>145</ele>
        <time>2025-04-23T10:05:19Z</time>
      </trkpt>
      <trkpt lat="43.64536" lon="1.37993">
        <ele>144</ele>
        <time>2025-04-23T10:05:20Z</time>
      </trkpt>
      <trkpt lat="43.64534" lon="1.37992">
        <ele>144</ele>
        <time>2025-04-23T10:05:21Z</time>
      </trkpt>
      <trkpt lat="43.64534" lon="1.37992">
        <ele>145</ele>
        <time>2025-04-23T10:05:22Z</time>
      </trkpt>
      <trkpt lat="43.64531" lon="1.37991">
        <ele>145</ele>
        <time>2025-04-23T10:05:23Z</time>
      </trkpt>
      <trkpt lat="43.64531" lon="1.37991">
        <ele>145</ele>
        <time>2025-04-23T10:05:24Z</time>
      </trkpt>
      <trkpt lat="43.64529" lon="1.37989">
        <ele>145</ele>
        <time>2025-04-23T10:05:25Z</time>
      </trkpt>
      <trkpt lat="43.64529" lon="1.37989">
        <ele>145</ele>
        <time>2025-04-23T10:05:26Z</time>
      </trkpt>
      <trkpt lat="43.64528" lon="1.37987">
        <ele>145</ele>
        <time>2025-04-23T10:05:27Z</time>
      </trkpt>
      <trkpt lat="43.64528" lon="1.37987">
        <ele>145</ele>
        <time>2025-04-23T10:05:28Z</time>
      </trkpt>
      <trkpt lat="43.64527" lon="1.37985">
        <ele>145</ele>
        <time>2025-04-23T10:05:29Z</time>
      </trkpt>
      <trkpt lat="43.64527" lon="1.37985">
        <ele>145</ele>
        <time>2025-04-23T10:05:30Z</time>
      </trkpt>
      <trkpt lat="43.64525" lon="1.37983">
        <ele>145</ele>
        <time>2025-04-23T10:05:31Z</time>
      </trkpt>
      <trkpt lat="43.64525" lon="1.37983">
        <ele>145</ele>
        <time>2025-04-23T10:05:32Z</time>
      </trkpt>
      <trkpt lat="43.64523" lon="1.37981">
        <ele>145</ele>
        <time>2025-04-23T10:05:33Z</time>
      </trkpt>
      <trkpt lat="43.64522" lon="1.3798">
        <ele>145</ele>
        <time>2025-04-23T10:05:34Z</time>
      </trkpt>
      <trkpt lat="43.64518" lon="1.37978">
        <ele>145</ele>
        <time>2025-04-23T10:05:35Z</time>
      </trkpt>
      <trkpt lat="43.64514" lon="1.37975">
        <ele>145</ele>
        <time>2025-04-23T10:05:36Z</time>
      </trkpt>
      <trkpt lat="43.6451" lon="1.37972">
        <ele>145</ele>
        <time>2025-04-23T10:05:37Z</time>
      </trkpt>
      <trkpt lat="43.64505" lon="1.3797">
        <ele>145</ele>
        <time>2025-04-23T10:05:38Z</time>
      </trkpt>
      <trkpt lat="43.64499" lon="1.37968">
        <ele>146</ele>
        <time>2025-04-23T10:05:39Z</time>
      </trkpt>
      <trkpt lat="43.64493" lon="1.37966">
        <ele>146</ele>
        <time>2025-04-23T10:05:40Z</time>
      </trkpt>
      <trkpt lat="43.64488" lon="1.37963">
        <ele>145</ele>
        <time>2025-04-23T10:05:41Z</time>
      </trkpt>
      <trkpt lat="43.64482" lon="1.37961">
        <ele>145</ele>
        <time>2025-04-23T10:05:42Z</time>
      </trkpt>
      <trkpt lat="43.64476" lon="1.37959">
        <ele>145</ele>
        <time>2025-04-23T10:05:43Z</time>
      </trkpt>
      <trkpt lat="43.64471" lon="1.37957">
        <ele>144</ele>
        <time>2025-04-23T10:05:44Z</time>
      </trkpt>
      <trkpt lat="43.64466" lon="1.37954">
        <ele>144</ele>
        <time>2025-04-23T10:05:45Z</time>
      </trkpt>
      <trkpt lat="43.64462" lon="1.37951">
        <ele>145</ele>
        <time>2025-04-23T10:05:46Z</time>
      </trkpt>
      <trkpt lat="43.64457" lon="1.37948">
        <ele>145</ele>
        <time>2025-04-23T10:05:47Z</time>
      </trkpt>
      <trkpt lat="43.64451" lon="1.37942">
        <ele>145</ele>
        <time>2025-04-23T10:05:48Z</time>
      </trkpt>
      <trkpt lat="43.64451" lon="1.37942">
        <ele>145</ele>
        <time>2025-04-23T10:05:49Z</time>
      </trkpt>
      <trkpt lat="43.64449" lon="1.3794">
        <ele>145</ele>
        <time>2025-04-23T10:05:50Z</time>
      </trkpt>
      <trkpt lat="43.64449" lon="1.37938">
        <ele>145</ele>
        <time>2025-04-23T10:05:51Z</time>
      </trkpt>
      <trkpt lat="43.64449" lon="1.37935">
        <ele>145</ele>
        <time>2025-04-23T10:05:52Z</time>
      </trkpt>
      <trkpt lat="43.6445" lon="1.37932">
        <ele>145</ele>
        <time>2025-04-23T10:05:53Z</time>
      </trkpt>
      <trkpt lat="43.6445" lon="1.37932">
        <ele>145</ele>
        <time>2025-04-23T10:05:54Z</time>
      </trkpt>
      <trkpt lat="43.64452" lon="1.37929">
        <ele>145</ele>
        <time>2025-04-23T10:05:55Z</time>
      </trkpt>
      <trkpt lat="43.64454" lon="1.37926">
        <ele>145</ele>
        <time>2025-04-23T10:05:56Z</time>
      </trkpt>
      <trkpt lat="43.64454" lon="1.37926">
        <ele>145</ele>
        <time>2025-04-23T10:05:57Z</time>
      </trkpt>
      <trkpt lat="43.64454" lon="1.37926">
        <ele>145</ele>
        <time>2025-04-23T10:05:58Z</time>
      </trkpt>
      <trkpt lat="43.64457" lon="1.37926">
        <ele>145</ele>
        <time>2025-04-23T10:05:59Z</time>
      </trkpt>
      <trkpt lat="43.64457" lon="1.37926">
        <ele>144</ele>
        <time>2025-04-23T10:06:00Z</time>
      </trkpt>
      <trkpt lat="43.64459" lon="1.37927">
        <ele>145</ele>
        <time>2025-04-23T10:06:01Z</time>
      </trkpt>
      <trkpt lat="43.64459" lon="1.37927">
        <ele>145</ele>
        <time>2025-04-23T10:06:02Z</time>
      </trkpt>
      <trkpt lat="43.6446" lon="1.37928">
        <ele>145</ele>
        <time>2025-04-23T10:06:03Z</time>
      </trkpt>
    </trkseg>
  </trk>
</gpx>